<?xml version="1.0" encoding="UTF-8" standalone="no" ?>
<gpx xmlns="http://www.topografix.com/GPX/1/1" xmlns:xsi="http://www.w3.org/2001/XMLSchema-instance" xsi:schemaLocation="http://www.topografix.com/GPX/1/1 http://www.topografix.com/GPX/1/1/gpx.xsd" version="1.1" creator="VisuGPX - https://www.visugpx.com">
  <metadata>
    <name>Croix de Belledonne + Tour de ouf à veloski record dénivelé explosé ! !!!!</name>
  </metadata>
  <trk>
    <name><![CDATA[Croix de Belledonne + Tour de ouf à veloski record dénivelé explosé ! !!!!]]></name>
    <trkseg>
      <trkpt lat="45.17899" lon="5.9097">
        <ele>1300.3</ele>
        <time>2018-05-12T05:04:05Z</time>
      </trkpt>
      <trkpt lat="45.17903" lon="5.90961">
        <ele>1301.7</ele>
        <time>2018-05-12T05:04:08Z</time>
      </trkpt>
      <trkpt lat="45.17913" lon="5.90954">
        <ele>1302.8</ele>
        <time>2018-05-12T05:04:14Z</time>
      </trkpt>
      <trkpt lat="45.17918" lon="5.90949">
        <ele>1304</ele>
        <time>2018-05-12T05:04:20Z</time>
      </trkpt>
      <trkpt lat="45.17935" lon="5.90938">
        <ele>1302.8</ele>
        <time>2018-05-12T05:04:37Z</time>
      </trkpt>
      <trkpt lat="45.17939" lon="5.90932">
        <ele>1301.8</ele>
        <time>2018-05-12T05:04:49Z</time>
      </trkpt>
      <trkpt lat="45.17968" lon="5.90938">
        <ele>1304.1</ele>
        <time>2018-05-12T05:05:22Z</time>
      </trkpt>
      <trkpt lat="45.17977" lon="5.90936">
        <ele>1305.8</ele>
        <time>2018-05-12T05:05:32Z</time>
      </trkpt>
      <trkpt lat="45.18003" lon="5.90939">
        <ele>1308.5</ele>
        <time>2018-05-12T05:06:03Z</time>
      </trkpt>
      <trkpt lat="45.18016" lon="5.90947">
        <ele>1310.1</ele>
        <time>2018-05-12T05:06:15Z</time>
      </trkpt>
      <trkpt lat="45.18041" lon="5.90951">
        <ele>1314.2</ele>
        <time>2018-05-12T05:06:35Z</time>
      </trkpt>
      <trkpt lat="45.18047" lon="5.90956">
        <ele>1316.5</ele>
        <time>2018-05-12T05:06:42Z</time>
      </trkpt>
      <trkpt lat="45.18072" lon="5.90967">
        <ele>1319.9</ele>
        <time>2018-05-12T05:06:51Z</time>
      </trkpt>
      <trkpt lat="45.18081" lon="5.90969">
        <ele>1321.6</ele>
        <time>2018-05-12T05:06:53Z</time>
      </trkpt>
      <trkpt lat="45.18103" lon="5.90972">
        <ele>1322.9</ele>
        <time>2018-05-12T05:07:07Z</time>
      </trkpt>
      <trkpt lat="45.1813" lon="5.90985">
        <ele>1323.6</ele>
        <time>2018-05-12T05:07:30Z</time>
      </trkpt>
      <trkpt lat="45.18155" lon="5.90984">
        <ele>1325.5</ele>
        <time>2018-05-12T05:07:45Z</time>
      </trkpt>
      <trkpt lat="45.18168" lon="5.90991">
        <ele>1326.1</ele>
        <time>2018-05-12T05:07:56Z</time>
      </trkpt>
      <trkpt lat="45.18186" lon="5.90997">
        <ele>1327.8</ele>
        <time>2018-05-12T05:08:15Z</time>
      </trkpt>
      <trkpt lat="45.18195" lon="5.91001">
        <ele>1330.5</ele>
        <time>2018-05-12T05:08:25Z</time>
      </trkpt>
      <trkpt lat="45.1822" lon="5.91021">
        <ele>1334.1</ele>
        <time>2018-05-12T05:08:46Z</time>
      </trkpt>
      <trkpt lat="45.18235" lon="5.91025">
        <ele>1336.9</ele>
        <time>2018-05-12T05:08:54Z</time>
      </trkpt>
      <trkpt lat="45.18244" lon="5.91033">
        <ele>1339.1</ele>
        <time>2018-05-12T05:09:01Z</time>
      </trkpt>
      <trkpt lat="45.18248" lon="5.91034">
        <ele>1340</ele>
        <time>2018-05-12T05:09:05Z</time>
      </trkpt>
      <trkpt lat="45.18258" lon="5.91047">
        <ele>1342.6</ele>
        <time>2018-05-12T05:09:16Z</time>
      </trkpt>
      <trkpt lat="45.18259" lon="5.91055">
        <ele>1344</ele>
        <time>2018-05-12T05:09:23Z</time>
      </trkpt>
      <trkpt lat="45.18265" lon="5.91066">
        <ele>1345.3</ele>
        <time>2018-05-12T05:09:30Z</time>
      </trkpt>
      <trkpt lat="45.18273" lon="5.9107">
        <ele>1347.7</ele>
        <time>2018-05-12T05:09:37Z</time>
      </trkpt>
      <trkpt lat="45.18287" lon="5.91082">
        <ele>1350.1</ele>
        <time>2018-05-12T05:09:52Z</time>
      </trkpt>
      <trkpt lat="45.18292" lon="5.91088">
        <ele>1350.5</ele>
        <time>2018-05-12T05:09:57Z</time>
      </trkpt>
      <trkpt lat="45.18299" lon="5.91091">
        <ele>1350.8</ele>
        <time>2018-05-12T05:10:03Z</time>
      </trkpt>
      <trkpt lat="45.18301" lon="5.91095">
        <ele>1351.4</ele>
        <time>2018-05-12T05:10:06Z</time>
      </trkpt>
      <trkpt lat="45.18318" lon="5.91103">
        <ele>1351.9</ele>
        <time>2018-05-12T05:10:19Z</time>
      </trkpt>
      <trkpt lat="45.18334" lon="5.9112">
        <ele>1352</ele>
        <time>2018-05-12T05:10:37Z</time>
      </trkpt>
      <trkpt lat="45.1834" lon="5.91123">
        <ele>1352.4</ele>
        <time>2018-05-12T05:10:45Z</time>
      </trkpt>
      <trkpt lat="45.18352" lon="5.91126">
        <ele>1352.5</ele>
        <time>2018-05-12T05:11:03Z</time>
      </trkpt>
      <trkpt lat="45.18367" lon="5.91136">
        <ele>1353</ele>
        <time>2018-05-12T05:11:13Z</time>
      </trkpt>
      <trkpt lat="45.18377" lon="5.91138">
        <ele>1352.9</ele>
        <time>2018-05-12T05:11:20Z</time>
      </trkpt>
      <trkpt lat="45.18382" lon="5.91141">
        <ele>1352.3</ele>
        <time>2018-05-12T05:11:25Z</time>
      </trkpt>
      <trkpt lat="45.18391" lon="5.91148">
        <ele>1353.2</ele>
        <time>2018-05-12T05:11:39Z</time>
      </trkpt>
      <trkpt lat="45.18396" lon="5.91155">
        <ele>1353.5</ele>
        <time>2018-05-12T05:11:48Z</time>
      </trkpt>
      <trkpt lat="45.18432" lon="5.91167">
        <ele>1356.5</ele>
        <time>2018-05-12T05:12:19Z</time>
      </trkpt>
      <trkpt lat="45.18456" lon="5.9117">
        <ele>1357.8</ele>
        <time>2018-05-12T05:12:42Z</time>
      </trkpt>
      <trkpt lat="45.18466" lon="5.91174">
        <ele>1358.6</ele>
        <time>2018-05-12T05:12:45Z</time>
      </trkpt>
      <trkpt lat="45.18489" lon="5.91169">
        <ele>1361.8</ele>
        <time>2018-05-12T05:13:00Z</time>
      </trkpt>
      <trkpt lat="45.18499" lon="5.9117">
        <ele>1362.5</ele>
        <time>2018-05-12T05:13:10Z</time>
      </trkpt>
      <trkpt lat="45.18521" lon="5.91177">
        <ele>1365</ele>
        <time>2018-05-12T05:13:41Z</time>
      </trkpt>
      <trkpt lat="45.18535" lon="5.91178">
        <ele>1365.9</ele>
        <time>2018-05-12T05:13:52Z</time>
      </trkpt>
      <trkpt lat="45.1854" lon="5.91182">
        <ele>1365.9</ele>
        <time>2018-05-12T05:14:02Z</time>
      </trkpt>
      <trkpt lat="45.18599" lon="5.91204">
        <ele>1369</ele>
        <time>2018-05-12T05:14:41Z</time>
      </trkpt>
      <trkpt lat="45.18616" lon="5.91218">
        <ele>1371.1</ele>
        <time>2018-05-12T05:14:55Z</time>
      </trkpt>
      <trkpt lat="45.18621" lon="5.91228">
        <ele>1371.7</ele>
        <time>2018-05-12T05:15:01Z</time>
      </trkpt>
      <trkpt lat="45.18626" lon="5.91233">
        <ele>1372</ele>
        <time>2018-05-12T05:15:06Z</time>
      </trkpt>
      <trkpt lat="45.1864" lon="5.91243">
        <ele>1374.7</ele>
        <time>2018-05-12T05:15:16Z</time>
      </trkpt>
      <trkpt lat="45.18646" lon="5.91254">
        <ele>1376.6</ele>
        <time>2018-05-12T05:15:25Z</time>
      </trkpt>
      <trkpt lat="45.18653" lon="5.91259">
        <ele>1377.3</ele>
        <time>2018-05-12T05:15:32Z</time>
      </trkpt>
      <trkpt lat="45.18659" lon="5.91274">
        <ele>1378.1</ele>
        <time>2018-05-12T05:15:39Z</time>
      </trkpt>
      <trkpt lat="45.18667" lon="5.91286">
        <ele>1378</ele>
        <time>2018-05-12T05:16:11Z</time>
      </trkpt>
      <trkpt lat="45.1867" lon="5.91293">
        <ele>1378</ele>
        <time>2018-05-12T05:16:16Z</time>
      </trkpt>
      <trkpt lat="45.18671" lon="5.91303">
        <ele>1378</ele>
        <time>2018-05-12T05:16:22Z</time>
      </trkpt>
      <trkpt lat="45.18669" lon="5.91306">
        <ele>1378.8</ele>
        <time>2018-05-12T05:16:26Z</time>
      </trkpt>
      <trkpt lat="45.18651" lon="5.91303">
        <ele>1383.2</ele>
        <time>2018-05-12T05:16:48Z</time>
      </trkpt>
      <trkpt lat="45.18633" lon="5.91306">
        <ele>1387.1</ele>
        <time>2018-05-12T05:17:03Z</time>
      </trkpt>
      <trkpt lat="45.18623" lon="5.91304">
        <ele>1388.9</ele>
        <time>2018-05-12T05:17:12Z</time>
      </trkpt>
      <trkpt lat="45.18602" lon="5.91303">
        <ele>1390.4</ele>
        <time>2018-05-12T05:17:26Z</time>
      </trkpt>
      <trkpt lat="45.18593" lon="5.91306">
        <ele>1391.3</ele>
        <time>2018-05-12T05:17:32Z</time>
      </trkpt>
      <trkpt lat="45.18578" lon="5.91319">
        <ele>1392.8</ele>
        <time>2018-05-12T05:17:49Z</time>
      </trkpt>
      <trkpt lat="45.18571" lon="5.9133">
        <ele>1393.5</ele>
        <time>2018-05-12T05:18:00Z</time>
      </trkpt>
      <trkpt lat="45.1855" lon="5.9135">
        <ele>1396.2</ele>
        <time>2018-05-12T05:18:31Z</time>
      </trkpt>
      <trkpt lat="45.18544" lon="5.91351">
        <ele>1397.2</ele>
        <time>2018-05-12T05:18:40Z</time>
      </trkpt>
      <trkpt lat="45.18541" lon="5.91356">
        <ele>1397.8</ele>
        <time>2018-05-12T05:18:43Z</time>
      </trkpt>
      <trkpt lat="45.18528" lon="5.91364">
        <ele>1401.3</ele>
        <time>2018-05-12T05:19:02Z</time>
      </trkpt>
      <trkpt lat="45.18517" lon="5.91379">
        <ele>1404.9</ele>
        <time>2018-05-12T05:19:21Z</time>
      </trkpt>
      <trkpt lat="45.18507" lon="5.91383">
        <ele>1407.7</ele>
        <time>2018-05-12T05:19:39Z</time>
      </trkpt>
      <trkpt lat="45.18496" lon="5.91386">
        <ele>1411.9</ele>
        <time>2018-05-12T05:19:52Z</time>
      </trkpt>
      <trkpt lat="45.18486" lon="5.91384">
        <ele>1416.4</ele>
        <time>2018-05-12T05:20:01Z</time>
      </trkpt>
      <trkpt lat="45.18477" lon="5.91378">
        <ele>1419</ele>
        <time>2018-05-12T05:20:15Z</time>
      </trkpt>
      <trkpt lat="45.18462" lon="5.91375">
        <ele>1423.6</ele>
        <time>2018-05-12T05:20:27Z</time>
      </trkpt>
      <trkpt lat="45.18458" lon="5.9137">
        <ele>1425.3</ele>
        <time>2018-05-12T05:20:33Z</time>
      </trkpt>
      <trkpt lat="45.18452" lon="5.91368">
        <ele>1427.1</ele>
        <time>2018-05-12T05:20:43Z</time>
      </trkpt>
      <trkpt lat="45.18444" lon="5.91374">
        <ele>1429.5</ele>
        <time>2018-05-12T05:20:56Z</time>
      </trkpt>
      <trkpt lat="45.18434" lon="5.91374">
        <ele>1431.9</ele>
        <time>2018-05-12T05:21:09Z</time>
      </trkpt>
      <trkpt lat="45.18429" lon="5.9138">
        <ele>1433.5</ele>
        <time>2018-05-12T05:21:16Z</time>
      </trkpt>
      <trkpt lat="45.18426" lon="5.91381">
        <ele>1434.2</ele>
        <time>2018-05-12T05:21:21Z</time>
      </trkpt>
      <trkpt lat="45.18411" lon="5.9138">
        <ele>1437.6</ele>
        <time>2018-05-12T05:21:40Z</time>
      </trkpt>
      <trkpt lat="45.18407" lon="5.91378">
        <ele>1438.4</ele>
        <time>2018-05-12T05:21:44Z</time>
      </trkpt>
      <trkpt lat="45.18401" lon="5.9138">
        <ele>1439.5</ele>
        <time>2018-05-12T05:21:50Z</time>
      </trkpt>
      <trkpt lat="45.18394" lon="5.91379">
        <ele>1440.8</ele>
        <time>2018-05-12T05:21:56Z</time>
      </trkpt>
      <trkpt lat="45.18386" lon="5.91386">
        <ele>1443.4</ele>
        <time>2018-05-12T05:22:09Z</time>
      </trkpt>
      <trkpt lat="45.1838" lon="5.91388">
        <ele>1444.9</ele>
        <time>2018-05-12T05:22:18Z</time>
      </trkpt>
      <trkpt lat="45.18371" lon="5.91394">
        <ele>1447.1</ele>
        <time>2018-05-12T05:22:31Z</time>
      </trkpt>
      <trkpt lat="45.18354" lon="5.91396">
        <ele>1451.1</ele>
        <time>2018-05-12T05:22:48Z</time>
      </trkpt>
      <trkpt lat="45.18339" lon="5.914">
        <ele>1455.3</ele>
        <time>2018-05-12T05:23:13Z</time>
      </trkpt>
      <trkpt lat="45.18327" lon="5.91406">
        <ele>1457.2</ele>
        <time>2018-05-12T05:23:23Z</time>
      </trkpt>
      <trkpt lat="45.18315" lon="5.91407">
        <ele>1460.4</ele>
        <time>2018-05-12T05:23:48Z</time>
      </trkpt>
      <trkpt lat="45.18306" lon="5.91412">
        <ele>1463</ele>
        <time>2018-05-12T05:23:55Z</time>
      </trkpt>
      <trkpt lat="45.18295" lon="5.91411">
        <ele>1464.6</ele>
        <time>2018-05-12T05:24:03Z</time>
      </trkpt>
      <trkpt lat="45.1829" lon="5.91415">
        <ele>1466.2</ele>
        <time>2018-05-12T05:24:14Z</time>
      </trkpt>
      <trkpt lat="45.18287" lon="5.91414">
        <ele>1467.1</ele>
        <time>2018-05-12T05:24:21Z</time>
      </trkpt>
      <trkpt lat="45.1828" lon="5.91418">
        <ele>1468.4</ele>
        <time>2018-05-12T05:24:29Z</time>
      </trkpt>
      <trkpt lat="45.18266" lon="5.91416">
        <ele>1470.8</ele>
        <time>2018-05-12T05:24:42Z</time>
      </trkpt>
      <trkpt lat="45.18251" lon="5.91429">
        <ele>1474.7</ele>
        <time>2018-05-12T05:24:58Z</time>
      </trkpt>
      <trkpt lat="45.18248" lon="5.91427">
        <ele>1475.5</ele>
        <time>2018-05-12T05:25:01Z</time>
      </trkpt>
      <trkpt lat="45.18222" lon="5.91429">
        <ele>1480.6</ele>
        <time>2018-05-12T05:25:37Z</time>
      </trkpt>
      <trkpt lat="45.18206" lon="5.91441">
        <ele>1484</ele>
        <time>2018-05-12T05:25:59Z</time>
      </trkpt>
      <trkpt lat="45.18201" lon="5.91443">
        <ele>1485.8</ele>
        <time>2018-05-12T05:26:05Z</time>
      </trkpt>
      <trkpt lat="45.18191" lon="5.91454">
        <ele>1489.1</ele>
        <time>2018-05-12T05:26:15Z</time>
      </trkpt>
      <trkpt lat="45.1818" lon="5.91462">
        <ele>1490.7</ele>
        <time>2018-05-12T05:26:31Z</time>
      </trkpt>
      <trkpt lat="45.18171" lon="5.91461">
        <ele>1491.1</ele>
        <time>2018-05-12T05:26:46Z</time>
      </trkpt>
      <trkpt lat="45.18164" lon="5.91463">
        <ele>1492.9</ele>
        <time>2018-05-12T05:26:50Z</time>
      </trkpt>
      <trkpt lat="45.18141" lon="5.91466">
        <ele>1495.8</ele>
        <time>2018-05-12T05:27:24Z</time>
      </trkpt>
      <trkpt lat="45.18123" lon="5.91479">
        <ele>1498.5</ele>
        <time>2018-05-12T05:27:38Z</time>
      </trkpt>
      <trkpt lat="45.18118" lon="5.9149">
        <ele>1501.3</ele>
        <time>2018-05-12T05:27:47Z</time>
      </trkpt>
      <trkpt lat="45.18117" lon="5.91499">
        <ele>1502.6</ele>
        <time>2018-05-12T05:27:52Z</time>
      </trkpt>
      <trkpt lat="45.18118" lon="5.91512">
        <ele>1504</ele>
        <time>2018-05-12T05:28:03Z</time>
      </trkpt>
      <trkpt lat="45.1813" lon="5.91533">
        <ele>1508.9</ele>
        <time>2018-05-12T05:28:18Z</time>
      </trkpt>
      <trkpt lat="45.18131" lon="5.91538">
        <ele>1509.9</ele>
        <time>2018-05-12T05:28:21Z</time>
      </trkpt>
      <trkpt lat="45.18118" lon="5.91568">
        <ele>1513.1</ele>
        <time>2018-05-12T05:28:50Z</time>
      </trkpt>
      <trkpt lat="45.18114" lon="5.91571">
        <ele>1513.6</ele>
        <time>2018-05-12T05:28:53Z</time>
      </trkpt>
      <trkpt lat="45.18099" lon="5.91579">
        <ele>1514.9</ele>
        <time>2018-05-12T05:29:06Z</time>
      </trkpt>
      <trkpt lat="45.18093" lon="5.91579">
        <ele>1515.1</ele>
        <time>2018-05-12T05:29:12Z</time>
      </trkpt>
      <trkpt lat="45.18086" lon="5.91577">
        <ele>1515.5</ele>
        <time>2018-05-12T05:29:18Z</time>
      </trkpt>
      <trkpt lat="45.18066" lon="5.91583">
        <ele>1516.6</ele>
        <time>2018-05-12T05:29:32Z</time>
      </trkpt>
      <trkpt lat="45.18056" lon="5.9159">
        <ele>1517.7</ele>
        <time>2018-05-12T05:29:49Z</time>
      </trkpt>
      <trkpt lat="45.18049" lon="5.91588">
        <ele>1518.5</ele>
        <time>2018-05-12T05:29:54Z</time>
      </trkpt>
      <trkpt lat="45.18039" lon="5.9159">
        <ele>1519.3</ele>
        <time>2018-05-12T05:30:01Z</time>
      </trkpt>
      <trkpt lat="45.18033" lon="5.91587">
        <ele>1519.9</ele>
        <time>2018-05-12T05:30:06Z</time>
      </trkpt>
      <trkpt lat="45.18017" lon="5.91587">
        <ele>1521.1</ele>
        <time>2018-05-12T05:30:18Z</time>
      </trkpt>
      <trkpt lat="45.18008" lon="5.91583">
        <ele>1522.1</ele>
        <time>2018-05-12T05:30:44Z</time>
      </trkpt>
      <trkpt lat="45.17993" lon="5.91588">
        <ele>1524.5</ele>
        <time>2018-05-12T05:30:55Z</time>
      </trkpt>
      <trkpt lat="45.17977" lon="5.91589">
        <ele>1526.8</ele>
        <time>2018-05-12T05:31:10Z</time>
      </trkpt>
      <trkpt lat="45.17968" lon="5.91594">
        <ele>1528.7</ele>
        <time>2018-05-12T05:31:24Z</time>
      </trkpt>
      <trkpt lat="45.17948" lon="5.91593">
        <ele>1533.3</ele>
        <time>2018-05-12T05:31:52Z</time>
      </trkpt>
      <trkpt lat="45.17946" lon="5.91597">
        <ele>1533.9</ele>
        <time>2018-05-12T05:31:57Z</time>
      </trkpt>
      <trkpt lat="45.17938" lon="5.91599">
        <ele>1535.6</ele>
        <time>2018-05-12T05:32:06Z</time>
      </trkpt>
      <trkpt lat="45.17927" lon="5.91608">
        <ele>1539.4</ele>
        <time>2018-05-12T05:32:21Z</time>
      </trkpt>
      <trkpt lat="45.17923" lon="5.91606">
        <ele>1540.3</ele>
        <time>2018-05-12T05:32:25Z</time>
      </trkpt>
      <trkpt lat="45.17913" lon="5.91609">
        <ele>1542.6</ele>
        <time>2018-05-12T05:32:39Z</time>
      </trkpt>
      <trkpt lat="45.17904" lon="5.91608">
        <ele>1544.9</ele>
        <time>2018-05-12T05:32:50Z</time>
      </trkpt>
      <trkpt lat="45.17891" lon="5.91613">
        <ele>1548.8</ele>
        <time>2018-05-12T05:33:14Z</time>
      </trkpt>
      <trkpt lat="45.17882" lon="5.91622">
        <ele>1551.3</ele>
        <time>2018-05-12T05:33:25Z</time>
      </trkpt>
      <trkpt lat="45.17874" lon="5.91621">
        <ele>1553.5</ele>
        <time>2018-05-12T05:33:37Z</time>
      </trkpt>
      <trkpt lat="45.17865" lon="5.91635">
        <ele>1556.7</ele>
        <time>2018-05-12T05:33:54Z</time>
      </trkpt>
      <trkpt lat="45.17861" lon="5.9164">
        <ele>1557.7</ele>
        <time>2018-05-12T05:34:01Z</time>
      </trkpt>
      <trkpt lat="45.17849" lon="5.91646">
        <ele>1559.8</ele>
        <time>2018-05-12T05:34:15Z</time>
      </trkpt>
      <trkpt lat="45.17848" lon="5.9165">
        <ele>1560.2</ele>
        <time>2018-05-12T05:34:19Z</time>
      </trkpt>
      <trkpt lat="45.17826" lon="5.91656">
        <ele>1564.8</ele>
        <time>2018-05-12T05:34:54Z</time>
      </trkpt>
      <trkpt lat="45.17816" lon="5.91666">
        <ele>1566.7</ele>
        <time>2018-05-12T05:35:08Z</time>
      </trkpt>
      <trkpt lat="45.17809" lon="5.91664">
        <ele>1568.1</ele>
        <time>2018-05-12T05:35:14Z</time>
      </trkpt>
      <trkpt lat="45.178" lon="5.91668">
        <ele>1570.1</ele>
        <time>2018-05-12T05:35:29Z</time>
      </trkpt>
      <trkpt lat="45.17805" lon="5.91673">
        <ele>1570.9</ele>
        <time>2018-05-12T05:35:51Z</time>
      </trkpt>
      <trkpt lat="45.1781" lon="5.91683">
        <ele>1572.1</ele>
        <time>2018-05-12T05:35:59Z</time>
      </trkpt>
      <trkpt lat="45.17819" lon="5.91687">
        <ele>1573.2</ele>
        <time>2018-05-12T05:36:10Z</time>
      </trkpt>
      <trkpt lat="45.17823" lon="5.91693">
        <ele>1573.3</ele>
        <time>2018-05-12T05:36:19Z</time>
      </trkpt>
      <trkpt lat="45.17828" lon="5.91695">
        <ele>1573.5</ele>
        <time>2018-05-12T05:36:27Z</time>
      </trkpt>
      <trkpt lat="45.1783" lon="5.91702">
        <ele>1573.7</ele>
        <time>2018-05-12T05:37:00Z</time>
      </trkpt>
      <trkpt lat="45.17828" lon="5.91705">
        <ele>1574.5</ele>
        <time>2018-05-12T05:37:09Z</time>
      </trkpt>
      <trkpt lat="45.17809" lon="5.91715">
        <ele>1580</ele>
        <time>2018-05-12T05:37:35Z</time>
      </trkpt>
      <trkpt lat="45.17799" lon="5.91725">
        <ele>1584.9</ele>
        <time>2018-05-12T05:37:49Z</time>
      </trkpt>
      <trkpt lat="45.17782" lon="5.91728">
        <ele>1590.8</ele>
        <time>2018-05-12T05:38:15Z</time>
      </trkpt>
      <trkpt lat="45.17776" lon="5.91732">
        <ele>1594</ele>
        <time>2018-05-12T05:38:28Z</time>
      </trkpt>
      <trkpt lat="45.17773" lon="5.91731">
        <ele>1595.7</ele>
        <time>2018-05-12T05:38:31Z</time>
      </trkpt>
      <trkpt lat="45.17765" lon="5.91733">
        <ele>1598.9</ele>
        <time>2018-05-12T05:38:38Z</time>
      </trkpt>
      <trkpt lat="45.17757" lon="5.91741">
        <ele>1601.9</ele>
        <time>2018-05-12T05:38:44Z</time>
      </trkpt>
      <trkpt lat="45.17753" lon="5.9174">
        <ele>1602.5</ele>
        <time>2018-05-12T05:38:50Z</time>
      </trkpt>
      <trkpt lat="45.1775" lon="5.91742">
        <ele>1604</ele>
        <time>2018-05-12T05:38:54Z</time>
      </trkpt>
      <trkpt lat="45.17749" lon="5.91745">
        <ele>1605.3</ele>
        <time>2018-05-12T05:38:58Z</time>
      </trkpt>
      <trkpt lat="45.17761" lon="5.91755">
        <ele>1612</ele>
        <time>2018-05-12T05:39:19Z</time>
      </trkpt>
      <trkpt lat="45.17764" lon="5.91756">
        <ele>1611.1</ele>
        <time>2018-05-12T05:39:23Z</time>
      </trkpt>
      <trkpt lat="45.1778" lon="5.9177">
        <ele>1611.2</ele>
        <time>2018-05-12T05:39:52Z</time>
      </trkpt>
      <trkpt lat="45.17785" lon="5.91776">
        <ele>1611.1</ele>
        <time>2018-05-12T05:40:03Z</time>
      </trkpt>
      <trkpt lat="45.17799" lon="5.91784">
        <ele>1612.3</ele>
        <time>2018-05-12T05:40:11Z</time>
      </trkpt>
      <trkpt lat="45.17809" lon="5.91794">
        <ele>1611.1</ele>
        <time>2018-05-12T05:40:20Z</time>
      </trkpt>
      <trkpt lat="45.17812" lon="5.91797">
        <ele>1612</ele>
        <time>2018-05-12T05:40:22Z</time>
      </trkpt>
      <trkpt lat="45.17807" lon="5.918">
        <ele>1615</ele>
        <time>2018-05-12T05:40:32Z</time>
      </trkpt>
      <trkpt lat="45.17797" lon="5.91798">
        <ele>1618.8</ele>
        <time>2018-05-12T05:40:40Z</time>
      </trkpt>
      <trkpt lat="45.17788" lon="5.91801">
        <ele>1622.2</ele>
        <time>2018-05-12T05:40:53Z</time>
      </trkpt>
      <trkpt lat="45.17776" lon="5.91801">
        <ele>1628.2</ele>
        <time>2018-05-12T05:41:14Z</time>
      </trkpt>
      <trkpt lat="45.17772" lon="5.91805">
        <ele>1630.2</ele>
        <time>2018-05-12T05:41:25Z</time>
      </trkpt>
      <trkpt lat="45.17777" lon="5.91816">
        <ele>1631</ele>
        <time>2018-05-12T05:41:40Z</time>
      </trkpt>
      <trkpt lat="45.17782" lon="5.91826">
        <ele>1629.7</ele>
        <time>2018-05-12T05:41:50Z</time>
      </trkpt>
      <trkpt lat="45.17788" lon="5.91831">
        <ele>1628.6</ele>
        <time>2018-05-12T05:41:55Z</time>
      </trkpt>
      <trkpt lat="45.17789" lon="5.91835">
        <ele>1629.7</ele>
        <time>2018-05-12T05:42:02Z</time>
      </trkpt>
      <trkpt lat="45.17782" lon="5.91831">
        <ele>1633.7</ele>
        <time>2018-05-12T05:42:11Z</time>
      </trkpt>
      <trkpt lat="45.17776" lon="5.91826">
        <ele>1636.2</ele>
        <time>2018-05-12T05:42:22Z</time>
      </trkpt>
      <trkpt lat="45.17765" lon="5.91825">
        <ele>1639</ele>
        <time>2018-05-12T05:42:37Z</time>
      </trkpt>
      <trkpt lat="45.17759" lon="5.91829">
        <ele>1642.6</ele>
        <time>2018-05-12T05:42:44Z</time>
      </trkpt>
      <trkpt lat="45.17762" lon="5.91837">
        <ele>1644.1</ele>
        <time>2018-05-12T05:42:59Z</time>
      </trkpt>
      <trkpt lat="45.17766" lon="5.91841">
        <ele>1644</ele>
        <time>2018-05-12T05:43:08Z</time>
      </trkpt>
      <trkpt lat="45.17767" lon="5.91845">
        <ele>1643.4</ele>
        <time>2018-05-12T05:43:12Z</time>
      </trkpt>
      <trkpt lat="45.17766" lon="5.91849">
        <ele>1642.9</ele>
        <time>2018-05-12T05:43:17Z</time>
      </trkpt>
      <trkpt lat="45.17757" lon="5.91847">
        <ele>1646.2</ele>
        <time>2018-05-12T05:43:28Z</time>
      </trkpt>
      <trkpt lat="45.17751" lon="5.91848">
        <ele>1648.5</ele>
        <time>2018-05-12T05:43:36Z</time>
      </trkpt>
      <trkpt lat="45.17738" lon="5.91847">
        <ele>1654.6</ele>
        <time>2018-05-12T05:43:49Z</time>
      </trkpt>
      <trkpt lat="45.17719" lon="5.91859">
        <ele>1662.9</ele>
        <time>2018-05-12T05:44:15Z</time>
      </trkpt>
      <trkpt lat="45.17725" lon="5.91869">
        <ele>1663.8</ele>
        <time>2018-05-12T05:44:35Z</time>
      </trkpt>
      <trkpt lat="45.17728" lon="5.91878">
        <ele>1662.4</ele>
        <time>2018-05-12T05:44:41Z</time>
      </trkpt>
      <trkpt lat="45.1773" lon="5.9189">
        <ele>1666.2</ele>
        <time>2018-05-12T05:44:48Z</time>
      </trkpt>
      <trkpt lat="45.17728" lon="5.91895">
        <ele>1667.7</ele>
        <time>2018-05-12T05:44:54Z</time>
      </trkpt>
      <trkpt lat="45.17713" lon="5.91901">
        <ele>1673.4</ele>
        <time>2018-05-12T05:45:14Z</time>
      </trkpt>
      <trkpt lat="45.17704" lon="5.91901">
        <ele>1675</ele>
        <time>2018-05-12T05:45:23Z</time>
      </trkpt>
      <trkpt lat="45.17698" lon="5.91899">
        <ele>1674.7</ele>
        <time>2018-05-12T05:45:30Z</time>
      </trkpt>
      <trkpt lat="45.17698" lon="5.91903">
        <ele>1673.9</ele>
        <time>2018-05-12T05:45:37Z</time>
      </trkpt>
      <trkpt lat="45.17702" lon="5.91909">
        <ele>1673</ele>
        <time>2018-05-12T05:45:45Z</time>
      </trkpt>
      <trkpt lat="45.17702" lon="5.91923">
        <ele>1673.5</ele>
        <time>2018-05-12T05:45:56Z</time>
      </trkpt>
      <trkpt lat="45.17704" lon="5.91936">
        <ele>1672.9</ele>
        <time>2018-05-12T05:46:05Z</time>
      </trkpt>
      <trkpt lat="45.17701" lon="5.91949">
        <ele>1672.2</ele>
        <time>2018-05-12T05:46:13Z</time>
      </trkpt>
      <trkpt lat="45.17703" lon="5.91964">
        <ele>1670.8</ele>
        <time>2018-05-12T05:46:23Z</time>
      </trkpt>
      <trkpt lat="45.17705" lon="5.91976">
        <ele>1673.3</ele>
        <time>2018-05-12T05:46:36Z</time>
      </trkpt>
      <trkpt lat="45.17702" lon="5.91984">
        <ele>1674.8</ele>
        <time>2018-05-12T05:46:40Z</time>
      </trkpt>
      <trkpt lat="45.17697" lon="5.91982">
        <ele>1675.9</ele>
        <time>2018-05-12T05:46:47Z</time>
      </trkpt>
      <trkpt lat="45.17691" lon="5.91983">
        <ele>1676.8</ele>
        <time>2018-05-12T05:46:51Z</time>
      </trkpt>
      <trkpt lat="45.17685" lon="5.91986">
        <ele>1678.1</ele>
        <time>2018-05-12T05:46:59Z</time>
      </trkpt>
      <trkpt lat="45.17683" lon="5.91989">
        <ele>1678.2</ele>
        <time>2018-05-12T05:47:03Z</time>
      </trkpt>
      <trkpt lat="45.17673" lon="5.9201">
        <ele>1677.7</ele>
        <time>2018-05-12T05:47:13Z</time>
      </trkpt>
      <trkpt lat="45.1767" lon="5.92025">
        <ele>1675.8</ele>
        <time>2018-05-12T05:47:20Z</time>
      </trkpt>
      <trkpt lat="45.1767" lon="5.92039">
        <ele>1676.5</ele>
        <time>2018-05-12T05:47:27Z</time>
      </trkpt>
      <trkpt lat="45.17666" lon="5.92057">
        <ele>1684.6</ele>
        <time>2018-05-12T05:47:37Z</time>
      </trkpt>
      <trkpt lat="45.17653" lon="5.9206">
        <ele>1691.9</ele>
        <time>2018-05-12T05:47:54Z</time>
      </trkpt>
      <trkpt lat="45.1765" lon="5.92058">
        <ele>1694.7</ele>
        <time>2018-05-12T05:47:55Z</time>
      </trkpt>
      <trkpt lat="45.17638" lon="5.92063">
        <ele>1701.7</ele>
        <time>2018-05-12T05:48:03Z</time>
      </trkpt>
      <trkpt lat="45.17618" lon="5.92082">
        <ele>1705.5</ele>
        <time>2018-05-12T05:48:27Z</time>
      </trkpt>
      <trkpt lat="45.17608" lon="5.92105">
        <ele>1706.8</ele>
        <time>2018-05-12T05:48:44Z</time>
      </trkpt>
      <trkpt lat="45.17605" lon="5.92123">
        <ele>1706.9</ele>
        <time>2018-05-12T05:48:53Z</time>
      </trkpt>
      <trkpt lat="45.17591" lon="5.92143">
        <ele>1708.6</ele>
        <time>2018-05-12T05:49:05Z</time>
      </trkpt>
      <trkpt lat="45.17582" lon="5.92159">
        <ele>1710.6</ele>
        <time>2018-05-12T05:49:18Z</time>
      </trkpt>
      <trkpt lat="45.17579" lon="5.92173">
        <ele>1712.4</ele>
        <time>2018-05-12T05:49:23Z</time>
      </trkpt>
      <trkpt lat="45.17571" lon="5.92185">
        <ele>1713.7</ele>
        <time>2018-05-12T05:49:30Z</time>
      </trkpt>
      <trkpt lat="45.17566" lon="5.92196">
        <ele>1715.9</ele>
        <time>2018-05-12T05:49:41Z</time>
      </trkpt>
      <trkpt lat="45.17559" lon="5.92205">
        <ele>1717.9</ele>
        <time>2018-05-12T05:49:48Z</time>
      </trkpt>
      <trkpt lat="45.17542" lon="5.92232">
        <ele>1716.4</ele>
        <time>2018-05-12T05:50:06Z</time>
      </trkpt>
      <trkpt lat="45.1754" lon="5.92241">
        <ele>1718</ele>
        <time>2018-05-12T05:50:11Z</time>
      </trkpt>
      <trkpt lat="45.17535" lon="5.92255">
        <ele>1715.7</ele>
        <time>2018-05-12T05:50:19Z</time>
      </trkpt>
      <trkpt lat="45.17533" lon="5.92268">
        <ele>1716.2</ele>
        <time>2018-05-12T05:50:27Z</time>
      </trkpt>
      <trkpt lat="45.17531" lon="5.92271">
        <ele>1716.4</ele>
        <time>2018-05-12T05:50:33Z</time>
      </trkpt>
      <trkpt lat="45.17533" lon="5.92279">
        <ele>1715.7</ele>
        <time>2018-05-12T05:50:39Z</time>
      </trkpt>
      <trkpt lat="45.17524" lon="5.92292">
        <ele>1708.9</ele>
        <time>2018-05-12T05:50:54Z</time>
      </trkpt>
      <trkpt lat="45.17522" lon="5.92301">
        <ele>1704.9</ele>
        <time>2018-05-12T05:51:02Z</time>
      </trkpt>
      <trkpt lat="45.1753" lon="5.92319">
        <ele>1698.7</ele>
        <time>2018-05-12T05:51:13Z</time>
      </trkpt>
      <trkpt lat="45.17536" lon="5.92328">
        <ele>1696.1</ele>
        <time>2018-05-12T05:51:18Z</time>
      </trkpt>
      <trkpt lat="45.17538" lon="5.92336">
        <ele>1694.9</ele>
        <time>2018-05-12T05:51:21Z</time>
      </trkpt>
      <trkpt lat="45.17541" lon="5.92341">
        <ele>1695.2</ele>
        <time>2018-05-12T05:51:23Z</time>
      </trkpt>
      <trkpt lat="45.17544" lon="5.92354">
        <ele>1697.9</ele>
        <time>2018-05-12T05:51:31Z</time>
      </trkpt>
      <trkpt lat="45.17545" lon="5.92363">
        <ele>1700.4</ele>
        <time>2018-05-12T05:51:37Z</time>
      </trkpt>
      <trkpt lat="45.17545" lon="5.92368">
        <ele>1701.8</ele>
        <time>2018-05-12T05:51:43Z</time>
      </trkpt>
      <trkpt lat="45.17543" lon="5.92371">
        <ele>1703.4</ele>
        <time>2018-05-12T05:51:48Z</time>
      </trkpt>
      <trkpt lat="45.17537" lon="5.92375">
        <ele>1707.1</ele>
        <time>2018-05-12T05:51:54Z</time>
      </trkpt>
      <trkpt lat="45.1753" lon="5.92373">
        <ele>1710.2</ele>
        <time>2018-05-12T05:52:05Z</time>
      </trkpt>
      <trkpt lat="45.1752" lon="5.92373">
        <ele>1715.9</ele>
        <time>2018-05-12T05:52:12Z</time>
      </trkpt>
      <trkpt lat="45.17512" lon="5.92379">
        <ele>1721.8</ele>
        <time>2018-05-12T05:52:16Z</time>
      </trkpt>
      <trkpt lat="45.17509" lon="5.92378">
        <ele>1722.7</ele>
        <time>2018-05-12T05:52:20Z</time>
      </trkpt>
      <trkpt lat="45.17496" lon="5.92385">
        <ele>1723.1</ele>
        <time>2018-05-12T05:52:32Z</time>
      </trkpt>
      <trkpt lat="45.17494" lon="5.92388">
        <ele>1723.6</ele>
        <time>2018-05-12T05:52:34Z</time>
      </trkpt>
      <trkpt lat="45.17491" lon="5.92404">
        <ele>1722.7</ele>
        <time>2018-05-12T05:52:42Z</time>
      </trkpt>
      <trkpt lat="45.17487" lon="5.92409">
        <ele>1723.3</ele>
        <time>2018-05-12T05:52:53Z</time>
      </trkpt>
      <trkpt lat="45.17483" lon="5.92425">
        <ele>1723.9</ele>
        <time>2018-05-12T05:52:57Z</time>
      </trkpt>
      <trkpt lat="45.17477" lon="5.92433">
        <ele>1724.2</ele>
        <time>2018-05-12T05:53:01Z</time>
      </trkpt>
      <trkpt lat="45.17468" lon="5.92443">
        <ele>1720</ele>
        <time>2018-05-12T05:53:18Z</time>
      </trkpt>
      <trkpt lat="45.17473" lon="5.92446">
        <ele>1718.9</ele>
        <time>2018-05-12T05:53:33Z</time>
      </trkpt>
      <trkpt lat="45.17471" lon="5.92447">
        <ele>1717.9</ele>
        <time>2018-05-12T05:53:43Z</time>
      </trkpt>
      <trkpt lat="45.17469" lon="5.92455">
        <ele>1715.1</ele>
        <time>2018-05-12T05:53:51Z</time>
      </trkpt>
      <trkpt lat="45.17467" lon="5.92477">
        <ele>1708</ele>
        <time>2018-05-12T05:54:01Z</time>
      </trkpt>
      <trkpt lat="45.17467" lon="5.92487">
        <ele>1705.4</ele>
        <time>2018-05-12T05:54:08Z</time>
      </trkpt>
      <trkpt lat="45.17469" lon="5.92497">
        <ele>1701.7</ele>
        <time>2018-05-12T05:54:13Z</time>
      </trkpt>
      <trkpt lat="45.17476" lon="5.92507">
        <ele>1699.4</ele>
        <time>2018-05-12T05:54:23Z</time>
      </trkpt>
      <trkpt lat="45.17481" lon="5.92511">
        <ele>1698</ele>
        <time>2018-05-12T05:54:30Z</time>
      </trkpt>
      <trkpt lat="45.17482" lon="5.92515">
        <ele>1699.5</ele>
        <time>2018-05-12T05:54:34Z</time>
      </trkpt>
      <trkpt lat="45.17493" lon="5.92525">
        <ele>1706.2</ele>
        <time>2018-05-12T05:54:50Z</time>
      </trkpt>
      <trkpt lat="45.17496" lon="5.92538">
        <ele>1710.5</ele>
        <time>2018-05-12T05:55:07Z</time>
      </trkpt>
      <trkpt lat="45.17494" lon="5.9254">
        <ele>1711.9</ele>
        <time>2018-05-12T05:55:17Z</time>
      </trkpt>
      <trkpt lat="45.1749" lon="5.92535">
        <ele>1715.2</ele>
        <time>2018-05-12T05:55:26Z</time>
      </trkpt>
      <trkpt lat="45.17483" lon="5.92535">
        <ele>1718.8</ele>
        <time>2018-05-12T05:55:36Z</time>
      </trkpt>
      <trkpt lat="45.17476" lon="5.92531">
        <ele>1721.8</ele>
        <time>2018-05-12T05:55:40Z</time>
      </trkpt>
      <trkpt lat="45.17466" lon="5.92532">
        <ele>1726.1</ele>
        <time>2018-05-12T05:55:52Z</time>
      </trkpt>
      <trkpt lat="45.17463" lon="5.92531">
        <ele>1727.6</ele>
        <time>2018-05-12T05:55:56Z</time>
      </trkpt>
      <trkpt lat="45.17458" lon="5.92536">
        <ele>1729.5</ele>
        <time>2018-05-12T05:56:03Z</time>
      </trkpt>
      <trkpt lat="45.17455" lon="5.92534">
        <ele>1730.6</ele>
        <time>2018-05-12T05:56:07Z</time>
      </trkpt>
      <trkpt lat="45.17452" lon="5.92537">
        <ele>1731.9</ele>
        <time>2018-05-12T05:56:11Z</time>
      </trkpt>
      <trkpt lat="45.17447" lon="5.92542">
        <ele>1734.6</ele>
        <time>2018-05-12T05:56:17Z</time>
      </trkpt>
      <trkpt lat="45.1744" lon="5.92544">
        <ele>1737.8</ele>
        <time>2018-05-12T05:56:24Z</time>
      </trkpt>
      <trkpt lat="45.17433" lon="5.92553">
        <ele>1741.6</ele>
        <time>2018-05-12T05:56:37Z</time>
      </trkpt>
      <trkpt lat="45.17425" lon="5.92559">
        <ele>1745.1</ele>
        <time>2018-05-12T05:56:48Z</time>
      </trkpt>
      <trkpt lat="45.1742" lon="5.92561">
        <ele>1747.2</ele>
        <time>2018-05-12T05:56:54Z</time>
      </trkpt>
      <trkpt lat="45.17402" lon="5.92572">
        <ele>1753.1</ele>
        <time>2018-05-12T05:57:20Z</time>
      </trkpt>
      <trkpt lat="45.17396" lon="5.92571">
        <ele>1754.7</ele>
        <time>2018-05-12T05:57:31Z</time>
      </trkpt>
      <trkpt lat="45.17376" lon="5.92593">
        <ele>1760.5</ele>
        <time>2018-05-12T05:58:08Z</time>
      </trkpt>
      <trkpt lat="45.17374" lon="5.92601">
        <ele>1761.4</ele>
        <time>2018-05-12T05:58:20Z</time>
      </trkpt>
      <trkpt lat="45.17371" lon="5.92603">
        <ele>1762</ele>
        <time>2018-05-12T05:58:24Z</time>
      </trkpt>
      <trkpt lat="45.17367" lon="5.92616">
        <ele>1764.1</ele>
        <time>2018-05-12T05:58:37Z</time>
      </trkpt>
      <trkpt lat="45.17357" lon="5.92625">
        <ele>1766.6</ele>
        <time>2018-05-12T05:58:52Z</time>
      </trkpt>
      <trkpt lat="45.17354" lon="5.92626">
        <ele>1767.3</ele>
        <time>2018-05-12T05:58:55Z</time>
      </trkpt>
      <trkpt lat="45.1735" lon="5.92633">
        <ele>1769.1</ele>
        <time>2018-05-12T05:59:05Z</time>
      </trkpt>
      <trkpt lat="45.17348" lon="5.92634">
        <ele>1769.7</ele>
        <time>2018-05-12T05:59:09Z</time>
      </trkpt>
      <trkpt lat="45.17348" lon="5.92639">
        <ele>1770.4</ele>
        <time>2018-05-12T05:59:15Z</time>
      </trkpt>
      <trkpt lat="45.17343" lon="5.92646">
        <ele>1771.1</ele>
        <time>2018-05-12T05:59:22Z</time>
      </trkpt>
      <trkpt lat="45.17338" lon="5.92651">
        <ele>1770.1</ele>
        <time>2018-05-12T05:59:31Z</time>
      </trkpt>
      <trkpt lat="45.17331" lon="5.92653">
        <ele>1768.6</ele>
        <time>2018-05-12T05:59:38Z</time>
      </trkpt>
      <trkpt lat="45.17328" lon="5.9266">
        <ele>1767.6</ele>
        <time>2018-05-12T05:59:48Z</time>
      </trkpt>
      <trkpt lat="45.17323" lon="5.92665">
        <ele>1766.5</ele>
        <time>2018-05-12T05:59:58Z</time>
      </trkpt>
      <trkpt lat="45.17317" lon="5.92667">
        <ele>1765.3</ele>
        <time>2018-05-12T06:00:05Z</time>
      </trkpt>
      <trkpt lat="45.17329" lon="5.92671">
        <ele>1763.4</ele>
        <time>2018-05-12T06:00:21Z</time>
      </trkpt>
      <trkpt lat="45.17334" lon="5.92667">
        <ele>1762.4</ele>
        <time>2018-05-12T06:00:27Z</time>
      </trkpt>
      <trkpt lat="45.17342" lon="5.92668">
        <ele>1763.1</ele>
        <time>2018-05-12T06:00:31Z</time>
      </trkpt>
      <trkpt lat="45.17354" lon="5.92663">
        <ele>1765.4</ele>
        <time>2018-05-12T06:00:44Z</time>
      </trkpt>
      <trkpt lat="45.17357" lon="5.92663">
        <ele>1766</ele>
        <time>2018-05-12T06:00:48Z</time>
      </trkpt>
      <trkpt lat="45.17374" lon="5.92661">
        <ele>1763.2</ele>
        <time>2018-05-12T06:01:03Z</time>
      </trkpt>
      <trkpt lat="45.17374" lon="5.92665">
        <ele>1763.7</ele>
        <time>2018-05-12T06:01:09Z</time>
      </trkpt>
      <trkpt lat="45.17372" lon="5.92668">
        <ele>1764.3</ele>
        <time>2018-05-12T06:01:13Z</time>
      </trkpt>
      <trkpt lat="45.17366" lon="5.92669">
        <ele>1765.4</ele>
        <time>2018-05-12T06:01:22Z</time>
      </trkpt>
      <trkpt lat="45.17357" lon="5.92675">
        <ele>1767.5</ele>
        <time>2018-05-12T06:01:34Z</time>
      </trkpt>
      <trkpt lat="45.17345" lon="5.92681">
        <ele>1770.4</ele>
        <time>2018-05-12T06:01:55Z</time>
      </trkpt>
      <trkpt lat="45.17337" lon="5.92699">
        <ele>1774.2</ele>
        <time>2018-05-12T06:02:12Z</time>
      </trkpt>
      <trkpt lat="45.1732" lon="5.92718">
        <ele>1780.5</ele>
        <time>2018-05-12T06:02:34Z</time>
      </trkpt>
      <trkpt lat="45.17315" lon="5.92732">
        <ele>1784.1</ele>
        <time>2018-05-12T06:02:43Z</time>
      </trkpt>
      <trkpt lat="45.17318" lon="5.9278">
        <ele>1795.1</ele>
        <time>2018-05-12T06:03:26Z</time>
      </trkpt>
      <trkpt lat="45.17318" lon="5.92784">
        <ele>1795.8</ele>
        <time>2018-05-12T06:03:29Z</time>
      </trkpt>
      <trkpt lat="45.17314" lon="5.92789">
        <ele>1798.5</ele>
        <time>2018-05-12T06:03:38Z</time>
      </trkpt>
      <trkpt lat="45.17315" lon="5.92803">
        <ele>1802.1</ele>
        <time>2018-05-12T06:03:47Z</time>
      </trkpt>
      <trkpt lat="45.17323" lon="5.92818">
        <ele>1805.7</ele>
        <time>2018-05-12T06:03:59Z</time>
      </trkpt>
      <trkpt lat="45.1733" lon="5.92839">
        <ele>1809.2</ele>
        <time>2018-05-12T06:04:33Z</time>
      </trkpt>
      <trkpt lat="45.17336" lon="5.92849">
        <ele>1810.6</ele>
        <time>2018-05-12T06:04:51Z</time>
      </trkpt>
      <trkpt lat="45.17342" lon="5.92855">
        <ele>1810.5</ele>
        <time>2018-05-12T06:05:00Z</time>
      </trkpt>
      <trkpt lat="45.17351" lon="5.92859">
        <ele>1810.3</ele>
        <time>2018-05-12T06:05:10Z</time>
      </trkpt>
      <trkpt lat="45.17357" lon="5.92858">
        <ele>1809.3</ele>
        <time>2018-05-12T06:05:18Z</time>
      </trkpt>
      <trkpt lat="45.17368" lon="5.92866">
        <ele>1812.2</ele>
        <time>2018-05-12T06:05:41Z</time>
      </trkpt>
      <trkpt lat="45.17371" lon="5.92873">
        <ele>1813.8</ele>
        <time>2018-05-12T06:05:49Z</time>
      </trkpt>
      <trkpt lat="45.17371" lon="5.92877">
        <ele>1814.7</ele>
        <time>2018-05-12T06:05:56Z</time>
      </trkpt>
      <trkpt lat="45.17374" lon="5.92886">
        <ele>1818.3</ele>
        <time>2018-05-12T06:06:07Z</time>
      </trkpt>
      <trkpt lat="45.17379" lon="5.92902">
        <ele>1819.8</ele>
        <time>2018-05-12T06:06:23Z</time>
      </trkpt>
      <trkpt lat="45.17385" lon="5.92912">
        <ele>1822.6</ele>
        <time>2018-05-12T06:06:40Z</time>
      </trkpt>
      <trkpt lat="45.1739" lon="5.92923">
        <ele>1824.1</ele>
        <time>2018-05-12T06:06:54Z</time>
      </trkpt>
      <trkpt lat="45.17391" lon="5.92927">
        <ele>1825.6</ele>
        <time>2018-05-12T06:06:59Z</time>
      </trkpt>
      <trkpt lat="45.17388" lon="5.92931">
        <ele>1827.3</ele>
        <time>2018-05-12T06:07:03Z</time>
      </trkpt>
      <trkpt lat="45.17387" lon="5.92935">
        <ele>1828</ele>
        <time>2018-05-12T06:07:07Z</time>
      </trkpt>
      <trkpt lat="45.17389" lon="5.92936">
        <ele>1828.7</ele>
        <time>2018-05-12T06:07:17Z</time>
      </trkpt>
      <trkpt lat="45.17392" lon="5.92945">
        <ele>1830</ele>
        <time>2018-05-12T06:07:31Z</time>
      </trkpt>
      <trkpt lat="45.17398" lon="5.92953">
        <ele>1830.5</ele>
        <time>2018-05-12T06:07:46Z</time>
      </trkpt>
      <trkpt lat="45.17405" lon="5.92956">
        <ele>1832.6</ele>
        <time>2018-05-12T06:07:58Z</time>
      </trkpt>
      <trkpt lat="45.17407" lon="5.92969">
        <ele>1835.9</ele>
        <time>2018-05-12T06:08:15Z</time>
      </trkpt>
      <trkpt lat="45.1741" lon="5.92972">
        <ele>1837.5</ele>
        <time>2018-05-12T06:08:25Z</time>
      </trkpt>
      <trkpt lat="45.1741" lon="5.9298">
        <ele>1840.5</ele>
        <time>2018-05-12T06:08:36Z</time>
      </trkpt>
      <trkpt lat="45.17416" lon="5.9299">
        <ele>1843.7</ele>
        <time>2018-05-12T06:08:51Z</time>
      </trkpt>
      <trkpt lat="45.17417" lon="5.92999">
        <ele>1845.8</ele>
        <time>2018-05-12T06:09:03Z</time>
      </trkpt>
      <trkpt lat="45.17419" lon="5.93003">
        <ele>1845.5</ele>
        <time>2018-05-12T06:09:07Z</time>
      </trkpt>
      <trkpt lat="45.17423" lon="5.93003">
        <ele>1846.2</ele>
        <time>2018-05-12T06:09:09Z</time>
      </trkpt>
      <trkpt lat="45.17425" lon="5.93007">
        <ele>1847.4</ele>
        <time>2018-05-12T06:09:19Z</time>
      </trkpt>
      <trkpt lat="45.17426" lon="5.93015">
        <ele>1849.9</ele>
        <time>2018-05-12T06:09:26Z</time>
      </trkpt>
      <trkpt lat="45.17426" lon="5.93024">
        <ele>1852.2</ele>
        <time>2018-05-12T06:09:35Z</time>
      </trkpt>
      <trkpt lat="45.17424" lon="5.93028">
        <ele>1853.4</ele>
        <time>2018-05-12T06:09:39Z</time>
      </trkpt>
      <trkpt lat="45.17423" lon="5.93037">
        <ele>1854.4</ele>
        <time>2018-05-12T06:09:46Z</time>
      </trkpt>
      <trkpt lat="45.17425" lon="5.93049">
        <ele>1855.8</ele>
        <time>2018-05-12T06:09:59Z</time>
      </trkpt>
      <trkpt lat="45.17424" lon="5.93058">
        <ele>1856.5</ele>
        <time>2018-05-12T06:10:08Z</time>
      </trkpt>
      <trkpt lat="45.17425" lon="5.93071">
        <ele>1858</ele>
        <time>2018-05-12T06:10:22Z</time>
      </trkpt>
      <trkpt lat="45.17423" lon="5.9308">
        <ele>1859.8</ele>
        <time>2018-05-12T06:10:33Z</time>
      </trkpt>
      <trkpt lat="45.1742" lon="5.93086">
        <ele>1860.9</ele>
        <time>2018-05-12T06:10:41Z</time>
      </trkpt>
      <trkpt lat="45.17423" lon="5.93108">
        <ele>1862.4</ele>
        <time>2018-05-12T06:11:03Z</time>
      </trkpt>
      <trkpt lat="45.17426" lon="5.93114">
        <ele>1862.5</ele>
        <time>2018-05-12T06:11:18Z</time>
      </trkpt>
      <trkpt lat="45.17425" lon="5.93136">
        <ele>1865.5</ele>
        <time>2018-05-12T06:11:51Z</time>
      </trkpt>
      <trkpt lat="45.1742" lon="5.9314">
        <ele>1868.5</ele>
        <time>2018-05-12T06:12:01Z</time>
      </trkpt>
      <trkpt lat="45.17418" lon="5.93153">
        <ele>1870.7</ele>
        <time>2018-05-12T06:12:22Z</time>
      </trkpt>
      <trkpt lat="45.17421" lon="5.93154">
        <ele>1869.5</ele>
        <time>2018-05-12T06:12:29Z</time>
      </trkpt>
      <trkpt lat="45.1742" lon="5.93159">
        <ele>1870.2</ele>
        <time>2018-05-12T06:12:34Z</time>
      </trkpt>
      <trkpt lat="45.17417" lon="5.93159">
        <ele>1872</ele>
        <time>2018-05-12T06:12:53Z</time>
      </trkpt>
      <trkpt lat="45.17416" lon="5.93163">
        <ele>1873.3</ele>
        <time>2018-05-12T06:13:17Z</time>
      </trkpt>
      <trkpt lat="45.17418" lon="5.93165">
        <ele>1872.7</ele>
        <time>2018-05-12T06:13:28Z</time>
      </trkpt>
      <trkpt lat="45.17416" lon="5.93157">
        <ele>1872.8</ele>
        <time>2018-05-12T06:13:47Z</time>
      </trkpt>
      <trkpt lat="45.17418" lon="5.93154">
        <ele>1871</ele>
        <time>2018-05-12T06:22:24Z</time>
      </trkpt>
      <trkpt lat="45.17416" lon="5.93152">
        <ele>1872.3</ele>
        <time>2018-05-12T06:22:41Z</time>
      </trkpt>
      <trkpt lat="45.17411" lon="5.93163">
        <ele>1876.4</ele>
        <time>2018-05-12T06:22:59Z</time>
      </trkpt>
      <trkpt lat="45.17408" lon="5.93171">
        <ele>1877</ele>
        <time>2018-05-12T06:23:13Z</time>
      </trkpt>
      <trkpt lat="45.17407" lon="5.9318">
        <ele>1879.5</ele>
        <time>2018-05-12T06:23:23Z</time>
      </trkpt>
      <trkpt lat="45.17408" lon="5.93197">
        <ele>1881.1</ele>
        <time>2018-05-12T06:23:37Z</time>
      </trkpt>
      <trkpt lat="45.17397" lon="5.93243">
        <ele>1889.4</ele>
        <time>2018-05-12T06:24:18Z</time>
      </trkpt>
      <trkpt lat="45.17395" lon="5.93247">
        <ele>1890.8</ele>
        <time>2018-05-12T06:24:23Z</time>
      </trkpt>
      <trkpt lat="45.17394" lon="5.93256">
        <ele>1891.9</ele>
        <time>2018-05-12T06:25:13Z</time>
      </trkpt>
      <trkpt lat="45.1739" lon="5.93262">
        <ele>1895</ele>
        <time>2018-05-12T06:26:27Z</time>
      </trkpt>
      <trkpt lat="45.17384" lon="5.93287">
        <ele>1898.3</ele>
        <time>2018-05-12T06:27:00Z</time>
      </trkpt>
      <trkpt lat="45.17379" lon="5.93302">
        <ele>1900.8</ele>
        <time>2018-05-12T06:27:15Z</time>
      </trkpt>
      <trkpt lat="45.17371" lon="5.93312">
        <ele>1903.2</ele>
        <time>2018-05-12T06:27:26Z</time>
      </trkpt>
      <trkpt lat="45.17368" lon="5.93327">
        <ele>1904.9</ele>
        <time>2018-05-12T06:27:34Z</time>
      </trkpt>
      <trkpt lat="45.17367" lon="5.93363">
        <ele>1908.1</ele>
        <time>2018-05-12T06:27:55Z</time>
      </trkpt>
      <trkpt lat="45.17362" lon="5.93392">
        <ele>1912.5</ele>
        <time>2018-05-12T06:28:17Z</time>
      </trkpt>
      <trkpt lat="45.17363" lon="5.93401">
        <ele>1912.9</ele>
        <time>2018-05-12T06:28:23Z</time>
      </trkpt>
      <trkpt lat="45.17362" lon="5.93427">
        <ele>1917.4</ele>
        <time>2018-05-12T06:28:46Z</time>
      </trkpt>
      <trkpt lat="45.17356" lon="5.93453">
        <ele>1922.4</ele>
        <time>2018-05-12T06:29:09Z</time>
      </trkpt>
      <trkpt lat="45.17354" lon="5.93456">
        <ele>1923.6</ele>
        <time>2018-05-12T06:29:14Z</time>
      </trkpt>
      <trkpt lat="45.17359" lon="5.93468">
        <ele>1924.2</ele>
        <time>2018-05-12T06:29:31Z</time>
      </trkpt>
      <trkpt lat="45.17359" lon="5.93472">
        <ele>1924.9</ele>
        <time>2018-05-12T06:29:35Z</time>
      </trkpt>
      <trkpt lat="45.17358" lon="5.93482">
        <ele>1926.9</ele>
        <time>2018-05-12T06:29:45Z</time>
      </trkpt>
      <trkpt lat="45.17354" lon="5.93488">
        <ele>1928.9</ele>
        <time>2018-05-12T06:29:55Z</time>
      </trkpt>
      <trkpt lat="45.17351" lon="5.93495">
        <ele>1930.4</ele>
        <time>2018-05-12T06:30:06Z</time>
      </trkpt>
      <trkpt lat="45.1735" lon="5.93508">
        <ele>1933.6</ele>
        <time>2018-05-12T06:30:17Z</time>
      </trkpt>
      <trkpt lat="45.17353" lon="5.93517">
        <ele>1934.5</ele>
        <time>2018-05-12T06:30:21Z</time>
      </trkpt>
      <trkpt lat="45.17353" lon="5.93525">
        <ele>1936</ele>
        <time>2018-05-12T06:30:28Z</time>
      </trkpt>
      <trkpt lat="45.17357" lon="5.93535">
        <ele>1936.8</ele>
        <time>2018-05-12T06:30:38Z</time>
      </trkpt>
      <trkpt lat="45.1736" lon="5.93538">
        <ele>1936.8</ele>
        <time>2018-05-12T06:30:41Z</time>
      </trkpt>
      <trkpt lat="45.17362" lon="5.93547">
        <ele>1938</ele>
        <time>2018-05-12T06:30:50Z</time>
      </trkpt>
      <trkpt lat="45.17365" lon="5.93565">
        <ele>1938</ele>
        <time>2018-05-12T06:31:04Z</time>
      </trkpt>
      <trkpt lat="45.17366" lon="5.93569">
        <ele>1943.7</ele>
        <time>2018-05-12T06:31:07Z</time>
      </trkpt>
      <trkpt lat="45.17367" lon="5.93573">
        <ele>1945.3</ele>
        <time>2018-05-12T06:31:13Z</time>
      </trkpt>
      <trkpt lat="45.17357" lon="5.93576">
        <ele>1948.7</ele>
        <time>2018-05-12T06:31:26Z</time>
      </trkpt>
      <trkpt lat="45.17354" lon="5.93574">
        <ele>1949.8</ele>
        <time>2018-05-12T06:31:32Z</time>
      </trkpt>
      <trkpt lat="45.17346" lon="5.9356">
        <ele>1951.8</ele>
        <time>2018-05-12T06:31:47Z</time>
      </trkpt>
      <trkpt lat="45.17339" lon="5.93551">
        <ele>1952.3</ele>
        <time>2018-05-12T06:31:58Z</time>
      </trkpt>
      <trkpt lat="45.17331" lon="5.93543">
        <ele>1953.8</ele>
        <time>2018-05-12T06:32:08Z</time>
      </trkpt>
      <trkpt lat="45.17316" lon="5.93539">
        <ele>1956.1</ele>
        <time>2018-05-12T06:32:34Z</time>
      </trkpt>
      <trkpt lat="45.17312" lon="5.93538">
        <ele>1961.5</ele>
        <time>2018-05-12T06:32:38Z</time>
      </trkpt>
      <trkpt lat="45.17305" lon="5.93527">
        <ele>1959.7</ele>
        <time>2018-05-12T06:32:52Z</time>
      </trkpt>
      <trkpt lat="45.17302" lon="5.93526">
        <ele>1958.4</ele>
        <time>2018-05-12T06:32:56Z</time>
      </trkpt>
      <trkpt lat="45.17294" lon="5.93523">
        <ele>1958.7</ele>
        <time>2018-05-12T06:33:07Z</time>
      </trkpt>
      <trkpt lat="45.1729" lon="5.93521">
        <ele>1959.9</ele>
        <time>2018-05-12T06:33:11Z</time>
      </trkpt>
      <trkpt lat="45.17284" lon="5.93522">
        <ele>1961.3</ele>
        <time>2018-05-12T06:33:20Z</time>
      </trkpt>
      <trkpt lat="45.17282" lon="5.93526">
        <ele>1962.2</ele>
        <time>2018-05-12T06:33:30Z</time>
      </trkpt>
      <trkpt lat="45.17279" lon="5.93538">
        <ele>1963.9</ele>
        <time>2018-05-12T06:33:41Z</time>
      </trkpt>
      <trkpt lat="45.17279" lon="5.93557">
        <ele>1965.8</ele>
        <time>2018-05-12T06:33:59Z</time>
      </trkpt>
      <trkpt lat="45.17282" lon="5.93559">
        <ele>1966.6</ele>
        <time>2018-05-12T06:34:04Z</time>
      </trkpt>
      <trkpt lat="45.17284" lon="5.93567">
        <ele>1967</ele>
        <time>2018-05-12T06:34:13Z</time>
      </trkpt>
      <trkpt lat="45.17287" lon="5.93571">
        <ele>1967.9</ele>
        <time>2018-05-12T06:34:17Z</time>
      </trkpt>
      <trkpt lat="45.17291" lon="5.93582">
        <ele>1971.8</ele>
        <time>2018-05-12T06:34:31Z</time>
      </trkpt>
      <trkpt lat="45.17294" lon="5.93595">
        <ele>1976.1</ele>
        <time>2018-05-12T06:34:43Z</time>
      </trkpt>
      <trkpt lat="45.173" lon="5.93605">
        <ele>1979.1</ele>
        <time>2018-05-12T06:34:53Z</time>
      </trkpt>
      <trkpt lat="45.17301" lon="5.93609">
        <ele>1978.2</ele>
        <time>2018-05-12T06:34:57Z</time>
      </trkpt>
      <trkpt lat="45.17302" lon="5.93622">
        <ele>1975.6</ele>
        <time>2018-05-12T06:35:11Z</time>
      </trkpt>
      <trkpt lat="45.17301" lon="5.93626">
        <ele>1976.3</ele>
        <time>2018-05-12T06:35:14Z</time>
      </trkpt>
      <trkpt lat="45.17287" lon="5.93631">
        <ele>1979.6</ele>
        <time>2018-05-12T06:35:36Z</time>
      </trkpt>
      <trkpt lat="45.17274" lon="5.93639">
        <ele>1985.1</ele>
        <time>2018-05-12T06:35:59Z</time>
      </trkpt>
      <trkpt lat="45.1726" lon="5.93652">
        <ele>1987.7</ele>
        <time>2018-05-12T06:36:19Z</time>
      </trkpt>
      <trkpt lat="45.17248" lon="5.93657">
        <ele>1985.7</ele>
        <time>2018-05-12T06:36:33Z</time>
      </trkpt>
      <trkpt lat="45.17238" lon="5.93666">
        <ele>1986.6</ele>
        <time>2018-05-12T06:36:45Z</time>
      </trkpt>
      <trkpt lat="45.17217" lon="5.9368">
        <ele>1992.2</ele>
        <time>2018-05-12T06:37:10Z</time>
      </trkpt>
      <trkpt lat="45.17201" lon="5.93686">
        <ele>1994.8</ele>
        <time>2018-05-12T06:37:32Z</time>
      </trkpt>
      <trkpt lat="45.17192" lon="5.93687">
        <ele>1996.6</ele>
        <time>2018-05-12T06:37:42Z</time>
      </trkpt>
      <trkpt lat="45.17177" lon="5.93695">
        <ele>1998.8</ele>
        <time>2018-05-12T06:38:00Z</time>
      </trkpt>
      <trkpt lat="45.17174" lon="5.93697">
        <ele>1996.9</ele>
        <time>2018-05-12T06:38:04Z</time>
      </trkpt>
      <trkpt lat="45.17165" lon="5.93697">
        <ele>1994.4</ele>
        <time>2018-05-12T06:38:18Z</time>
      </trkpt>
      <trkpt lat="45.17156" lon="5.93702">
        <ele>1993.6</ele>
        <time>2018-05-12T06:38:29Z</time>
      </trkpt>
      <trkpt lat="45.17155" lon="5.93693">
        <ele>1992.2</ele>
        <time>2018-05-12T06:39:05Z</time>
      </trkpt>
      <trkpt lat="45.17152" lon="5.93691">
        <ele>1991</ele>
        <time>2018-05-12T06:39:12Z</time>
      </trkpt>
      <trkpt lat="45.1715" lon="5.93688">
        <ele>1987.1</ele>
        <time>2018-05-12T06:39:16Z</time>
      </trkpt>
      <trkpt lat="45.17146" lon="5.93687">
        <ele>1987.4</ele>
        <time>2018-05-12T06:39:35Z</time>
      </trkpt>
      <trkpt lat="45.17141" lon="5.93689">
        <ele>1987.9</ele>
        <time>2018-05-12T06:39:43Z</time>
      </trkpt>
      <trkpt lat="45.17138" lon="5.93693">
        <ele>1988.2</ele>
        <time>2018-05-12T06:39:48Z</time>
      </trkpt>
      <trkpt lat="45.17126" lon="5.93696">
        <ele>1989.2</ele>
        <time>2018-05-12T06:39:59Z</time>
      </trkpt>
      <trkpt lat="45.17117" lon="5.93698">
        <ele>1983.8</ele>
        <time>2018-05-12T06:40:07Z</time>
      </trkpt>
      <trkpt lat="45.17111" lon="5.93702">
        <ele>1981.4</ele>
        <time>2018-05-12T06:40:11Z</time>
      </trkpt>
      <trkpt lat="45.17101" lon="5.93704">
        <ele>1975.5</ele>
        <time>2018-05-12T06:40:18Z</time>
      </trkpt>
      <trkpt lat="45.17097" lon="5.93705">
        <ele>1975.5</ele>
        <time>2018-05-12T06:40:40Z</time>
      </trkpt>
      <trkpt lat="45.1709" lon="5.93707">
        <ele>1971.6</ele>
        <time>2018-05-12T06:40:48Z</time>
      </trkpt>
      <trkpt lat="45.17078" lon="5.93713">
        <ele>1979.9</ele>
        <time>2018-05-12T06:40:52Z</time>
      </trkpt>
      <trkpt lat="45.17075" lon="5.93717">
        <ele>1981.9</ele>
        <time>2018-05-12T06:40:55Z</time>
      </trkpt>
      <trkpt lat="45.17069" lon="5.9373">
        <ele>1985.4</ele>
        <time>2018-05-12T06:41:02Z</time>
      </trkpt>
      <trkpt lat="45.17064" lon="5.93739">
        <ele>1984.9</ele>
        <time>2018-05-12T06:41:06Z</time>
      </trkpt>
      <trkpt lat="45.17061" lon="5.93741">
        <ele>1985.6</ele>
        <time>2018-05-12T06:41:10Z</time>
      </trkpt>
      <trkpt lat="45.17048" lon="5.93743">
        <ele>1973.6</ele>
        <time>2018-05-12T06:41:21Z</time>
      </trkpt>
      <trkpt lat="45.17042" lon="5.93745">
        <ele>1971.3</ele>
        <time>2018-05-12T06:41:28Z</time>
      </trkpt>
      <trkpt lat="45.17036" lon="5.93748">
        <ele>1966.5</ele>
        <time>2018-05-12T06:41:36Z</time>
      </trkpt>
      <trkpt lat="45.17026" lon="5.93745">
        <ele>1970.3</ele>
        <time>2018-05-12T06:41:51Z</time>
      </trkpt>
      <trkpt lat="45.17019" lon="5.93743">
        <ele>1970.9</ele>
        <time>2018-05-12T06:41:58Z</time>
      </trkpt>
      <trkpt lat="45.17016" lon="5.93744">
        <ele>1972.7</ele>
        <time>2018-05-12T06:42:02Z</time>
      </trkpt>
      <trkpt lat="45.1701" lon="5.93744">
        <ele>1972.7</ele>
        <time>2018-05-12T06:42:10Z</time>
      </trkpt>
      <trkpt lat="45.17006" lon="5.93751">
        <ele>1975.6</ele>
        <time>2018-05-12T06:42:17Z</time>
      </trkpt>
      <trkpt lat="45.16994" lon="5.93761">
        <ele>1980.5</ele>
        <time>2018-05-12T06:42:30Z</time>
      </trkpt>
      <trkpt lat="45.16986" lon="5.93762">
        <ele>1983.3</ele>
        <time>2018-05-12T06:42:35Z</time>
      </trkpt>
      <trkpt lat="45.16979" lon="5.9377">
        <ele>1983.4</ele>
        <time>2018-05-12T06:42:45Z</time>
      </trkpt>
      <trkpt lat="45.16969" lon="5.93774">
        <ele>1982.7</ele>
        <time>2018-05-12T06:43:14Z</time>
      </trkpt>
      <trkpt lat="45.16965" lon="5.9378">
        <ele>1983.2</ele>
        <time>2018-05-12T06:43:25Z</time>
      </trkpt>
      <trkpt lat="45.16951" lon="5.93789">
        <ele>1986.4</ele>
        <time>2018-05-12T06:43:48Z</time>
      </trkpt>
      <trkpt lat="45.16946" lon="5.93794">
        <ele>1988.5</ele>
        <time>2018-05-12T06:43:53Z</time>
      </trkpt>
      <trkpt lat="45.16942" lon="5.93802">
        <ele>1990.2</ele>
        <time>2018-05-12T06:43:59Z</time>
      </trkpt>
      <trkpt lat="45.16935" lon="5.9381">
        <ele>1990.4</ele>
        <time>2018-05-12T06:44:06Z</time>
      </trkpt>
      <trkpt lat="45.16928" lon="5.93813">
        <ele>1991.8</ele>
        <time>2018-05-12T06:44:17Z</time>
      </trkpt>
      <trkpt lat="45.16918" lon="5.93828">
        <ele>1995.9</ele>
        <time>2018-05-12T06:44:40Z</time>
      </trkpt>
      <trkpt lat="45.16918" lon="5.93833">
        <ele>1996.9</ele>
        <time>2018-05-12T06:44:43Z</time>
      </trkpt>
      <trkpt lat="45.16909" lon="5.93846">
        <ele>2000.2</ele>
        <time>2018-05-12T06:44:56Z</time>
      </trkpt>
      <trkpt lat="45.16907" lon="5.93854">
        <ele>2001.4</ele>
        <time>2018-05-12T06:45:02Z</time>
      </trkpt>
      <trkpt lat="45.16897" lon="5.93866">
        <ele>2003</ele>
        <time>2018-05-12T06:45:14Z</time>
      </trkpt>
      <trkpt lat="45.16891" lon="5.93881">
        <ele>2006.3</ele>
        <time>2018-05-12T06:45:27Z</time>
      </trkpt>
      <trkpt lat="45.16888" lon="5.93884">
        <ele>2007.9</ele>
        <time>2018-05-12T06:45:30Z</time>
      </trkpt>
      <trkpt lat="45.16882" lon="5.93896">
        <ele>2013</ele>
        <time>2018-05-12T06:45:40Z</time>
      </trkpt>
      <trkpt lat="45.16869" lon="5.93909">
        <ele>2015.2</ele>
        <time>2018-05-12T06:45:59Z</time>
      </trkpt>
      <trkpt lat="45.16863" lon="5.93913">
        <ele>2014.7</ele>
        <time>2018-05-12T06:46:08Z</time>
      </trkpt>
      <trkpt lat="45.16855" lon="5.93919">
        <ele>2018.2</ele>
        <time>2018-05-12T06:46:20Z</time>
      </trkpt>
      <trkpt lat="45.16841" lon="5.93927">
        <ele>2023.1</ele>
        <time>2018-05-12T06:46:36Z</time>
      </trkpt>
      <trkpt lat="45.16838" lon="5.9393">
        <ele>2022.8</ele>
        <time>2018-05-12T06:46:42Z</time>
      </trkpt>
      <trkpt lat="45.16828" lon="5.93934">
        <ele>2019.3</ele>
        <time>2018-05-12T06:47:05Z</time>
      </trkpt>
      <trkpt lat="45.16818" lon="5.93931">
        <ele>2017.4</ele>
        <time>2018-05-12T06:47:16Z</time>
      </trkpt>
      <trkpt lat="45.1681" lon="5.93923">
        <ele>2016.8</ele>
        <time>2018-05-12T06:47:27Z</time>
      </trkpt>
      <trkpt lat="45.16801" lon="5.93912">
        <ele>2017</ele>
        <time>2018-05-12T06:48:22Z</time>
      </trkpt>
      <trkpt lat="45.16796" lon="5.93905">
        <ele>2019.4</ele>
        <time>2018-05-12T06:48:31Z</time>
      </trkpt>
      <trkpt lat="45.16791" lon="5.93906">
        <ele>2020.8</ele>
        <time>2018-05-12T06:48:43Z</time>
      </trkpt>
      <trkpt lat="45.16786" lon="5.93912">
        <ele>2022.1</ele>
        <time>2018-05-12T06:48:56Z</time>
      </trkpt>
      <trkpt lat="45.16781" lon="5.93913">
        <ele>2022.7</ele>
        <time>2018-05-12T06:49:05Z</time>
      </trkpt>
      <trkpt lat="45.16778" lon="5.93915">
        <ele>2023.5</ele>
        <time>2018-05-12T06:49:09Z</time>
      </trkpt>
      <trkpt lat="45.16769" lon="5.93934">
        <ele>2026.2</ele>
        <time>2018-05-12T06:49:29Z</time>
      </trkpt>
      <trkpt lat="45.16763" lon="5.93957">
        <ele>2029</ele>
        <time>2018-05-12T06:49:43Z</time>
      </trkpt>
      <trkpt lat="45.16763" lon="5.93967">
        <ele>2030</ele>
        <time>2018-05-12T06:49:49Z</time>
      </trkpt>
      <trkpt lat="45.16761" lon="5.93973">
        <ele>2030.7</ele>
        <time>2018-05-12T06:49:52Z</time>
      </trkpt>
      <trkpt lat="45.16761" lon="5.93978">
        <ele>2031.3</ele>
        <time>2018-05-12T06:49:54Z</time>
      </trkpt>
      <trkpt lat="45.16758" lon="5.93986">
        <ele>2032.5</ele>
        <time>2018-05-12T06:50:00Z</time>
      </trkpt>
      <trkpt lat="45.16758" lon="5.93991">
        <ele>2033</ele>
        <time>2018-05-12T06:50:03Z</time>
      </trkpt>
      <trkpt lat="45.16754" lon="5.94004">
        <ele>2034.8</ele>
        <time>2018-05-12T06:50:13Z</time>
      </trkpt>
      <trkpt lat="45.16746" lon="5.94023">
        <ele>2036.5</ele>
        <time>2018-05-12T06:50:26Z</time>
      </trkpt>
      <trkpt lat="45.16745" lon="5.94035">
        <ele>2037.2</ele>
        <time>2018-05-12T06:50:32Z</time>
      </trkpt>
      <trkpt lat="45.16746" lon="5.94044">
        <ele>2040.5</ele>
        <time>2018-05-12T06:50:37Z</time>
      </trkpt>
      <trkpt lat="45.16745" lon="5.94053">
        <ele>2042.4</ele>
        <time>2018-05-12T06:50:45Z</time>
      </trkpt>
      <trkpt lat="45.16743" lon="5.94056">
        <ele>2043.7</ele>
        <time>2018-05-12T06:50:49Z</time>
      </trkpt>
      <trkpt lat="45.16739" lon="5.94062">
        <ele>2043.7</ele>
        <time>2018-05-12T06:50:56Z</time>
      </trkpt>
      <trkpt lat="45.16728" lon="5.94069">
        <ele>2044.4</ele>
        <time>2018-05-12T06:51:09Z</time>
      </trkpt>
      <trkpt lat="45.16726" lon="5.94072">
        <ele>2043.7</ele>
        <time>2018-05-12T06:51:13Z</time>
      </trkpt>
      <trkpt lat="45.16714" lon="5.94089">
        <ele>2046.4</ele>
        <time>2018-05-12T06:51:37Z</time>
      </trkpt>
      <trkpt lat="45.16707" lon="5.94099">
        <ele>2049.9</ele>
        <time>2018-05-12T06:51:45Z</time>
      </trkpt>
      <trkpt lat="45.16707" lon="5.94109">
        <ele>2052.2</ele>
        <time>2018-05-12T06:51:55Z</time>
      </trkpt>
      <trkpt lat="45.16698" lon="5.94126">
        <ele>2057.6</ele>
        <time>2018-05-12T06:52:16Z</time>
      </trkpt>
      <trkpt lat="45.16694" lon="5.94127">
        <ele>2058.4</ele>
        <time>2018-05-12T06:52:23Z</time>
      </trkpt>
      <trkpt lat="45.16686" lon="5.94135">
        <ele>2059.7</ele>
        <time>2018-05-12T06:52:36Z</time>
      </trkpt>
      <trkpt lat="45.16679" lon="5.94137">
        <ele>2060.3</ele>
        <time>2018-05-12T06:52:47Z</time>
      </trkpt>
      <trkpt lat="45.16668" lon="5.9415">
        <ele>2061.6</ele>
        <time>2018-05-12T06:52:56Z</time>
      </trkpt>
      <trkpt lat="45.16658" lon="5.94153">
        <ele>2063.8</ele>
        <time>2018-05-12T06:53:05Z</time>
      </trkpt>
      <trkpt lat="45.16648" lon="5.94163">
        <ele>2067.3</ele>
        <time>2018-05-12T06:53:20Z</time>
      </trkpt>
      <trkpt lat="45.16636" lon="5.94164">
        <ele>2066.5</ele>
        <time>2018-05-12T06:53:32Z</time>
      </trkpt>
      <trkpt lat="45.16622" lon="5.9416">
        <ele>2063.6</ele>
        <time>2018-05-12T06:53:58Z</time>
      </trkpt>
      <trkpt lat="45.16619" lon="5.94161">
        <ele>2063.4</ele>
        <time>2018-05-12T06:54:02Z</time>
      </trkpt>
      <trkpt lat="45.16614" lon="5.94167">
        <ele>2062.6</ele>
        <time>2018-05-12T06:54:08Z</time>
      </trkpt>
      <trkpt lat="45.16605" lon="5.94172">
        <ele>2061.4</ele>
        <time>2018-05-12T06:54:33Z</time>
      </trkpt>
      <trkpt lat="45.16596" lon="5.94172">
        <ele>2060.1</ele>
        <time>2018-05-12T06:54:42Z</time>
      </trkpt>
      <trkpt lat="45.1659" lon="5.94169">
        <ele>2059</ele>
        <time>2018-05-12T06:54:51Z</time>
      </trkpt>
      <trkpt lat="45.16585" lon="5.94173">
        <ele>2058.1</ele>
        <time>2018-05-12T06:55:05Z</time>
      </trkpt>
      <trkpt lat="45.16583" lon="5.94184">
        <ele>2058</ele>
        <time>2018-05-12T06:55:19Z</time>
      </trkpt>
      <trkpt lat="45.16586" lon="5.94184">
        <ele>2058.1</ele>
        <time>2018-05-12T07:01:43Z</time>
      </trkpt>
      <trkpt lat="45.16579" lon="5.94187">
        <ele>2059.8</ele>
        <time>2018-05-12T07:02:52Z</time>
      </trkpt>
      <trkpt lat="45.16572" lon="5.94201">
        <ele>2061.9</ele>
        <time>2018-05-12T07:03:01Z</time>
      </trkpt>
      <trkpt lat="45.1657" lon="5.94207">
        <ele>2062.6</ele>
        <time>2018-05-12T07:03:06Z</time>
      </trkpt>
      <trkpt lat="45.16556" lon="5.94231">
        <ele>2066.9</ele>
        <time>2018-05-12T07:03:37Z</time>
      </trkpt>
      <trkpt lat="45.16551" lon="5.94235">
        <ele>2067.7</ele>
        <time>2018-05-12T07:03:43Z</time>
      </trkpt>
      <trkpt lat="45.16542" lon="5.94248">
        <ele>2070.4</ele>
        <time>2018-05-12T07:03:56Z</time>
      </trkpt>
      <trkpt lat="45.16522" lon="5.9427">
        <ele>2073</ele>
        <time>2018-05-12T07:04:16Z</time>
      </trkpt>
      <trkpt lat="45.16499" lon="5.94293">
        <ele>2080.1</ele>
        <time>2018-05-12T07:04:39Z</time>
      </trkpt>
      <trkpt lat="45.16495" lon="5.94299">
        <ele>2081.5</ele>
        <time>2018-05-12T07:04:48Z</time>
      </trkpt>
      <trkpt lat="45.16494" lon="5.94307">
        <ele>2084</ele>
        <time>2018-05-12T07:04:56Z</time>
      </trkpt>
      <trkpt lat="45.16491" lon="5.94311">
        <ele>2085.5</ele>
        <time>2018-05-12T07:05:01Z</time>
      </trkpt>
      <trkpt lat="45.1649" lon="5.94315">
        <ele>2086.7</ele>
        <time>2018-05-12T07:05:05Z</time>
      </trkpt>
      <trkpt lat="45.16487" lon="5.94318">
        <ele>2087.9</ele>
        <time>2018-05-12T07:05:06Z</time>
      </trkpt>
      <trkpt lat="45.16483" lon="5.94331">
        <ele>2092</ele>
        <time>2018-05-12T07:05:13Z</time>
      </trkpt>
      <trkpt lat="45.16477" lon="5.94343">
        <ele>2094.7</ele>
        <time>2018-05-12T07:05:20Z</time>
      </trkpt>
      <trkpt lat="45.16472" lon="5.94363">
        <ele>2102.7</ele>
        <time>2018-05-12T07:05:40Z</time>
      </trkpt>
      <trkpt lat="45.16464" lon="5.94371">
        <ele>2105.9</ele>
        <time>2018-05-12T07:05:49Z</time>
      </trkpt>
      <trkpt lat="45.16451" lon="5.94364">
        <ele>2104.5</ele>
        <time>2018-05-12T07:06:05Z</time>
      </trkpt>
      <trkpt lat="45.16443" lon="5.94362">
        <ele>2105.7</ele>
        <time>2018-05-12T07:06:12Z</time>
      </trkpt>
      <trkpt lat="45.16441" lon="5.9436">
        <ele>2104.8</ele>
        <time>2018-05-12T07:06:15Z</time>
      </trkpt>
      <trkpt lat="45.1643" lon="5.94357">
        <ele>2108.5</ele>
        <time>2018-05-12T07:06:32Z</time>
      </trkpt>
      <trkpt lat="45.16427" lon="5.94355">
        <ele>2109.5</ele>
        <time>2018-05-12T07:06:35Z</time>
      </trkpt>
      <trkpt lat="45.1642" lon="5.94342">
        <ele>2113.1</ele>
        <time>2018-05-12T07:06:44Z</time>
      </trkpt>
      <trkpt lat="45.16412" lon="5.94335">
        <ele>2114.5</ele>
        <time>2018-05-12T07:07:04Z</time>
      </trkpt>
      <trkpt lat="45.16411" lon="5.94349">
        <ele>2115.7</ele>
        <time>2018-05-12T07:07:22Z</time>
      </trkpt>
      <trkpt lat="45.16415" lon="5.94368">
        <ele>2115</ele>
        <time>2018-05-12T07:07:36Z</time>
      </trkpt>
      <trkpt lat="45.16413" lon="5.94368">
        <ele>2114.9</ele>
        <time>2018-05-12T07:07:48Z</time>
      </trkpt>
      <trkpt lat="45.16404" lon="5.94362">
        <ele>2116.8</ele>
        <time>2018-05-12T07:08:00Z</time>
      </trkpt>
      <trkpt lat="45.16399" lon="5.94356">
        <ele>2117.7</ele>
        <time>2018-05-12T07:08:04Z</time>
      </trkpt>
      <trkpt lat="45.16397" lon="5.94358">
        <ele>2118</ele>
        <time>2018-05-12T07:08:06Z</time>
      </trkpt>
      <trkpt lat="45.16397" lon="5.944">
        <ele>2121.6</ele>
        <time>2018-05-12T07:09:06Z</time>
      </trkpt>
      <trkpt lat="45.16397" lon="5.94409">
        <ele>2125</ele>
        <time>2018-05-12T07:09:12Z</time>
      </trkpt>
      <trkpt lat="45.16396" lon="5.94414">
        <ele>2127.1</ele>
        <time>2018-05-12T07:09:23Z</time>
      </trkpt>
      <trkpt lat="45.16392" lon="5.94419">
        <ele>2130.8</ele>
        <time>2018-05-12T07:09:36Z</time>
      </trkpt>
      <trkpt lat="45.16384" lon="5.94426">
        <ele>2133.7</ele>
        <time>2018-05-12T07:09:50Z</time>
      </trkpt>
      <trkpt lat="45.16382" lon="5.94431">
        <ele>2135</ele>
        <time>2018-05-12T07:10:06Z</time>
      </trkpt>
      <trkpt lat="45.16381" lon="5.94443">
        <ele>2135.9</ele>
        <time>2018-05-12T07:10:15Z</time>
      </trkpt>
      <trkpt lat="45.1638" lon="5.94461">
        <ele>2144.3</ele>
        <time>2018-05-12T07:10:27Z</time>
      </trkpt>
      <trkpt lat="45.1638" lon="5.94467">
        <ele>2145.4</ele>
        <time>2018-05-12T07:10:30Z</time>
      </trkpt>
      <trkpt lat="45.16376" lon="5.9448">
        <ele>2149.7</ele>
        <time>2018-05-12T07:11:02Z</time>
      </trkpt>
      <trkpt lat="45.16377" lon="5.94497">
        <ele>2153.9</ele>
        <time>2018-05-12T07:11:17Z</time>
      </trkpt>
      <trkpt lat="45.16375" lon="5.94521">
        <ele>2161.1</ele>
        <time>2018-05-12T07:11:28Z</time>
      </trkpt>
      <trkpt lat="45.16372" lon="5.94529">
        <ele>2162.4</ele>
        <time>2018-05-12T07:11:37Z</time>
      </trkpt>
      <trkpt lat="45.16373" lon="5.94538">
        <ele>2164.3</ele>
        <time>2018-05-12T07:11:46Z</time>
      </trkpt>
      <trkpt lat="45.16376" lon="5.9455">
        <ele>2165.2</ele>
        <time>2018-05-12T07:12:10Z</time>
      </trkpt>
      <trkpt lat="45.16375" lon="5.94554">
        <ele>2165.5</ele>
        <time>2018-05-12T07:12:26Z</time>
      </trkpt>
      <trkpt lat="45.16381" lon="5.9458">
        <ele>2167.7</ele>
        <time>2018-05-12T07:14:03Z</time>
      </trkpt>
      <trkpt lat="45.16384" lon="5.94584">
        <ele>2168.5</ele>
        <time>2018-05-12T07:14:06Z</time>
      </trkpt>
      <trkpt lat="45.16385" lon="5.94592">
        <ele>2169.5</ele>
        <time>2018-05-12T07:14:16Z</time>
      </trkpt>
      <trkpt lat="45.16387" lon="5.946">
        <ele>2170.8</ele>
        <time>2018-05-12T07:14:21Z</time>
      </trkpt>
      <trkpt lat="45.16389" lon="5.94624">
        <ele>2174.6</ele>
        <time>2018-05-12T07:14:50Z</time>
      </trkpt>
      <trkpt lat="45.16388" lon="5.94628">
        <ele>2175.3</ele>
        <time>2018-05-12T07:14:57Z</time>
      </trkpt>
      <trkpt lat="45.16392" lon="5.94644">
        <ele>2177.6</ele>
        <time>2018-05-12T07:15:14Z</time>
      </trkpt>
      <trkpt lat="45.16392" lon="5.94655">
        <ele>2178.7</ele>
        <time>2018-05-12T07:15:20Z</time>
      </trkpt>
      <trkpt lat="45.1639" lon="5.94659">
        <ele>2179.2</ele>
        <time>2018-05-12T07:15:23Z</time>
      </trkpt>
      <trkpt lat="45.16392" lon="5.94667">
        <ele>2179.9</ele>
        <time>2018-05-12T07:15:29Z</time>
      </trkpt>
      <trkpt lat="45.16394" lon="5.94668">
        <ele>2180.3</ele>
        <time>2018-05-12T07:15:37Z</time>
      </trkpt>
      <trkpt lat="45.16396" lon="5.94664">
        <ele>2180.9</ele>
        <time>2018-05-12T07:15:45Z</time>
      </trkpt>
      <trkpt lat="45.16405" lon="5.9466">
        <ele>2183.3</ele>
        <time>2018-05-12T07:16:12Z</time>
      </trkpt>
      <trkpt lat="45.16427" lon="5.94668">
        <ele>2185.6</ele>
        <time>2018-05-12T07:16:37Z</time>
      </trkpt>
      <trkpt lat="45.1643" lon="5.94677">
        <ele>2187</ele>
        <time>2018-05-12T07:16:44Z</time>
      </trkpt>
      <trkpt lat="45.16451" lon="5.94696">
        <ele>2190.5</ele>
        <time>2018-05-12T07:17:19Z</time>
      </trkpt>
      <trkpt lat="45.16458" lon="5.94697">
        <ele>2191.2</ele>
        <time>2018-05-12T07:17:28Z</time>
      </trkpt>
      <trkpt lat="45.16472" lon="5.94706">
        <ele>2193.8</ele>
        <time>2018-05-12T07:17:50Z</time>
      </trkpt>
      <trkpt lat="45.1649" lon="5.94711">
        <ele>2196.6</ele>
        <time>2018-05-12T07:18:16Z</time>
      </trkpt>
      <trkpt lat="45.16497" lon="5.94721">
        <ele>2199.1</ele>
        <time>2018-05-12T07:18:23Z</time>
      </trkpt>
      <trkpt lat="45.16505" lon="5.94725">
        <ele>2200.8</ele>
        <time>2018-05-12T07:18:36Z</time>
      </trkpt>
      <trkpt lat="45.16505" lon="5.94729">
        <ele>2201.7</ele>
        <time>2018-05-12T07:18:38Z</time>
      </trkpt>
      <trkpt lat="45.16511" lon="5.94741">
        <ele>2205</ele>
        <time>2018-05-12T07:18:46Z</time>
      </trkpt>
      <trkpt lat="45.16516" lon="5.94745">
        <ele>2205</ele>
        <time>2018-05-12T07:18:56Z</time>
      </trkpt>
      <trkpt lat="45.16518" lon="5.94749">
        <ele>2207.7</ele>
        <time>2018-05-12T07:19:00Z</time>
      </trkpt>
      <trkpt lat="45.16518" lon="5.94755">
        <ele>2209.7</ele>
        <time>2018-05-12T07:19:04Z</time>
      </trkpt>
      <trkpt lat="45.16523" lon="5.9476">
        <ele>2210.7</ele>
        <time>2018-05-12T07:19:11Z</time>
      </trkpt>
      <trkpt lat="45.16528" lon="5.94767">
        <ele>2211.8</ele>
        <time>2018-05-12T07:19:19Z</time>
      </trkpt>
      <trkpt lat="45.16534" lon="5.94771">
        <ele>2212.8</ele>
        <time>2018-05-12T07:19:23Z</time>
      </trkpt>
      <trkpt lat="45.16541" lon="5.94781">
        <ele>2214.3</ele>
        <time>2018-05-12T07:19:34Z</time>
      </trkpt>
      <trkpt lat="45.16541" lon="5.94785">
        <ele>2214.4</ele>
        <time>2018-05-12T07:19:40Z</time>
      </trkpt>
      <trkpt lat="45.16561" lon="5.948">
        <ele>2218</ele>
        <time>2018-05-12T07:20:14Z</time>
      </trkpt>
      <trkpt lat="45.16566" lon="5.948">
        <ele>2221.9</ele>
        <time>2018-05-12T07:20:44Z</time>
      </trkpt>
      <trkpt lat="45.16572" lon="5.94805">
        <ele>2222.9</ele>
        <time>2018-05-12T07:20:53Z</time>
      </trkpt>
      <trkpt lat="45.16581" lon="5.94805">
        <ele>2224.6</ele>
        <time>2018-05-12T07:21:13Z</time>
      </trkpt>
      <trkpt lat="45.16584" lon="5.94819">
        <ele>2226.2</ele>
        <time>2018-05-12T07:21:47Z</time>
      </trkpt>
      <trkpt lat="45.16583" lon="5.94823">
        <ele>2226.6</ele>
        <time>2018-05-12T07:21:56Z</time>
      </trkpt>
      <trkpt lat="45.1659" lon="5.94826">
        <ele>2227.5</ele>
        <time>2018-05-12T07:22:04Z</time>
      </trkpt>
      <trkpt lat="45.166" lon="5.94828">
        <ele>2229.1</ele>
        <time>2018-05-12T07:22:15Z</time>
      </trkpt>
      <trkpt lat="45.16597" lon="5.94837">
        <ele>2230</ele>
        <time>2018-05-12T07:22:24Z</time>
      </trkpt>
      <trkpt lat="45.16589" lon="5.94844">
        <ele>2231.1</ele>
        <time>2018-05-12T07:22:36Z</time>
      </trkpt>
      <trkpt lat="45.16588" lon="5.94851">
        <ele>2232.7</ele>
        <time>2018-05-12T07:22:48Z</time>
      </trkpt>
      <trkpt lat="45.16587" lon="5.94855">
        <ele>2233.6</ele>
        <time>2018-05-12T07:22:52Z</time>
      </trkpt>
      <trkpt lat="45.16584" lon="5.94857">
        <ele>2234</ele>
        <time>2018-05-12T07:22:58Z</time>
      </trkpt>
      <trkpt lat="45.16592" lon="5.94861">
        <ele>2234</ele>
        <time>2018-05-12T07:23:10Z</time>
      </trkpt>
      <trkpt lat="45.16595" lon="5.94865">
        <ele>2241.5</ele>
        <time>2018-05-12T07:23:38Z</time>
      </trkpt>
      <trkpt lat="45.16596" lon="5.94868">
        <ele>2241.2</ele>
        <time>2018-05-12T07:23:48Z</time>
      </trkpt>
      <trkpt lat="45.16596" lon="5.94873">
        <ele>2241.1</ele>
        <time>2018-05-12T07:23:52Z</time>
      </trkpt>
      <trkpt lat="45.16591" lon="5.94878">
        <ele>2242.1</ele>
        <time>2018-05-12T07:24:03Z</time>
      </trkpt>
      <trkpt lat="45.16593" lon="5.94887">
        <ele>2244.5</ele>
        <time>2018-05-12T07:24:15Z</time>
      </trkpt>
      <trkpt lat="45.16596" lon="5.94889">
        <ele>2245.7</ele>
        <time>2018-05-12T07:24:18Z</time>
      </trkpt>
      <trkpt lat="45.16599" lon="5.94897">
        <ele>2246</ele>
        <time>2018-05-12T07:24:29Z</time>
      </trkpt>
      <trkpt lat="45.16601" lon="5.94918">
        <ele>2249</ele>
        <time>2018-05-12T07:28:40Z</time>
      </trkpt>
      <trkpt lat="45.166" lon="5.94934">
        <ele>2252.2</ele>
        <time>2018-05-12T07:28:53Z</time>
      </trkpt>
      <trkpt lat="45.16608" lon="5.94957">
        <ele>2256.4</ele>
        <time>2018-05-12T07:29:47Z</time>
      </trkpt>
      <trkpt lat="45.16609" lon="5.94976">
        <ele>2259.9</ele>
        <time>2018-05-12T07:29:52Z</time>
      </trkpt>
      <trkpt lat="45.16607" lon="5.94989">
        <ele>2261.3</ele>
        <time>2018-05-12T07:30:19Z</time>
      </trkpt>
      <trkpt lat="45.16629" lon="5.95057">
        <ele>2264.6</ele>
        <time>2018-05-12T07:31:14Z</time>
      </trkpt>
      <trkpt lat="45.16633" lon="5.9508">
        <ele>2266.5</ele>
        <time>2018-05-12T07:31:29Z</time>
      </trkpt>
      <trkpt lat="45.16632" lon="5.95084">
        <ele>2266.6</ele>
        <time>2018-05-12T07:31:32Z</time>
      </trkpt>
      <trkpt lat="45.16642" lon="5.95108">
        <ele>2268.6</ele>
        <time>2018-05-12T07:31:55Z</time>
      </trkpt>
      <trkpt lat="45.16661" lon="5.95147">
        <ele>2270.5</ele>
        <time>2018-05-12T07:32:40Z</time>
      </trkpt>
      <trkpt lat="45.16665" lon="5.95159">
        <ele>2271.1</ele>
        <time>2018-05-12T07:32:52Z</time>
      </trkpt>
      <trkpt lat="45.16669" lon="5.95189">
        <ele>2273</ele>
        <time>2018-05-12T07:33:18Z</time>
      </trkpt>
      <trkpt lat="45.1667" lon="5.95193">
        <ele>2275.1</ele>
        <time>2018-05-12T07:33:21Z</time>
      </trkpt>
      <trkpt lat="45.16672" lon="5.95202">
        <ele>2276.2</ele>
        <time>2018-05-12T07:33:27Z</time>
      </trkpt>
      <trkpt lat="45.16674" lon="5.95205">
        <ele>2276.6</ele>
        <time>2018-05-12T07:33:30Z</time>
      </trkpt>
      <trkpt lat="45.16676" lon="5.95219">
        <ele>2278.7</ele>
        <time>2018-05-12T07:33:41Z</time>
      </trkpt>
      <trkpt lat="45.16674" lon="5.95242">
        <ele>2282.7</ele>
        <time>2018-05-12T07:34:09Z</time>
      </trkpt>
      <trkpt lat="45.16678" lon="5.95248">
        <ele>2283.7</ele>
        <time>2018-05-12T07:34:12Z</time>
      </trkpt>
      <trkpt lat="45.16675" lon="5.95258">
        <ele>2285.1</ele>
        <time>2018-05-12T07:34:18Z</time>
      </trkpt>
      <trkpt lat="45.1667" lon="5.95289">
        <ele>2293.9</ele>
        <time>2018-05-12T07:34:35Z</time>
      </trkpt>
      <trkpt lat="45.16665" lon="5.95301">
        <ele>2297.8</ele>
        <time>2018-05-12T07:34:50Z</time>
      </trkpt>
      <trkpt lat="45.16662" lon="5.95301">
        <ele>2297.2</ele>
        <time>2018-05-12T07:34:56Z</time>
      </trkpt>
      <trkpt lat="45.1666" lon="5.95304">
        <ele>2296.8</ele>
        <time>2018-05-12T07:35:05Z</time>
      </trkpt>
      <trkpt lat="45.16657" lon="5.95304">
        <ele>2296.4</ele>
        <time>2018-05-12T07:35:09Z</time>
      </trkpt>
      <trkpt lat="45.16649" lon="5.95299">
        <ele>2293.8</ele>
        <time>2018-05-12T07:35:26Z</time>
      </trkpt>
      <trkpt lat="45.16633" lon="5.95297">
        <ele>2295.1</ele>
        <time>2018-05-12T07:35:43Z</time>
      </trkpt>
      <trkpt lat="45.16626" lon="5.95297">
        <ele>2298.1</ele>
        <time>2018-05-12T07:35:49Z</time>
      </trkpt>
      <trkpt lat="45.16622" lon="5.95299">
        <ele>2299</ele>
        <time>2018-05-12T07:35:50Z</time>
      </trkpt>
      <trkpt lat="45.1662" lon="5.95299">
        <ele>2300.6</ele>
        <time>2018-05-12T07:35:55Z</time>
      </trkpt>
      <trkpt lat="45.1661" lon="5.95307">
        <ele>2308.1</ele>
        <time>2018-05-12T07:36:20Z</time>
      </trkpt>
      <trkpt lat="45.16603" lon="5.95309">
        <ele>2314.2</ele>
        <time>2018-05-12T07:36:24Z</time>
      </trkpt>
      <trkpt lat="45.16598" lon="5.95308">
        <ele>2313.4</ele>
        <time>2018-05-12T07:36:26Z</time>
      </trkpt>
      <trkpt lat="45.16592" lon="5.95309">
        <ele>2317.5</ele>
        <time>2018-05-12T07:36:33Z</time>
      </trkpt>
      <trkpt lat="45.16576" lon="5.95313">
        <ele>2324.1</ele>
        <time>2018-05-12T07:37:16Z</time>
      </trkpt>
      <trkpt lat="45.16569" lon="5.95317">
        <ele>2328.4</ele>
        <time>2018-05-12T07:37:22Z</time>
      </trkpt>
      <trkpt lat="45.1657" lon="5.95321">
        <ele>2330.5</ele>
        <time>2018-05-12T07:37:30Z</time>
      </trkpt>
      <trkpt lat="45.1657" lon="5.95325">
        <ele>2333.4</ele>
        <time>2018-05-12T07:37:43Z</time>
      </trkpt>
      <trkpt lat="45.16567" lon="5.95326">
        <ele>2334.7</ele>
        <time>2018-05-12T07:37:48Z</time>
      </trkpt>
      <trkpt lat="45.1656" lon="5.95317">
        <ele>2335.6</ele>
        <time>2018-05-12T07:37:59Z</time>
      </trkpt>
      <trkpt lat="45.16555" lon="5.95318">
        <ele>2337.6</ele>
        <time>2018-05-12T07:38:42Z</time>
      </trkpt>
      <trkpt lat="45.16556" lon="5.95326">
        <ele>2339.6</ele>
        <time>2018-05-12T07:38:51Z</time>
      </trkpt>
      <trkpt lat="45.1656" lon="5.95333">
        <ele>2342.1</ele>
        <time>2018-05-12T07:38:56Z</time>
      </trkpt>
      <trkpt lat="45.16554" lon="5.95332">
        <ele>2343.8</ele>
        <time>2018-05-12T07:39:13Z</time>
      </trkpt>
      <trkpt lat="45.16552" lon="5.95328">
        <ele>2345.6</ele>
        <time>2018-05-12T07:39:21Z</time>
      </trkpt>
      <trkpt lat="45.16553" lon="5.95333">
        <ele>2347.9</ele>
        <time>2018-05-12T07:39:33Z</time>
      </trkpt>
      <trkpt lat="45.16555" lon="5.9534">
        <ele>2350.7</ele>
        <time>2018-05-12T07:39:37Z</time>
      </trkpt>
      <trkpt lat="45.16558" lon="5.95352">
        <ele>2352</ele>
        <time>2018-05-12T07:39:47Z</time>
      </trkpt>
      <trkpt lat="45.16564" lon="5.95367">
        <ele>2355.9</ele>
        <time>2018-05-12T07:40:03Z</time>
      </trkpt>
      <trkpt lat="45.16569" lon="5.95371">
        <ele>2356.2</ele>
        <time>2018-05-12T07:40:09Z</time>
      </trkpt>
      <trkpt lat="45.16578" lon="5.95376">
        <ele>2360.4</ele>
        <time>2018-05-12T07:40:17Z</time>
      </trkpt>
      <trkpt lat="45.16579" lon="5.9538">
        <ele>2361.3</ele>
        <time>2018-05-12T07:40:21Z</time>
      </trkpt>
      <trkpt lat="45.16592" lon="5.95385">
        <ele>2359.8</ele>
        <time>2018-05-12T07:40:35Z</time>
      </trkpt>
      <trkpt lat="45.16604" lon="5.95397">
        <ele>2356.9</ele>
        <time>2018-05-12T07:40:57Z</time>
      </trkpt>
      <trkpt lat="45.16602" lon="5.954">
        <ele>2358.1</ele>
        <time>2018-05-12T07:41:16Z</time>
      </trkpt>
      <trkpt lat="45.16598" lon="5.95403">
        <ele>2359.3</ele>
        <time>2018-05-12T07:41:22Z</time>
      </trkpt>
      <trkpt lat="45.16591" lon="5.95403">
        <ele>2359.9</ele>
        <time>2018-05-12T07:41:30Z</time>
      </trkpt>
      <trkpt lat="45.1658" lon="5.95395">
        <ele>2363</ele>
        <time>2018-05-12T07:41:37Z</time>
      </trkpt>
      <trkpt lat="45.16567" lon="5.9539">
        <ele>2363</ele>
        <time>2018-05-12T07:42:04Z</time>
      </trkpt>
      <trkpt lat="45.1656" lon="5.95392">
        <ele>2363</ele>
        <time>2018-05-12T07:42:07Z</time>
      </trkpt>
      <trkpt lat="45.16558" lon="5.9539">
        <ele>2363</ele>
        <time>2018-05-12T07:42:09Z</time>
      </trkpt>
      <trkpt lat="45.16551" lon="5.95389">
        <ele>2363</ele>
        <time>2018-05-12T07:42:20Z</time>
      </trkpt>
      <trkpt lat="45.16532" lon="5.95397">
        <ele>2363</ele>
        <time>2018-05-12T07:42:47Z</time>
      </trkpt>
      <trkpt lat="45.1653" lon="5.95395">
        <ele>2363</ele>
        <time>2018-05-12T07:43:02Z</time>
      </trkpt>
      <trkpt lat="45.16527" lon="5.95397">
        <ele>2363</ele>
        <time>2018-05-12T07:52:57Z</time>
      </trkpt>
      <trkpt lat="45.16519" lon="5.95409">
        <ele>2366.1</ele>
        <time>2018-05-12T07:53:04Z</time>
      </trkpt>
      <trkpt lat="45.16511" lon="5.95424">
        <ele>2369.3</ele>
        <time>2018-05-12T07:53:15Z</time>
      </trkpt>
      <trkpt lat="45.16499" lon="5.95438">
        <ele>2369.7</ele>
        <time>2018-05-12T07:53:31Z</time>
      </trkpt>
      <trkpt lat="45.16497" lon="5.95443">
        <ele>2369.5</ele>
        <time>2018-05-12T07:53:35Z</time>
      </trkpt>
      <trkpt lat="45.16497" lon="5.95452">
        <ele>2370.6</ele>
        <time>2018-05-12T07:53:41Z</time>
      </trkpt>
      <trkpt lat="45.16495" lon="5.95456">
        <ele>2371</ele>
        <time>2018-05-12T07:53:44Z</time>
      </trkpt>
      <trkpt lat="45.16482" lon="5.9546">
        <ele>2370.9</ele>
        <time>2018-05-12T07:53:56Z</time>
      </trkpt>
      <trkpt lat="45.1648" lon="5.95465">
        <ele>2370.9</ele>
        <time>2018-05-12T07:54:00Z</time>
      </trkpt>
      <trkpt lat="45.16479" lon="5.95488">
        <ele>2370.2</ele>
        <time>2018-05-12T07:54:12Z</time>
      </trkpt>
      <trkpt lat="45.16475" lon="5.95499">
        <ele>2370.1</ele>
        <time>2018-05-12T07:54:24Z</time>
      </trkpt>
      <trkpt lat="45.16473" lon="5.95502">
        <ele>2370</ele>
        <time>2018-05-12T07:54:28Z</time>
      </trkpt>
      <trkpt lat="45.16461" lon="5.9551">
        <ele>2370.2</ele>
        <time>2018-05-12T07:54:35Z</time>
      </trkpt>
      <trkpt lat="45.16455" lon="5.95517">
        <ele>2370.3</ele>
        <time>2018-05-12T07:54:39Z</time>
      </trkpt>
      <trkpt lat="45.16451" lon="5.95525">
        <ele>2371</ele>
        <time>2018-05-12T07:54:44Z</time>
      </trkpt>
      <trkpt lat="45.1645" lon="5.95529">
        <ele>2371.5</ele>
        <time>2018-05-12T07:54:46Z</time>
      </trkpt>
      <trkpt lat="45.16455" lon="5.95541">
        <ele>2372.7</ele>
        <time>2018-05-12T07:54:56Z</time>
      </trkpt>
      <trkpt lat="45.16453" lon="5.9556">
        <ele>2373.5</ele>
        <time>2018-05-12T07:55:07Z</time>
      </trkpt>
      <trkpt lat="45.16454" lon="5.95635">
        <ele>2375.9</ele>
        <time>2018-05-12T07:55:48Z</time>
      </trkpt>
      <trkpt lat="45.16451" lon="5.9567">
        <ele>2378</ele>
        <time>2018-05-12T07:56:07Z</time>
      </trkpt>
      <trkpt lat="45.16446" lon="5.95686">
        <ele>2376</ele>
        <time>2018-05-12T07:56:16Z</time>
      </trkpt>
      <trkpt lat="45.1644" lon="5.95692">
        <ele>2373.8</ele>
        <time>2018-05-12T07:56:21Z</time>
      </trkpt>
      <trkpt lat="45.16435" lon="5.95705">
        <ele>2370.5</ele>
        <time>2018-05-12T07:56:29Z</time>
      </trkpt>
      <trkpt lat="45.16431" lon="5.95713">
        <ele>2369.8</ele>
        <time>2018-05-12T07:56:34Z</time>
      </trkpt>
      <trkpt lat="45.16426" lon="5.95725">
        <ele>2375.2</ele>
        <time>2018-05-12T07:56:41Z</time>
      </trkpt>
      <trkpt lat="45.16418" lon="5.95739">
        <ele>2382.9</ele>
        <time>2018-05-12T07:56:52Z</time>
      </trkpt>
      <trkpt lat="45.16416" lon="5.95741">
        <ele>2383.1</ele>
        <time>2018-05-12T07:57:06Z</time>
      </trkpt>
      <trkpt lat="45.16407" lon="5.95746">
        <ele>2385.4</ele>
        <time>2018-05-12T07:57:24Z</time>
      </trkpt>
      <trkpt lat="45.164" lon="5.95746">
        <ele>2384.1</ele>
        <time>2018-05-12T07:57:30Z</time>
      </trkpt>
      <trkpt lat="45.16387" lon="5.95749">
        <ele>2385.8</ele>
        <time>2018-05-12T07:57:35Z</time>
      </trkpt>
      <trkpt lat="45.1638" lon="5.95748">
        <ele>2385</ele>
        <time>2018-05-12T07:57:38Z</time>
      </trkpt>
      <trkpt lat="45.16372" lon="5.9575">
        <ele>2382.6</ele>
        <time>2018-05-12T07:57:41Z</time>
      </trkpt>
      <trkpt lat="45.16365" lon="5.95748">
        <ele>2380</ele>
        <time>2018-05-12T07:57:46Z</time>
      </trkpt>
      <trkpt lat="45.16362" lon="5.95746">
        <ele>2380.3</ele>
        <time>2018-05-12T07:57:50Z</time>
      </trkpt>
      <trkpt lat="45.1636" lon="5.95749">
        <ele>2380.6</ele>
        <time>2018-05-12T07:58:10Z</time>
      </trkpt>
      <trkpt lat="45.16361" lon="5.95764">
        <ele>2381.4</ele>
        <time>2018-05-12T07:59:00Z</time>
      </trkpt>
      <trkpt lat="45.16355" lon="5.95785">
        <ele>2386.3</ele>
        <time>2018-05-12T07:59:14Z</time>
      </trkpt>
      <trkpt lat="45.16348" lon="5.95816">
        <ele>2384.5</ele>
        <time>2018-05-12T07:59:40Z</time>
      </trkpt>
      <trkpt lat="45.1634" lon="5.9584">
        <ele>2385</ele>
        <time>2018-05-12T08:00:08Z</time>
      </trkpt>
      <trkpt lat="45.16339" lon="5.95863">
        <ele>2385.5</ele>
        <time>2018-05-12T08:00:29Z</time>
      </trkpt>
      <trkpt lat="45.16333" lon="5.95883">
        <ele>2385.4</ele>
        <time>2018-05-12T08:00:46Z</time>
      </trkpt>
      <trkpt lat="45.16333" lon="5.95912">
        <ele>2386.3</ele>
        <time>2018-05-12T08:01:06Z</time>
      </trkpt>
      <trkpt lat="45.16335" lon="5.95938">
        <ele>2389.3</ele>
        <time>2018-05-12T08:01:24Z</time>
      </trkpt>
      <trkpt lat="45.16343" lon="5.95984">
        <ele>2394</ele>
        <time>2018-05-12T08:01:53Z</time>
      </trkpt>
      <trkpt lat="45.16346" lon="5.95991">
        <ele>2394.3</ele>
        <time>2018-05-12T08:01:59Z</time>
      </trkpt>
      <trkpt lat="45.16348" lon="5.96008">
        <ele>2395</ele>
        <time>2018-05-12T08:02:10Z</time>
      </trkpt>
      <trkpt lat="45.16354" lon="5.96035">
        <ele>2398.9</ele>
        <time>2018-05-12T08:02:25Z</time>
      </trkpt>
      <trkpt lat="45.16354" lon="5.96041">
        <ele>2399.2</ele>
        <time>2018-05-12T08:02:27Z</time>
      </trkpt>
      <trkpt lat="45.1636" lon="5.96062">
        <ele>2400.7</ele>
        <time>2018-05-12T08:02:39Z</time>
      </trkpt>
      <trkpt lat="45.16365" lon="5.9608">
        <ele>2404.9</ele>
        <time>2018-05-12T08:02:50Z</time>
      </trkpt>
      <trkpt lat="45.16369" lon="5.96093">
        <ele>2409.8</ele>
        <time>2018-05-12T08:02:58Z</time>
      </trkpt>
      <trkpt lat="45.16371" lon="5.96102">
        <ele>2408.6</ele>
        <time>2018-05-12T08:03:03Z</time>
      </trkpt>
      <trkpt lat="45.16379" lon="5.96116">
        <ele>2397.6</ele>
        <time>2018-05-12T08:03:26Z</time>
      </trkpt>
      <trkpt lat="45.16382" lon="5.96125">
        <ele>2394.6</ele>
        <time>2018-05-12T08:03:32Z</time>
      </trkpt>
      <trkpt lat="45.16383" lon="5.96129">
        <ele>2396.3</ele>
        <time>2018-05-12T08:03:35Z</time>
      </trkpt>
      <trkpt lat="45.16385" lon="5.96133">
        <ele>2396.2</ele>
        <time>2018-05-12T08:03:38Z</time>
      </trkpt>
      <trkpt lat="45.16386" lon="5.96137">
        <ele>2399.1</ele>
        <time>2018-05-12T08:03:40Z</time>
      </trkpt>
      <trkpt lat="45.16388" lon="5.96141">
        <ele>2398.7</ele>
        <time>2018-05-12T08:03:42Z</time>
      </trkpt>
      <trkpt lat="45.16389" lon="5.96146">
        <ele>2402.8</ele>
        <time>2018-05-12T08:03:44Z</time>
      </trkpt>
      <trkpt lat="45.1639" lon="5.96168">
        <ele>2403.2</ele>
        <time>2018-05-12T08:03:53Z</time>
      </trkpt>
      <trkpt lat="45.16391" lon="5.96181">
        <ele>2399.9</ele>
        <time>2018-05-12T08:04:15Z</time>
      </trkpt>
      <trkpt lat="45.16392" lon="5.96185">
        <ele>2400.3</ele>
        <time>2018-05-12T08:04:20Z</time>
      </trkpt>
      <trkpt lat="45.16399" lon="5.96206">
        <ele>2387.5</ele>
        <time>2018-05-12T08:04:36Z</time>
      </trkpt>
      <trkpt lat="45.16401" lon="5.9621">
        <ele>2388.5</ele>
        <time>2018-05-12T08:04:39Z</time>
      </trkpt>
      <trkpt lat="45.16402" lon="5.96214">
        <ele>2386.7</ele>
        <time>2018-05-12T08:04:42Z</time>
      </trkpt>
      <trkpt lat="45.16402" lon="5.96222">
        <ele>2385.4</ele>
        <time>2018-05-12T08:04:46Z</time>
      </trkpt>
      <trkpt lat="45.16404" lon="5.96236">
        <ele>2388.9</ele>
        <time>2018-05-12T08:04:54Z</time>
      </trkpt>
      <trkpt lat="45.16405" lon="5.96245">
        <ele>2389.2</ele>
        <time>2018-05-12T08:05:00Z</time>
      </trkpt>
      <trkpt lat="45.16406" lon="5.96265">
        <ele>2388</ele>
        <time>2018-05-12T08:05:12Z</time>
      </trkpt>
      <trkpt lat="45.16407" lon="5.96269">
        <ele>2389.1</ele>
        <time>2018-05-12T08:05:14Z</time>
      </trkpt>
      <trkpt lat="45.16409" lon="5.96284">
        <ele>2388.5</ele>
        <time>2018-05-12T08:05:25Z</time>
      </trkpt>
      <trkpt lat="45.16413" lon="5.96292">
        <ele>2390.9</ele>
        <time>2018-05-12T08:05:31Z</time>
      </trkpt>
      <trkpt lat="45.16419" lon="5.9631">
        <ele>2391.2</ele>
        <time>2018-05-12T08:05:46Z</time>
      </trkpt>
      <trkpt lat="45.16422" lon="5.9632">
        <ele>2393</ele>
        <time>2018-05-12T08:05:55Z</time>
      </trkpt>
      <trkpt lat="45.16434" lon="5.9634">
        <ele>2394.6</ele>
        <time>2018-05-12T08:06:14Z</time>
      </trkpt>
      <trkpt lat="45.16435" lon="5.96345">
        <ele>2394.2</ele>
        <time>2018-05-12T08:06:18Z</time>
      </trkpt>
      <trkpt lat="45.16455" lon="5.96371">
        <ele>2396.2</ele>
        <time>2018-05-12T08:06:45Z</time>
      </trkpt>
      <trkpt lat="45.1646" lon="5.96388">
        <ele>2396.5</ele>
        <time>2018-05-12T08:07:04Z</time>
      </trkpt>
      <trkpt lat="45.16467" lon="5.96401">
        <ele>2397.9</ele>
        <time>2018-05-12T08:07:16Z</time>
      </trkpt>
      <trkpt lat="45.1647" lon="5.9641">
        <ele>2397.7</ele>
        <time>2018-05-12T08:07:23Z</time>
      </trkpt>
      <trkpt lat="45.16482" lon="5.96431">
        <ele>2400.1</ele>
        <time>2018-05-12T08:07:47Z</time>
      </trkpt>
      <trkpt lat="45.16484" lon="5.96444">
        <ele>2400.6</ele>
        <time>2018-05-12T08:08:01Z</time>
      </trkpt>
      <trkpt lat="45.1649" lon="5.96456">
        <ele>2401.6</ele>
        <time>2018-05-12T08:08:14Z</time>
      </trkpt>
      <trkpt lat="45.16493" lon="5.96472">
        <ele>2402.3</ele>
        <time>2018-05-12T08:08:30Z</time>
      </trkpt>
      <trkpt lat="45.16509" lon="5.96498">
        <ele>2404.4</ele>
        <time>2018-05-12T08:09:00Z</time>
      </trkpt>
      <trkpt lat="45.16512" lon="5.96506">
        <ele>2404.8</ele>
        <time>2018-05-12T08:09:04Z</time>
      </trkpt>
      <trkpt lat="45.16512" lon="5.96514">
        <ele>2405</ele>
        <time>2018-05-12T08:09:15Z</time>
      </trkpt>
      <trkpt lat="45.16514" lon="5.96518">
        <ele>2405.2</ele>
        <time>2018-05-12T08:09:20Z</time>
      </trkpt>
      <trkpt lat="45.16524" lon="5.96529">
        <ele>2406</ele>
        <time>2018-05-12T08:09:33Z</time>
      </trkpt>
      <trkpt lat="45.16526" lon="5.9655">
        <ele>2407.5</ele>
        <time>2018-05-12T08:09:49Z</time>
      </trkpt>
      <trkpt lat="45.16529" lon="5.9656">
        <ele>2408.4</ele>
        <time>2018-05-12T08:09:55Z</time>
      </trkpt>
      <trkpt lat="45.16532" lon="5.96566">
        <ele>2409.2</ele>
        <time>2018-05-12T08:10:03Z</time>
      </trkpt>
      <trkpt lat="45.1654" lon="5.96573">
        <ele>2410.3</ele>
        <time>2018-05-12T08:10:18Z</time>
      </trkpt>
      <trkpt lat="45.16539" lon="5.96582">
        <ele>2411</ele>
        <time>2018-05-12T08:10:29Z</time>
      </trkpt>
      <trkpt lat="45.16545" lon="5.966">
        <ele>2412.4</ele>
        <time>2018-05-12T08:10:46Z</time>
      </trkpt>
      <trkpt lat="45.16546" lon="5.96609">
        <ele>2412.9</ele>
        <time>2018-05-12T08:10:54Z</time>
      </trkpt>
      <trkpt lat="45.16551" lon="5.96621">
        <ele>2413.7</ele>
        <time>2018-05-12T08:11:09Z</time>
      </trkpt>
      <trkpt lat="45.16552" lon="5.96634">
        <ele>2414.5</ele>
        <time>2018-05-12T08:11:21Z</time>
      </trkpt>
      <trkpt lat="45.16556" lon="5.9664">
        <ele>2415.9</ele>
        <time>2018-05-12T08:11:29Z</time>
      </trkpt>
      <trkpt lat="45.16564" lon="5.96659">
        <ele>2418.8</ele>
        <time>2018-05-12T08:12:07Z</time>
      </trkpt>
      <trkpt lat="45.16569" lon="5.96679">
        <ele>2422.4</ele>
        <time>2018-05-12T08:12:25Z</time>
      </trkpt>
      <trkpt lat="45.16572" lon="5.96686">
        <ele>2423.4</ele>
        <time>2018-05-12T08:12:31Z</time>
      </trkpt>
      <trkpt lat="45.16576" lon="5.96711">
        <ele>2428.5</ele>
        <time>2018-05-12T08:12:50Z</time>
      </trkpt>
      <trkpt lat="45.16584" lon="5.96735">
        <ele>2433</ele>
        <time>2018-05-12T08:13:13Z</time>
      </trkpt>
      <trkpt lat="45.16587" lon="5.96759">
        <ele>2436.1</ele>
        <time>2018-05-12T08:13:33Z</time>
      </trkpt>
      <trkpt lat="45.16587" lon="5.96769">
        <ele>2437.2</ele>
        <time>2018-05-12T08:13:42Z</time>
      </trkpt>
      <trkpt lat="45.16592" lon="5.96794">
        <ele>2440</ele>
        <time>2018-05-12T08:14:04Z</time>
      </trkpt>
      <trkpt lat="45.16594" lon="5.96813">
        <ele>2441.5</ele>
        <time>2018-05-12T08:14:21Z</time>
      </trkpt>
      <trkpt lat="45.1659" lon="5.96849">
        <ele>2444.4</ele>
        <time>2018-05-12T08:14:47Z</time>
      </trkpt>
      <trkpt lat="45.16589" lon="5.96876">
        <ele>2446.2</ele>
        <time>2018-05-12T08:15:06Z</time>
      </trkpt>
      <trkpt lat="45.16586" lon="5.96883">
        <ele>2446.6</ele>
        <time>2018-05-12T08:15:13Z</time>
      </trkpt>
      <trkpt lat="45.16585" lon="5.96892">
        <ele>2447.3</ele>
        <time>2018-05-12T08:15:21Z</time>
      </trkpt>
      <trkpt lat="45.16584" lon="5.96918">
        <ele>2449.3</ele>
        <time>2018-05-12T08:15:45Z</time>
      </trkpt>
      <trkpt lat="45.16588" lon="5.96938">
        <ele>2451.4</ele>
        <time>2018-05-12T08:16:06Z</time>
      </trkpt>
      <trkpt lat="45.16587" lon="5.96952">
        <ele>2452.8</ele>
        <time>2018-05-12T08:16:18Z</time>
      </trkpt>
      <trkpt lat="45.1659" lon="5.96978">
        <ele>2456.4</ele>
        <time>2018-05-12T08:16:46Z</time>
      </trkpt>
      <trkpt lat="45.16588" lon="5.96994">
        <ele>2458.9</ele>
        <time>2018-05-12T08:17:00Z</time>
      </trkpt>
      <trkpt lat="45.16589" lon="5.97002">
        <ele>2460.3</ele>
        <time>2018-05-12T08:17:07Z</time>
      </trkpt>
      <trkpt lat="45.16586" lon="5.9701">
        <ele>2461.8</ele>
        <time>2018-05-12T08:17:16Z</time>
      </trkpt>
      <trkpt lat="45.16583" lon="5.97041">
        <ele>2467.8</ele>
        <time>2018-05-12T08:17:40Z</time>
      </trkpt>
      <trkpt lat="45.16584" lon="5.97081">
        <ele>2475.8</ele>
        <time>2018-05-12T08:18:23Z</time>
      </trkpt>
      <trkpt lat="45.16586" lon="5.97089">
        <ele>2477</ele>
        <time>2018-05-12T08:18:39Z</time>
      </trkpt>
      <trkpt lat="45.1659" lon="5.97137">
        <ele>2484.9</ele>
        <time>2018-05-12T08:19:48Z</time>
      </trkpt>
      <trkpt lat="45.16588" lon="5.97145">
        <ele>2485.7</ele>
        <time>2018-05-12T08:19:54Z</time>
      </trkpt>
      <trkpt lat="45.16587" lon="5.97159">
        <ele>2489.4</ele>
        <time>2018-05-12T08:20:12Z</time>
      </trkpt>
      <trkpt lat="45.16589" lon="5.97176">
        <ele>2492.5</ele>
        <time>2018-05-12T08:20:29Z</time>
      </trkpt>
      <trkpt lat="45.16587" lon="5.9722">
        <ele>2502.3</ele>
        <time>2018-05-12T08:21:27Z</time>
      </trkpt>
      <trkpt lat="45.16627" lon="5.97237">
        <ele>2489.3</ele>
        <time>2018-05-12T09:56:23Z</time>
      </trkpt>
      <trkpt lat="45.16638" lon="5.97237">
        <ele>2487.9</ele>
        <time>2018-05-12T09:56:24Z</time>
      </trkpt>
      <trkpt lat="45.16659" lon="5.97247">
        <ele>2489.4</ele>
        <time>2018-05-12T09:56:26Z</time>
      </trkpt>
      <trkpt lat="45.16669" lon="5.97255">
        <ele>2491.8</ele>
        <time>2018-05-12T09:56:29Z</time>
      </trkpt>
      <trkpt lat="45.16665" lon="5.97261">
        <ele>2492.1</ele>
        <time>2018-05-12T10:01:26Z</time>
      </trkpt>
      <trkpt lat="45.16671" lon="5.97275">
        <ele>2496.1</ele>
        <time>2018-05-12T10:02:40Z</time>
      </trkpt>
      <trkpt lat="45.16674" lon="5.97277">
        <ele>2496.4</ele>
        <time>2018-05-12T10:02:47Z</time>
      </trkpt>
      <trkpt lat="45.16674" lon="5.97282">
        <ele>2497.3</ele>
        <time>2018-05-12T10:02:54Z</time>
      </trkpt>
      <trkpt lat="45.16676" lon="5.97284">
        <ele>2498.5</ele>
        <time>2018-05-12T10:02:57Z</time>
      </trkpt>
      <trkpt lat="45.1668" lon="5.97284">
        <ele>2498.9</ele>
        <time>2018-05-12T10:03:01Z</time>
      </trkpt>
      <trkpt lat="45.1669" lon="5.973">
        <ele>2503</ele>
        <time>2018-05-12T10:03:38Z</time>
      </trkpt>
      <trkpt lat="45.16701" lon="5.9731">
        <ele>2508.6</ele>
        <time>2018-05-12T10:03:54Z</time>
      </trkpt>
      <trkpt lat="45.16702" lon="5.97319">
        <ele>2510.3</ele>
        <time>2018-05-12T10:04:06Z</time>
      </trkpt>
      <trkpt lat="45.16706" lon="5.97326">
        <ele>2514.2</ele>
        <time>2018-05-12T10:04:15Z</time>
      </trkpt>
      <trkpt lat="45.16709" lon="5.97327">
        <ele>2514.1</ele>
        <time>2018-05-12T10:04:19Z</time>
      </trkpt>
      <trkpt lat="45.16708" lon="5.97331">
        <ele>2515.2</ele>
        <time>2018-05-12T10:04:22Z</time>
      </trkpt>
      <trkpt lat="45.1671" lon="5.97334">
        <ele>2517.2</ele>
        <time>2018-05-12T10:04:29Z</time>
      </trkpt>
      <trkpt lat="45.16712" lon="5.97338">
        <ele>2517.1</ele>
        <time>2018-05-12T10:04:32Z</time>
      </trkpt>
      <trkpt lat="45.16726" lon="5.97357">
        <ele>2527.3</ele>
        <time>2018-05-12T10:05:01Z</time>
      </trkpt>
      <trkpt lat="45.16732" lon="5.97362">
        <ele>2530.3</ele>
        <time>2018-05-12T10:05:21Z</time>
      </trkpt>
      <trkpt lat="45.1674" lon="5.9738">
        <ele>2535.9</ele>
        <time>2018-05-12T10:05:54Z</time>
      </trkpt>
      <trkpt lat="45.16751" lon="5.97395">
        <ele>2540.3</ele>
        <time>2018-05-12T10:06:21Z</time>
      </trkpt>
      <trkpt lat="45.16753" lon="5.97407">
        <ele>2541.8</ele>
        <time>2018-05-12T10:06:36Z</time>
      </trkpt>
      <trkpt lat="45.16759" lon="5.9741">
        <ele>2544</ele>
        <time>2018-05-12T10:06:49Z</time>
      </trkpt>
      <trkpt lat="45.16763" lon="5.97416">
        <ele>2545.5</ele>
        <time>2018-05-12T10:07:02Z</time>
      </trkpt>
      <trkpt lat="45.16768" lon="5.97427">
        <ele>2547.8</ele>
        <time>2018-05-12T10:07:18Z</time>
      </trkpt>
      <trkpt lat="45.16776" lon="5.97435">
        <ele>2548.8</ele>
        <time>2018-05-12T10:07:29Z</time>
      </trkpt>
      <trkpt lat="45.16779" lon="5.97435">
        <ele>2549</ele>
        <time>2018-05-12T10:07:32Z</time>
      </trkpt>
      <trkpt lat="45.16787" lon="5.97439">
        <ele>2549.9</ele>
        <time>2018-05-12T10:07:54Z</time>
      </trkpt>
      <trkpt lat="45.1679" lon="5.97443">
        <ele>2550.3</ele>
        <time>2018-05-12T10:07:56Z</time>
      </trkpt>
      <trkpt lat="45.16796" lon="5.97445">
        <ele>2551.4</ele>
        <time>2018-05-12T10:08:11Z</time>
      </trkpt>
      <trkpt lat="45.16797" lon="5.97448">
        <ele>2552</ele>
        <time>2018-05-12T10:08:18Z</time>
      </trkpt>
      <trkpt lat="45.16798" lon="5.97457">
        <ele>2553</ele>
        <time>2018-05-12T10:08:33Z</time>
      </trkpt>
      <trkpt lat="45.16806" lon="5.97475">
        <ele>2556.2</ele>
        <time>2018-05-12T10:09:09Z</time>
      </trkpt>
      <trkpt lat="45.16803" lon="5.97482">
        <ele>2557.3</ele>
        <time>2018-05-12T10:09:21Z</time>
      </trkpt>
      <trkpt lat="45.16813" lon="5.97493">
        <ele>2559.5</ele>
        <time>2018-05-12T10:09:45Z</time>
      </trkpt>
      <trkpt lat="45.16817" lon="5.97499">
        <ele>2561.1</ele>
        <time>2018-05-12T10:10:08Z</time>
      </trkpt>
      <trkpt lat="45.1682" lon="5.97516">
        <ele>2563.3</ele>
        <time>2018-05-12T10:10:33Z</time>
      </trkpt>
      <trkpt lat="45.16835" lon="5.97522">
        <ele>2566.6</ele>
        <time>2018-05-12T10:11:03Z</time>
      </trkpt>
      <trkpt lat="45.16834" lon="5.97539">
        <ele>2568.6</ele>
        <time>2018-05-12T10:11:37Z</time>
      </trkpt>
      <trkpt lat="45.16829" lon="5.97545">
        <ele>2570.3</ele>
        <time>2018-05-12T10:11:42Z</time>
      </trkpt>
      <trkpt lat="45.16826" lon="5.97556">
        <ele>2572.3</ele>
        <time>2018-05-12T10:12:04Z</time>
      </trkpt>
      <trkpt lat="45.16827" lon="5.9756">
        <ele>2573</ele>
        <time>2018-05-12T10:12:14Z</time>
      </trkpt>
      <trkpt lat="45.16842" lon="5.97564">
        <ele>2576.4</ele>
        <time>2018-05-12T10:12:32Z</time>
      </trkpt>
      <trkpt lat="45.16853" lon="5.97558">
        <ele>2579.7</ele>
        <time>2018-05-12T10:13:03Z</time>
      </trkpt>
      <trkpt lat="45.16856" lon="5.97558">
        <ele>2580.6</ele>
        <time>2018-05-12T10:13:15Z</time>
      </trkpt>
      <trkpt lat="45.16858" lon="5.9756">
        <ele>2581.6</ele>
        <time>2018-05-12T10:13:29Z</time>
      </trkpt>
      <trkpt lat="45.1686" lon="5.97587">
        <ele>2588.4</ele>
        <time>2018-05-12T10:14:13Z</time>
      </trkpt>
      <trkpt lat="45.16862" lon="5.97595">
        <ele>2591.2</ele>
        <time>2018-05-12T10:14:22Z</time>
      </trkpt>
      <trkpt lat="45.16857" lon="5.97626">
        <ele>2592.7</ele>
        <time>2018-05-12T10:15:08Z</time>
      </trkpt>
      <trkpt lat="45.16853" lon="5.97634">
        <ele>2593.3</ele>
        <time>2018-05-12T10:15:18Z</time>
      </trkpt>
      <trkpt lat="45.16856" lon="5.97635">
        <ele>2595.1</ele>
        <time>2018-05-12T10:15:38Z</time>
      </trkpt>
      <trkpt lat="45.16873" lon="5.97631">
        <ele>2599.5</ele>
        <time>2018-05-12T10:16:07Z</time>
      </trkpt>
      <trkpt lat="45.16875" lon="5.97633">
        <ele>2599.2</ele>
        <time>2018-05-12T10:16:16Z</time>
      </trkpt>
      <trkpt lat="45.16873" lon="5.97641">
        <ele>2600.2</ele>
        <time>2018-05-12T10:16:29Z</time>
      </trkpt>
      <trkpt lat="45.16867" lon="5.97652">
        <ele>2598.8</ele>
        <time>2018-05-12T10:16:45Z</time>
      </trkpt>
      <trkpt lat="45.16865" lon="5.9766">
        <ele>2599.9</ele>
        <time>2018-05-12T10:16:54Z</time>
      </trkpt>
      <trkpt lat="45.16861" lon="5.97666">
        <ele>2601.1</ele>
        <time>2018-05-12T10:17:00Z</time>
      </trkpt>
      <trkpt lat="45.16858" lon="5.97668">
        <ele>2600.3</ele>
        <time>2018-05-12T10:17:04Z</time>
      </trkpt>
      <trkpt lat="45.16855" lon="5.97669">
        <ele>2601.2</ele>
        <time>2018-05-12T10:17:13Z</time>
      </trkpt>
      <trkpt lat="45.16857" lon="5.97672">
        <ele>2602.2</ele>
        <time>2018-05-12T10:17:26Z</time>
      </trkpt>
      <trkpt lat="45.16878" lon="5.97677">
        <ele>2610.7</ele>
        <time>2018-05-12T10:17:46Z</time>
      </trkpt>
      <trkpt lat="45.16886" lon="5.97675">
        <ele>2615.5</ele>
        <time>2018-05-12T10:17:51Z</time>
      </trkpt>
      <trkpt lat="45.16894" lon="5.97668">
        <ele>2621.3</ele>
        <time>2018-05-12T10:18:07Z</time>
      </trkpt>
      <trkpt lat="45.16892" lon="5.97672">
        <ele>2619.7</ele>
        <time>2018-05-12T10:18:25Z</time>
      </trkpt>
      <trkpt lat="45.16886" lon="5.97676">
        <ele>2616.7</ele>
        <time>2018-05-12T10:18:32Z</time>
      </trkpt>
      <trkpt lat="45.16881" lon="5.97688">
        <ele>2612.9</ele>
        <time>2018-05-12T10:18:46Z</time>
      </trkpt>
      <trkpt lat="45.16882" lon="5.97692">
        <ele>2617.2</ele>
        <time>2018-05-12T10:18:53Z</time>
      </trkpt>
      <trkpt lat="45.16915" lon="5.97706">
        <ele>2629.7</ele>
        <time>2018-05-12T10:22:47Z</time>
      </trkpt>
      <trkpt lat="45.16922" lon="5.97709">
        <ele>2634.7</ele>
        <time>2018-05-12T10:24:16Z</time>
      </trkpt>
      <trkpt lat="45.16914" lon="5.97684">
        <ele>2628.1</ele>
        <time>2018-05-12T10:24:30Z</time>
      </trkpt>
      <trkpt lat="45.16911" lon="5.97685">
        <ele>2627.5</ele>
        <time>2018-05-12T10:24:31Z</time>
      </trkpt>
      <trkpt lat="45.16915" lon="5.97702">
        <ele>2632.2</ele>
        <time>2018-05-12T10:24:32Z</time>
      </trkpt>
      <trkpt lat="45.16918" lon="5.97708">
        <ele>2631.3</ele>
        <time>2018-05-12T10:24:40Z</time>
      </trkpt>
      <trkpt lat="45.16914" lon="5.97714">
        <ele>2630</ele>
        <time>2018-05-12T10:30:57Z</time>
      </trkpt>
      <trkpt lat="45.16913" lon="5.97719">
        <ele>2629.4</ele>
        <time>2018-05-12T10:32:35Z</time>
      </trkpt>
      <trkpt lat="45.16912" lon="5.97732">
        <ele>2630.8</ele>
        <time>2018-05-12T10:35:35Z</time>
      </trkpt>
      <trkpt lat="45.16915" lon="5.97729">
        <ele>2631.7</ele>
        <time>2018-05-12T10:36:08Z</time>
      </trkpt>
      <trkpt lat="45.16912" lon="5.9773">
        <ele>2632.4</ele>
        <time>2018-05-12T10:36:56Z</time>
      </trkpt>
      <trkpt lat="45.16912" lon="5.97725">
        <ele>2633.3</ele>
        <time>2018-05-12T10:36:58Z</time>
      </trkpt>
      <trkpt lat="45.16915" lon="5.97725">
        <ele>2633.9</ele>
        <time>2018-05-12T10:37:45Z</time>
      </trkpt>
      <trkpt lat="45.1692" lon="5.9772">
        <ele>2635.1</ele>
        <time>2018-05-12T10:38:43Z</time>
      </trkpt>
      <trkpt lat="45.16928" lon="5.97721">
        <ele>2636</ele>
        <time>2018-05-12T10:39:48Z</time>
      </trkpt>
      <trkpt lat="45.16935" lon="5.97738">
        <ele>2636.9</ele>
        <time>2018-05-12T10:41:06Z</time>
      </trkpt>
      <trkpt lat="45.16952" lon="5.97756">
        <ele>2636.1</ele>
        <time>2018-05-12T10:41:14Z</time>
      </trkpt>
      <trkpt lat="45.16958" lon="5.97768">
        <ele>2635.7</ele>
        <time>2018-05-12T10:41:26Z</time>
      </trkpt>
      <trkpt lat="45.16961" lon="5.97779">
        <ele>2635.2</ele>
        <time>2018-05-12T10:41:32Z</time>
      </trkpt>
      <trkpt lat="45.16961" lon="5.97783">
        <ele>2635.3</ele>
        <time>2018-05-12T10:41:34Z</time>
      </trkpt>
      <trkpt lat="45.16969" lon="5.97792">
        <ele>2635.5</ele>
        <time>2018-05-12T10:41:44Z</time>
      </trkpt>
      <trkpt lat="45.16983" lon="5.97831">
        <ele>2633.3</ele>
        <time>2018-05-12T10:42:11Z</time>
      </trkpt>
      <trkpt lat="45.16988" lon="5.97841">
        <ele>2631.5</ele>
        <time>2018-05-12T10:42:15Z</time>
      </trkpt>
      <trkpt lat="45.16989" lon="5.97858">
        <ele>2629.8</ele>
        <time>2018-05-12T10:42:22Z</time>
      </trkpt>
      <trkpt lat="45.16996" lon="5.97858">
        <ele>2628.1</ele>
        <time>2018-05-12T10:42:59Z</time>
      </trkpt>
      <trkpt lat="45.17001" lon="5.97868">
        <ele>2626.1</ele>
        <time>2018-05-12T10:43:03Z</time>
      </trkpt>
      <trkpt lat="45.17004" lon="5.97892">
        <ele>2621.3</ele>
        <time>2018-05-12T10:43:06Z</time>
      </trkpt>
      <trkpt lat="45.17008" lon="5.97904">
        <ele>2619.5</ele>
        <time>2018-05-12T10:43:07Z</time>
      </trkpt>
      <trkpt lat="45.17009" lon="5.97926">
        <ele>2616</ele>
        <time>2018-05-12T10:43:09Z</time>
      </trkpt>
      <trkpt lat="45.17011" lon="5.9795">
        <ele>2609.2</ele>
        <time>2018-05-12T10:43:11Z</time>
      </trkpt>
      <trkpt lat="45.17019" lon="5.97997">
        <ele>2592.9</ele>
        <time>2018-05-12T10:43:15Z</time>
      </trkpt>
      <trkpt lat="45.1702" lon="5.98008">
        <ele>2589.5</ele>
        <time>2018-05-12T10:43:16Z</time>
      </trkpt>
      <trkpt lat="45.1702" lon="5.98034">
        <ele>2585.3</ele>
        <time>2018-05-12T10:43:18Z</time>
      </trkpt>
      <trkpt lat="45.17027" lon="5.98078">
        <ele>2574.4</ele>
        <time>2018-05-12T10:43:24Z</time>
      </trkpt>
      <trkpt lat="45.17032" lon="5.98108">
        <ele>2569.2</ele>
        <time>2018-05-12T10:43:46Z</time>
      </trkpt>
      <trkpt lat="45.17041" lon="5.98134">
        <ele>2563.4</ele>
        <time>2018-05-12T10:43:49Z</time>
      </trkpt>
      <trkpt lat="45.17049" lon="5.98163">
        <ele>2556.4</ele>
        <time>2018-05-12T10:43:52Z</time>
      </trkpt>
      <trkpt lat="45.17068" lon="5.9821">
        <ele>2543</ele>
        <time>2018-05-12T10:43:56Z</time>
      </trkpt>
      <trkpt lat="45.17083" lon="5.98232">
        <ele>2535.1</ele>
        <time>2018-05-12T10:43:58Z</time>
      </trkpt>
      <trkpt lat="45.17094" lon="5.98259">
        <ele>2528.3</ele>
        <time>2018-05-12T10:44:00Z</time>
      </trkpt>
      <trkpt lat="45.17117" lon="5.98292">
        <ele>2519.1</ele>
        <time>2018-05-12T10:44:03Z</time>
      </trkpt>
      <trkpt lat="45.17146" lon="5.98344">
        <ele>2508.8</ele>
        <time>2018-05-12T10:44:08Z</time>
      </trkpt>
      <trkpt lat="45.17149" lon="5.98346">
        <ele>2508.6</ele>
        <time>2018-05-12T10:44:09Z</time>
      </trkpt>
      <trkpt lat="45.17154" lon="5.98335">
        <ele>2509.1</ele>
        <time>2018-05-12T10:44:11Z</time>
      </trkpt>
      <trkpt lat="45.17154" lon="5.9833">
        <ele>2510.6</ele>
        <time>2018-05-12T10:44:12Z</time>
      </trkpt>
      <trkpt lat="45.17188" lon="5.98348">
        <ele>2500.7</ele>
        <time>2018-05-12T10:47:21Z</time>
      </trkpt>
      <trkpt lat="45.17205" lon="5.98354">
        <ele>2495.3</ele>
        <time>2018-05-12T10:47:23Z</time>
      </trkpt>
      <trkpt lat="45.17266" lon="5.98356">
        <ele>2465.4</ele>
        <time>2018-05-12T10:47:31Z</time>
      </trkpt>
      <trkpt lat="45.17276" lon="5.98353">
        <ele>2457.9</ele>
        <time>2018-05-12T10:47:33Z</time>
      </trkpt>
      <trkpt lat="45.17285" lon="5.98335">
        <ele>2451.8</ele>
        <time>2018-05-12T10:47:45Z</time>
      </trkpt>
      <trkpt lat="45.17285" lon="5.98331">
        <ele>2452</ele>
        <time>2018-05-12T10:47:46Z</time>
      </trkpt>
      <trkpt lat="45.17288" lon="5.98319">
        <ele>2450.5</ele>
        <time>2018-05-12T10:48:01Z</time>
      </trkpt>
      <trkpt lat="45.17289" lon="5.98293">
        <ele>2452.1</ele>
        <time>2018-05-12T10:48:11Z</time>
      </trkpt>
      <trkpt lat="45.17284" lon="5.98268">
        <ele>2458.4</ele>
        <time>2018-05-12T10:48:25Z</time>
      </trkpt>
      <trkpt lat="45.17284" lon="5.98258">
        <ele>2459.5</ele>
        <time>2018-05-12T10:48:27Z</time>
      </trkpt>
      <trkpt lat="45.17287" lon="5.9825">
        <ele>2456.3</ele>
        <time>2018-05-12T10:48:29Z</time>
      </trkpt>
      <trkpt lat="45.1729" lon="5.98241">
        <ele>2457.3</ele>
        <time>2018-05-12T10:48:31Z</time>
      </trkpt>
      <trkpt lat="45.17291" lon="5.98237">
        <ele>2455.7</ele>
        <time>2018-05-12T10:48:32Z</time>
      </trkpt>
      <trkpt lat="45.17293" lon="5.98229">
        <ele>2456.5</ele>
        <time>2018-05-12T10:48:34Z</time>
      </trkpt>
      <trkpt lat="45.17294" lon="5.98223">
        <ele>2454.8</ele>
        <time>2018-05-12T10:48:35Z</time>
      </trkpt>
      <trkpt lat="45.17296" lon="5.98219">
        <ele>2455.2</ele>
        <time>2018-05-12T10:48:36Z</time>
      </trkpt>
      <trkpt lat="45.17301" lon="5.9821">
        <ele>2451.4</ele>
        <time>2018-05-12T10:48:39Z</time>
      </trkpt>
      <trkpt lat="45.17307" lon="5.98205">
        <ele>2446.8</ele>
        <time>2018-05-12T10:48:50Z</time>
      </trkpt>
      <trkpt lat="45.1731" lon="5.98207">
        <ele>2444.4</ele>
        <time>2018-05-12T10:48:51Z</time>
      </trkpt>
      <trkpt lat="45.17314" lon="5.98205">
        <ele>2442.1</ele>
        <time>2018-05-12T10:48:52Z</time>
      </trkpt>
      <trkpt lat="45.17321" lon="5.98209">
        <ele>2435.9</ele>
        <time>2018-05-12T10:48:54Z</time>
      </trkpt>
      <trkpt lat="45.17339" lon="5.98209">
        <ele>2422.8</ele>
        <time>2018-05-12T10:49:00Z</time>
      </trkpt>
      <trkpt lat="45.17353" lon="5.98204">
        <ele>2415.3</ele>
        <time>2018-05-12T10:50:21Z</time>
      </trkpt>
      <trkpt lat="45.1736" lon="5.98199">
        <ele>2409.4</ele>
        <time>2018-05-12T10:50:31Z</time>
      </trkpt>
      <trkpt lat="45.17362" lon="5.98197">
        <ele>2409.8</ele>
        <time>2018-05-12T10:50:32Z</time>
      </trkpt>
      <trkpt lat="45.17367" lon="5.98194">
        <ele>2405.9</ele>
        <time>2018-05-12T10:50:33Z</time>
      </trkpt>
      <trkpt lat="45.17376" lon="5.98186">
        <ele>2401.3</ele>
        <time>2018-05-12T10:50:35Z</time>
      </trkpt>
      <trkpt lat="45.1739" lon="5.98174">
        <ele>2396.2</ele>
        <time>2018-05-12T10:50:39Z</time>
      </trkpt>
      <trkpt lat="45.17393" lon="5.98172">
        <ele>2393</ele>
        <time>2018-05-12T10:50:40Z</time>
      </trkpt>
      <trkpt lat="45.1743" lon="5.98142">
        <ele>2382.1</ele>
        <time>2018-05-12T10:50:49Z</time>
      </trkpt>
      <trkpt lat="45.17447" lon="5.98125">
        <ele>2377.3</ele>
        <time>2018-05-12T10:50:54Z</time>
      </trkpt>
      <trkpt lat="45.17489" lon="5.98065">
        <ele>2347.9</ele>
        <time>2018-05-12T10:51:10Z</time>
      </trkpt>
      <trkpt lat="45.17505" lon="5.98055">
        <ele>2338.3</ele>
        <time>2018-05-12T10:51:47Z</time>
      </trkpt>
      <trkpt lat="45.17528" lon="5.98049">
        <ele>2324.2</ele>
        <time>2018-05-12T10:51:51Z</time>
      </trkpt>
      <trkpt lat="45.17561" lon="5.98036">
        <ele>2308.5</ele>
        <time>2018-05-12T10:51:55Z</time>
      </trkpt>
      <trkpt lat="45.17601" lon="5.98">
        <ele>2294.6</ele>
        <time>2018-05-12T10:52:00Z</time>
      </trkpt>
      <trkpt lat="45.1762" lon="5.97949">
        <ele>2281.1</ele>
        <time>2018-05-12T10:52:06Z</time>
      </trkpt>
      <trkpt lat="45.17622" lon="5.9793">
        <ele>2277.4</ele>
        <time>2018-05-12T10:52:08Z</time>
      </trkpt>
      <trkpt lat="45.17627" lon="5.97912">
        <ele>2274.9</ele>
        <time>2018-05-12T10:52:10Z</time>
      </trkpt>
      <trkpt lat="45.17665" lon="5.97806">
        <ele>2259.9</ele>
        <time>2018-05-12T10:52:23Z</time>
      </trkpt>
      <trkpt lat="45.17679" lon="5.97773">
        <ele>2255.6</ele>
        <time>2018-05-12T10:52:31Z</time>
      </trkpt>
      <trkpt lat="45.17683" lon="5.97758">
        <ele>2253.5</ele>
        <time>2018-05-12T10:52:36Z</time>
      </trkpt>
      <trkpt lat="45.1768" lon="5.97671">
        <ele>2245.1</ele>
        <time>2018-05-12T10:54:36Z</time>
      </trkpt>
      <trkpt lat="45.1768" lon="5.97666">
        <ele>2246.4</ele>
        <time>2018-05-12T10:54:37Z</time>
      </trkpt>
      <trkpt lat="45.1768" lon="5.9764">
        <ele>2245</ele>
        <time>2018-05-12T10:54:43Z</time>
      </trkpt>
      <trkpt lat="45.17681" lon="5.97636">
        <ele>2242.9</ele>
        <time>2018-05-12T10:54:44Z</time>
      </trkpt>
      <trkpt lat="45.17683" lon="5.97621">
        <ele>2241.7</ele>
        <time>2018-05-12T10:54:47Z</time>
      </trkpt>
      <trkpt lat="45.17684" lon="5.97616">
        <ele>2239.2</ele>
        <time>2018-05-12T10:54:48Z</time>
      </trkpt>
      <trkpt lat="45.17686" lon="5.97605">
        <ele>2238.2</ele>
        <time>2018-05-12T10:54:50Z</time>
      </trkpt>
      <trkpt lat="45.17687" lon="5.97599">
        <ele>2234.7</ele>
        <time>2018-05-12T10:54:51Z</time>
      </trkpt>
      <trkpt lat="45.17689" lon="5.9758">
        <ele>2231.8</ele>
        <time>2018-05-12T10:54:55Z</time>
      </trkpt>
      <trkpt lat="45.1769" lon="5.97575">
        <ele>2227.7</ele>
        <time>2018-05-12T10:54:56Z</time>
      </trkpt>
      <trkpt lat="45.17689" lon="5.97569">
        <ele>2229.6</ele>
        <time>2018-05-12T10:54:57Z</time>
      </trkpt>
      <trkpt lat="45.17687" lon="5.97553">
        <ele>2226.3</ele>
        <time>2018-05-12T10:55:00Z</time>
      </trkpt>
      <trkpt lat="45.17686" lon="5.97547">
        <ele>2227.9</ele>
        <time>2018-05-12T10:55:01Z</time>
      </trkpt>
      <trkpt lat="45.17686" lon="5.97539">
        <ele>2226.1</ele>
        <time>2018-05-12T10:55:03Z</time>
      </trkpt>
      <trkpt lat="45.17687" lon="5.97535">
        <ele>2222.7</ele>
        <time>2018-05-12T10:55:04Z</time>
      </trkpt>
      <trkpt lat="45.17687" lon="5.97524">
        <ele>2220.7</ele>
        <time>2018-05-12T10:55:06Z</time>
      </trkpt>
      <trkpt lat="45.17686" lon="5.97519">
        <ele>2221.1</ele>
        <time>2018-05-12T10:55:07Z</time>
      </trkpt>
      <trkpt lat="45.17684" lon="5.9751">
        <ele>2218.6</ele>
        <time>2018-05-12T10:55:09Z</time>
      </trkpt>
      <trkpt lat="45.17683" lon="5.97503">
        <ele>2219.9</ele>
        <time>2018-05-12T10:55:11Z</time>
      </trkpt>
      <trkpt lat="45.17681" lon="5.97493">
        <ele>2215.4</ele>
        <time>2018-05-12T10:55:15Z</time>
      </trkpt>
      <trkpt lat="45.1768" lon="5.97485">
        <ele>2216.6</ele>
        <time>2018-05-12T10:55:17Z</time>
      </trkpt>
      <trkpt lat="45.17679" lon="5.9748">
        <ele>2213.5</ele>
        <time>2018-05-12T10:55:18Z</time>
      </trkpt>
      <trkpt lat="45.17678" lon="5.97468">
        <ele>2210.2</ele>
        <time>2018-05-12T10:55:20Z</time>
      </trkpt>
      <trkpt lat="45.17678" lon="5.97446">
        <ele>2200.7</ele>
        <time>2018-05-12T10:55:24Z</time>
      </trkpt>
      <trkpt lat="45.17678" lon="5.9743">
        <ele>2197.4</ele>
        <time>2018-05-12T10:55:28Z</time>
      </trkpt>
      <trkpt lat="45.17684" lon="5.97409">
        <ele>2189.9</ele>
        <time>2018-05-12T10:55:34Z</time>
      </trkpt>
      <trkpt lat="45.17686" lon="5.97386">
        <ele>2186.8</ele>
        <time>2018-05-12T10:55:39Z</time>
      </trkpt>
      <trkpt lat="45.17687" lon="5.97379">
        <ele>2184</ele>
        <time>2018-05-12T10:55:41Z</time>
      </trkpt>
      <trkpt lat="45.17694" lon="5.97366">
        <ele>2178.6</ele>
        <time>2018-05-12T10:55:45Z</time>
      </trkpt>
      <trkpt lat="45.177" lon="5.97333">
        <ele>2169.4</ele>
        <time>2018-05-12T10:55:52Z</time>
      </trkpt>
      <trkpt lat="45.17696" lon="5.97306">
        <ele>2166.5</ele>
        <time>2018-05-12T10:55:59Z</time>
      </trkpt>
      <trkpt lat="45.17687" lon="5.97272">
        <ele>2166.3</ele>
        <time>2018-05-12T10:56:10Z</time>
      </trkpt>
      <trkpt lat="45.17687" lon="5.97252">
        <ele>2164.3</ele>
        <time>2018-05-12T10:56:15Z</time>
      </trkpt>
      <trkpt lat="45.17686" lon="5.97247">
        <ele>2165.2</ele>
        <time>2018-05-12T10:56:16Z</time>
      </trkpt>
      <trkpt lat="45.17681" lon="5.97203">
        <ele>2163.5</ele>
        <time>2018-05-12T10:56:30Z</time>
      </trkpt>
      <trkpt lat="45.17681" lon="5.97147">
        <ele>2156.4</ele>
        <time>2018-05-12T10:56:43Z</time>
      </trkpt>
      <trkpt lat="45.1768" lon="5.97132">
        <ele>2157.1</ele>
        <time>2018-05-12T10:56:45Z</time>
      </trkpt>
      <trkpt lat="45.17681" lon="5.97122">
        <ele>2156.9</ele>
        <time>2018-05-12T10:56:46Z</time>
      </trkpt>
      <trkpt lat="45.17689" lon="5.97088">
        <ele>2156</ele>
        <time>2018-05-12T10:56:50Z</time>
      </trkpt>
      <trkpt lat="45.17704" lon="5.97045">
        <ele>2157.4</ele>
        <time>2018-05-12T10:56:55Z</time>
      </trkpt>
      <trkpt lat="45.17714" lon="5.97031">
        <ele>2157.5</ele>
        <time>2018-05-12T10:56:58Z</time>
      </trkpt>
      <trkpt lat="45.17723" lon="5.97023">
        <ele>2157.1</ele>
        <time>2018-05-12T10:57:02Z</time>
      </trkpt>
      <trkpt lat="45.17733" lon="5.97024">
        <ele>2156.9</ele>
        <time>2018-05-12T11:04:28Z</time>
      </trkpt>
      <trkpt lat="45.1774" lon="5.97018">
        <ele>2156.9</ele>
        <time>2018-05-12T11:04:35Z</time>
      </trkpt>
      <trkpt lat="45.17736" lon="5.97009">
        <ele>2157.4</ele>
        <time>2018-05-12T11:07:32Z</time>
      </trkpt>
      <trkpt lat="45.17731" lon="5.96989">
        <ele>2160.7</ele>
        <time>2018-05-12T11:07:58Z</time>
      </trkpt>
      <trkpt lat="45.17734" lon="5.96969">
        <ele>2162.8</ele>
        <time>2018-05-12T11:08:13Z</time>
      </trkpt>
      <trkpt lat="45.17728" lon="5.96931">
        <ele>2167.5</ele>
        <time>2018-05-12T11:09:12Z</time>
      </trkpt>
      <trkpt lat="45.17713" lon="5.96899">
        <ele>2175.5</ele>
        <time>2018-05-12T11:10:07Z</time>
      </trkpt>
      <trkpt lat="45.17711" lon="5.96877">
        <ele>2177.7</ele>
        <time>2018-05-12T11:10:29Z</time>
      </trkpt>
      <trkpt lat="45.17708" lon="5.96868">
        <ele>2179.8</ele>
        <time>2018-05-12T11:10:43Z</time>
      </trkpt>
      <trkpt lat="45.17704" lon="5.96863">
        <ele>2182.6</ele>
        <time>2018-05-12T11:10:57Z</time>
      </trkpt>
      <trkpt lat="45.177" lon="5.96855">
        <ele>2184.7</ele>
        <time>2018-05-12T11:11:10Z</time>
      </trkpt>
      <trkpt lat="45.177" lon="5.96851">
        <ele>2185.1</ele>
        <time>2018-05-12T11:11:17Z</time>
      </trkpt>
      <trkpt lat="45.17703" lon="5.9685">
        <ele>2183.8</ele>
        <time>2018-05-12T11:11:19Z</time>
      </trkpt>
      <trkpt lat="45.17702" lon="5.96845">
        <ele>2184.7</ele>
        <time>2018-05-12T11:11:23Z</time>
      </trkpt>
      <trkpt lat="45.17694" lon="5.96827">
        <ele>2190.5</ele>
        <time>2018-05-12T11:11:43Z</time>
      </trkpt>
      <trkpt lat="45.17693" lon="5.9682">
        <ele>2190.9</ele>
        <time>2018-05-12T11:11:50Z</time>
      </trkpt>
      <trkpt lat="45.17677" lon="5.96777">
        <ele>2203.3</ele>
        <time>2018-05-12T11:12:38Z</time>
      </trkpt>
      <trkpt lat="45.17675" lon="5.96769">
        <ele>2204.1</ele>
        <time>2018-05-12T11:12:44Z</time>
      </trkpt>
      <trkpt lat="45.17672" lon="5.9675">
        <ele>2207.5</ele>
        <time>2018-05-12T11:13:08Z</time>
      </trkpt>
      <trkpt lat="45.17667" lon="5.96733">
        <ele>2213</ele>
        <time>2018-05-12T11:13:19Z</time>
      </trkpt>
      <trkpt lat="45.17667" lon="5.96725">
        <ele>2214.3</ele>
        <time>2018-05-12T11:13:32Z</time>
      </trkpt>
      <trkpt lat="45.17669" lon="5.96709">
        <ele>2215.1</ele>
        <time>2018-05-12T11:14:00Z</time>
      </trkpt>
      <trkpt lat="45.17671" lon="5.96705">
        <ele>2216</ele>
        <time>2018-05-12T11:14:04Z</time>
      </trkpt>
      <trkpt lat="45.17679" lon="5.96699">
        <ele>2213.9</ele>
        <time>2018-05-12T11:14:15Z</time>
      </trkpt>
      <trkpt lat="45.17681" lon="5.96692">
        <ele>2213.8</ele>
        <time>2018-05-12T11:14:26Z</time>
      </trkpt>
      <trkpt lat="45.1768" lon="5.96679">
        <ele>2218.2</ele>
        <time>2018-05-12T11:14:42Z</time>
      </trkpt>
      <trkpt lat="45.17683" lon="5.96659">
        <ele>2219.3</ele>
        <time>2018-05-12T11:15:09Z</time>
      </trkpt>
      <trkpt lat="45.17693" lon="5.96644">
        <ele>2220.6</ele>
        <time>2018-05-12T11:15:41Z</time>
      </trkpt>
      <trkpt lat="45.17696" lon="5.96636">
        <ele>2221.3</ele>
        <time>2018-05-12T11:15:52Z</time>
      </trkpt>
      <trkpt lat="45.17708" lon="5.96618">
        <ele>2222.2</ele>
        <time>2018-05-12T11:16:33Z</time>
      </trkpt>
      <trkpt lat="45.17714" lon="5.96615">
        <ele>2221.6</ele>
        <time>2018-05-12T11:16:49Z</time>
      </trkpt>
      <trkpt lat="45.1772" lon="5.96606">
        <ele>2218</ele>
        <time>2018-05-12T11:17:27Z</time>
      </trkpt>
      <trkpt lat="45.17722" lon="5.96609">
        <ele>2218</ele>
        <time>2018-05-12T11:17:42Z</time>
      </trkpt>
      <trkpt lat="45.1771" lon="5.96577">
        <ele>2228.6</ele>
        <time>2018-05-12T11:18:40Z</time>
      </trkpt>
      <trkpt lat="45.17707" lon="5.96576">
        <ele>2230.1</ele>
        <time>2018-05-12T11:18:55Z</time>
      </trkpt>
      <trkpt lat="45.17705" lon="5.96578">
        <ele>2230.2</ele>
        <time>2018-05-12T11:19:05Z</time>
      </trkpt>
      <trkpt lat="45.17702" lon="5.96578">
        <ele>2231.7</ele>
        <time>2018-05-12T11:19:18Z</time>
      </trkpt>
      <trkpt lat="45.177" lon="5.96582">
        <ele>2232.9</ele>
        <time>2018-05-12T11:19:26Z</time>
      </trkpt>
      <trkpt lat="45.1769" lon="5.96583">
        <ele>2238.3</ele>
        <time>2018-05-12T11:19:36Z</time>
      </trkpt>
      <trkpt lat="45.17688" lon="5.96581">
        <ele>2239.9</ele>
        <time>2018-05-12T11:19:41Z</time>
      </trkpt>
      <trkpt lat="45.17685" lon="5.96568">
        <ele>2242.9</ele>
        <time>2018-05-12T11:19:57Z</time>
      </trkpt>
      <trkpt lat="45.17689" lon="5.96563">
        <ele>2242</ele>
        <time>2018-05-12T11:20:13Z</time>
      </trkpt>
      <trkpt lat="45.17691" lon="5.9656">
        <ele>2240.9</ele>
        <time>2018-05-12T11:20:20Z</time>
      </trkpt>
      <trkpt lat="45.17692" lon="5.96538">
        <ele>2242.9</ele>
        <time>2018-05-12T11:20:54Z</time>
      </trkpt>
      <trkpt lat="45.17687" lon="5.96527">
        <ele>2245.4</ele>
        <time>2018-05-12T11:21:24Z</time>
      </trkpt>
      <trkpt lat="45.17687" lon="5.96515">
        <ele>2246.1</ele>
        <time>2018-05-12T11:21:51Z</time>
      </trkpt>
      <trkpt lat="45.17686" lon="5.96511">
        <ele>2247.7</ele>
        <time>2018-05-12T11:21:55Z</time>
      </trkpt>
      <trkpt lat="45.17683" lon="5.96509">
        <ele>2247.8</ele>
        <time>2018-05-12T11:21:59Z</time>
      </trkpt>
      <trkpt lat="45.17684" lon="5.96504">
        <ele>2247.9</ele>
        <time>2018-05-12T11:22:06Z</time>
      </trkpt>
      <trkpt lat="45.17681" lon="5.96491">
        <ele>2249.7</ele>
        <time>2018-05-12T11:22:22Z</time>
      </trkpt>
      <trkpt lat="45.17673" lon="5.96483">
        <ele>2254.8</ele>
        <time>2018-05-12T11:22:35Z</time>
      </trkpt>
      <trkpt lat="45.17672" lon="5.96474">
        <ele>2255.4</ele>
        <time>2018-05-12T11:22:54Z</time>
      </trkpt>
      <trkpt lat="45.17664" lon="5.96457">
        <ele>2261.9</ele>
        <time>2018-05-12T11:23:30Z</time>
      </trkpt>
      <trkpt lat="45.17658" lon="5.96456">
        <ele>2265.5</ele>
        <time>2018-05-12T11:23:44Z</time>
      </trkpt>
      <trkpt lat="45.17653" lon="5.96459">
        <ele>2268.6</ele>
        <time>2018-05-12T11:23:56Z</time>
      </trkpt>
      <trkpt lat="45.17648" lon="5.96469">
        <ele>2269.8</ele>
        <time>2018-05-12T11:24:19Z</time>
      </trkpt>
      <trkpt lat="45.17642" lon="5.96472">
        <ele>2272.8</ele>
        <time>2018-05-12T11:24:43Z</time>
      </trkpt>
      <trkpt lat="45.17639" lon="5.96479">
        <ele>2274.3</ele>
        <time>2018-05-12T11:24:55Z</time>
      </trkpt>
      <trkpt lat="45.17636" lon="5.96479">
        <ele>2276.1</ele>
        <time>2018-05-12T11:25:05Z</time>
      </trkpt>
      <trkpt lat="45.17632" lon="5.96463">
        <ele>2281.2</ele>
        <time>2018-05-12T11:25:36Z</time>
      </trkpt>
      <trkpt lat="45.17629" lon="5.96455">
        <ele>2281.6</ele>
        <time>2018-05-12T11:25:53Z</time>
      </trkpt>
      <trkpt lat="45.17626" lon="5.96448">
        <ele>2285.4</ele>
        <time>2018-05-12T11:26:00Z</time>
      </trkpt>
      <trkpt lat="45.17624" lon="5.96446">
        <ele>2285.7</ele>
        <time>2018-05-12T11:26:05Z</time>
      </trkpt>
      <trkpt lat="45.17625" lon="5.96442">
        <ele>2286.1</ele>
        <time>2018-05-12T11:26:10Z</time>
      </trkpt>
      <trkpt lat="45.17623" lon="5.96438">
        <ele>2286.2</ele>
        <time>2018-05-12T11:26:15Z</time>
      </trkpt>
      <trkpt lat="45.17621" lon="5.96436">
        <ele>2287.9</ele>
        <time>2018-05-12T11:26:25Z</time>
      </trkpt>
      <trkpt lat="45.17621" lon="5.96432">
        <ele>2288.3</ele>
        <time>2018-05-12T11:26:34Z</time>
      </trkpt>
      <trkpt lat="45.17616" lon="5.96438">
        <ele>2287.9</ele>
        <time>2018-05-12T11:26:45Z</time>
      </trkpt>
      <trkpt lat="45.17609" lon="5.96457">
        <ele>2286.8</ele>
        <time>2018-05-12T11:27:12Z</time>
      </trkpt>
      <trkpt lat="45.17601" lon="5.96469">
        <ele>2285.2</ele>
        <time>2018-05-12T11:27:38Z</time>
      </trkpt>
      <trkpt lat="45.17598" lon="5.9647">
        <ele>2285.6</ele>
        <time>2018-05-12T11:27:43Z</time>
      </trkpt>
      <trkpt lat="45.17596" lon="5.96467">
        <ele>2286.6</ele>
        <time>2018-05-12T11:27:50Z</time>
      </trkpt>
      <trkpt lat="45.17595" lon="5.96454">
        <ele>2287.8</ele>
        <time>2018-05-12T11:28:07Z</time>
      </trkpt>
      <trkpt lat="45.17591" lon="5.96447">
        <ele>2289.9</ele>
        <time>2018-05-12T11:28:18Z</time>
      </trkpt>
      <trkpt lat="45.17594" lon="5.9644">
        <ele>2291.5</ele>
        <time>2018-05-12T11:28:30Z</time>
      </trkpt>
      <trkpt lat="45.17586" lon="5.96421">
        <ele>2301.1</ele>
        <time>2018-05-12T11:29:00Z</time>
      </trkpt>
      <trkpt lat="45.17587" lon="5.96417">
        <ele>2303.3</ele>
        <time>2018-05-12T11:29:12Z</time>
      </trkpt>
      <trkpt lat="45.17586" lon="5.96413">
        <ele>2303.6</ele>
        <time>2018-05-12T11:29:18Z</time>
      </trkpt>
      <trkpt lat="45.17588" lon="5.96397">
        <ele>2303.1</ele>
        <time>2018-05-12T11:29:40Z</time>
      </trkpt>
      <trkpt lat="45.17587" lon="5.9639">
        <ele>2302.8</ele>
        <time>2018-05-12T11:29:52Z</time>
      </trkpt>
      <trkpt lat="45.17586" lon="5.96385">
        <ele>2308.2</ele>
        <time>2018-05-12T11:29:59Z</time>
      </trkpt>
      <trkpt lat="45.17586" lon="5.96376">
        <ele>2310.9</ele>
        <time>2018-05-12T11:30:14Z</time>
      </trkpt>
      <trkpt lat="45.17579" lon="5.96364">
        <ele>2316</ele>
        <time>2018-05-12T11:30:32Z</time>
      </trkpt>
      <trkpt lat="45.17576" lon="5.96363">
        <ele>2317.4</ele>
        <time>2018-05-12T11:30:41Z</time>
      </trkpt>
      <trkpt lat="45.17574" lon="5.9637">
        <ele>2320.1</ele>
        <time>2018-05-12T11:30:58Z</time>
      </trkpt>
      <trkpt lat="45.17568" lon="5.96375">
        <ele>2321.6</ele>
        <time>2018-05-12T11:31:17Z</time>
      </trkpt>
      <trkpt lat="45.17566" lon="5.96373">
        <ele>2322</ele>
        <time>2018-05-12T11:31:24Z</time>
      </trkpt>
      <trkpt lat="45.17563" lon="5.96365">
        <ele>2322.8</ele>
        <time>2018-05-12T11:31:31Z</time>
      </trkpt>
      <trkpt lat="45.17562" lon="5.96361">
        <ele>2323.2</ele>
        <time>2018-05-12T11:31:35Z</time>
      </trkpt>
      <trkpt lat="45.17565" lon="5.96354">
        <ele>2325.5</ele>
        <time>2018-05-12T11:31:48Z</time>
      </trkpt>
      <trkpt lat="45.17565" lon="5.96346">
        <ele>2328.1</ele>
        <time>2018-05-12T11:32:01Z</time>
      </trkpt>
      <trkpt lat="45.17563" lon="5.96343">
        <ele>2329.1</ele>
        <time>2018-05-12T11:32:06Z</time>
      </trkpt>
      <trkpt lat="45.17561" lon="5.96327">
        <ele>2329</ele>
        <time>2018-05-12T11:32:27Z</time>
      </trkpt>
      <trkpt lat="45.17555" lon="5.96316">
        <ele>2331.3</ele>
        <time>2018-05-12T11:32:42Z</time>
      </trkpt>
      <trkpt lat="45.17547" lon="5.9629">
        <ele>2338.9</ele>
        <time>2018-05-12T11:33:18Z</time>
      </trkpt>
      <trkpt lat="45.17549" lon="5.96277">
        <ele>2340.8</ele>
        <time>2018-05-12T11:33:34Z</time>
      </trkpt>
      <trkpt lat="45.17547" lon="5.96273">
        <ele>2341.2</ele>
        <time>2018-05-12T11:33:40Z</time>
      </trkpt>
      <trkpt lat="45.17546" lon="5.96266">
        <ele>2341.4</ele>
        <time>2018-05-12T11:34:02Z</time>
      </trkpt>
      <trkpt lat="45.17545" lon="5.96246">
        <ele>2340.6</ele>
        <time>2018-05-12T11:34:26Z</time>
      </trkpt>
      <trkpt lat="45.17549" lon="5.96234">
        <ele>2340.7</ele>
        <time>2018-05-12T11:35:46Z</time>
      </trkpt>
      <trkpt lat="45.17549" lon="5.96221">
        <ele>2338.2</ele>
        <time>2018-05-12T11:36:50Z</time>
      </trkpt>
      <trkpt lat="45.17547" lon="5.96217">
        <ele>2337.8</ele>
        <time>2018-05-12T11:36:57Z</time>
      </trkpt>
      <trkpt lat="45.17543" lon="5.96209">
        <ele>2342.7</ele>
        <time>2018-05-12T11:37:03Z</time>
      </trkpt>
      <trkpt lat="45.17541" lon="5.96201">
        <ele>2345.8</ele>
        <time>2018-05-12T11:37:10Z</time>
      </trkpt>
      <trkpt lat="45.17539" lon="5.96198">
        <ele>2346.1</ele>
        <time>2018-05-12T11:37:13Z</time>
      </trkpt>
      <trkpt lat="45.17538" lon="5.96193">
        <ele>2348.3</ele>
        <time>2018-05-12T11:38:02Z</time>
      </trkpt>
      <trkpt lat="45.17538" lon="5.96184">
        <ele>2349.8</ele>
        <time>2018-05-12T11:38:16Z</time>
      </trkpt>
      <trkpt lat="45.17535" lon="5.96175">
        <ele>2352.1</ele>
        <time>2018-05-12T11:38:31Z</time>
      </trkpt>
      <trkpt lat="45.17532" lon="5.96161">
        <ele>2353.6</ele>
        <time>2018-05-12T11:38:51Z</time>
      </trkpt>
      <trkpt lat="45.17529" lon="5.96145">
        <ele>2358</ele>
        <time>2018-05-12T11:39:10Z</time>
      </trkpt>
      <trkpt lat="45.17526" lon="5.96128">
        <ele>2365.3</ele>
        <time>2018-05-12T11:39:34Z</time>
      </trkpt>
      <trkpt lat="45.17524" lon="5.96108">
        <ele>2369.5</ele>
        <time>2018-05-12T11:40:24Z</time>
      </trkpt>
      <trkpt lat="45.17519" lon="5.96092">
        <ele>2376.9</ele>
        <time>2018-05-12T11:40:52Z</time>
      </trkpt>
      <trkpt lat="45.17518" lon="5.96077">
        <ele>2380.7</ele>
        <time>2018-05-12T11:41:01Z</time>
      </trkpt>
      <trkpt lat="45.17516" lon="5.96068">
        <ele>2387.6</ele>
        <time>2018-05-12T11:41:12Z</time>
      </trkpt>
      <trkpt lat="45.17518" lon="5.96065">
        <ele>2386</ele>
        <time>2018-05-12T11:41:47Z</time>
      </trkpt>
      <trkpt lat="45.17517" lon="5.9606">
        <ele>2390.1</ele>
        <time>2018-05-12T11:41:51Z</time>
      </trkpt>
      <trkpt lat="45.17517" lon="5.96056">
        <ele>2392.3</ele>
        <time>2018-05-12T11:41:55Z</time>
      </trkpt>
      <trkpt lat="45.17518" lon="5.96052">
        <ele>2392.8</ele>
        <time>2018-05-12T11:42:00Z</time>
      </trkpt>
      <trkpt lat="45.17516" lon="5.96036">
        <ele>2403.3</ele>
        <time>2018-05-12T11:42:48Z</time>
      </trkpt>
      <trkpt lat="45.17515" lon="5.96024">
        <ele>2409.8</ele>
        <time>2018-05-12T11:42:54Z</time>
      </trkpt>
      <trkpt lat="45.17518" lon="5.96009">
        <ele>2416.5</ele>
        <time>2018-05-12T11:43:41Z</time>
      </trkpt>
      <trkpt lat="45.17525" lon="5.95992">
        <ele>2421</ele>
        <time>2018-05-12T11:43:52Z</time>
      </trkpt>
      <trkpt lat="45.1753" lon="5.9598">
        <ele>2426.2</ele>
        <time>2018-05-12T11:44:29Z</time>
      </trkpt>
      <trkpt lat="45.17541" lon="5.95964">
        <ele>2434.4</ele>
        <time>2018-05-12T11:45:05Z</time>
      </trkpt>
      <trkpt lat="45.17535" lon="5.95965">
        <ele>2433.8</ele>
        <time>2018-05-12T11:45:32Z</time>
      </trkpt>
      <trkpt lat="45.17526" lon="5.95964">
        <ele>2432.8</ele>
        <time>2018-05-12T11:45:58Z</time>
      </trkpt>
      <trkpt lat="45.1752" lon="5.95961">
        <ele>2436</ele>
        <time>2018-05-12T11:46:25Z</time>
      </trkpt>
      <trkpt lat="45.17513" lon="5.9596">
        <ele>2437.8</ele>
        <time>2018-05-12T11:46:33Z</time>
      </trkpt>
      <trkpt lat="45.17511" lon="5.95962">
        <ele>2436.4</ele>
        <time>2018-05-12T11:46:40Z</time>
      </trkpt>
      <trkpt lat="45.17501" lon="5.95969">
        <ele>2437.2</ele>
        <time>2018-05-12T11:47:19Z</time>
      </trkpt>
      <trkpt lat="45.17498" lon="5.95964">
        <ele>2440.1</ele>
        <time>2018-05-12T11:47:29Z</time>
      </trkpt>
      <trkpt lat="45.17501" lon="5.9595">
        <ele>2445.3</ele>
        <time>2018-05-12T11:48:01Z</time>
      </trkpt>
      <trkpt lat="45.17508" lon="5.95939">
        <ele>2450.5</ele>
        <time>2018-05-12T11:48:17Z</time>
      </trkpt>
      <trkpt lat="45.1751" lon="5.95936">
        <ele>2450.1</ele>
        <time>2018-05-12T11:48:22Z</time>
      </trkpt>
      <trkpt lat="45.17514" lon="5.95929">
        <ele>2454.5</ele>
        <time>2018-05-12T11:48:55Z</time>
      </trkpt>
      <trkpt lat="45.17483" lon="5.95929">
        <ele>2461.9</ele>
        <time>2018-05-12T11:50:19Z</time>
      </trkpt>
      <trkpt lat="45.17481" lon="5.95932">
        <ele>2460.1</ele>
        <time>2018-05-12T11:50:55Z</time>
      </trkpt>
      <trkpt lat="45.17478" lon="5.95933">
        <ele>2461.1</ele>
        <time>2018-05-12T11:51:01Z</time>
      </trkpt>
      <trkpt lat="45.17477" lon="5.95929">
        <ele>2464.2</ele>
        <time>2018-05-12T11:51:15Z</time>
      </trkpt>
      <trkpt lat="45.17488" lon="5.95912">
        <ele>2469.1</ele>
        <time>2018-05-12T11:51:36Z</time>
      </trkpt>
      <trkpt lat="45.17499" lon="5.95934">
        <ele>2457.7</ele>
        <time>2018-05-12T11:52:56Z</time>
      </trkpt>
      <trkpt lat="45.17497" lon="5.95931">
        <ele>2457.8</ele>
        <time>2018-05-12T11:53:11Z</time>
      </trkpt>
      <trkpt lat="45.17495" lon="5.95927">
        <ele>2462.8</ele>
        <time>2018-05-12T11:53:42Z</time>
      </trkpt>
      <trkpt lat="45.17493" lon="5.95923">
        <ele>2463</ele>
        <time>2018-05-12T11:54:05Z</time>
      </trkpt>
      <trkpt lat="45.17493" lon="5.95914">
        <ele>2467.7</ele>
        <time>2018-05-12T11:55:07Z</time>
      </trkpt>
      <trkpt lat="45.1749" lon="5.95899">
        <ele>2474</ele>
        <time>2018-05-12T11:55:34Z</time>
      </trkpt>
      <trkpt lat="45.17488" lon="5.95893">
        <ele>2475.9</ele>
        <time>2018-05-12T11:55:35Z</time>
      </trkpt>
      <trkpt lat="45.17488" lon="5.95888">
        <ele>2477.3</ele>
        <time>2018-05-12T11:55:45Z</time>
      </trkpt>
      <trkpt lat="45.17483" lon="5.95872">
        <ele>2484.6</ele>
        <time>2018-05-12T11:56:48Z</time>
      </trkpt>
      <trkpt lat="45.17484" lon="5.95862">
        <ele>2488.4</ele>
        <time>2018-05-12T11:57:37Z</time>
      </trkpt>
      <trkpt lat="45.17484" lon="5.95849">
        <ele>2497.6</ele>
        <time>2018-05-12T11:58:34Z</time>
      </trkpt>
      <trkpt lat="45.17485" lon="5.95833">
        <ele>2502.1</ele>
        <time>2018-05-12T11:59:33Z</time>
      </trkpt>
      <trkpt lat="45.17487" lon="5.95829">
        <ele>2504.1</ele>
        <time>2018-05-12T11:59:59Z</time>
      </trkpt>
      <trkpt lat="45.17485" lon="5.95822">
        <ele>2507.6</ele>
        <time>2018-05-12T12:00:41Z</time>
      </trkpt>
      <trkpt lat="45.17483" lon="5.95814">
        <ele>2509.2</ele>
        <time>2018-05-12T12:01:21Z</time>
      </trkpt>
      <trkpt lat="45.17481" lon="5.95812">
        <ele>2510</ele>
        <time>2018-05-12T12:02:02Z</time>
      </trkpt>
      <trkpt lat="45.17478" lon="5.95813">
        <ele>2510.9</ele>
        <time>2018-05-12T12:02:26Z</time>
      </trkpt>
      <trkpt lat="45.1747" lon="5.95804">
        <ele>2513.3</ele>
        <time>2018-05-12T12:03:51Z</time>
      </trkpt>
      <trkpt lat="45.17467" lon="5.95805">
        <ele>2514</ele>
        <time>2018-05-12T12:04:14Z</time>
      </trkpt>
      <trkpt lat="45.17456" lon="5.95789">
        <ele>2517.5</ele>
        <time>2018-05-12T12:06:03Z</time>
      </trkpt>
      <trkpt lat="45.17455" lon="5.95785">
        <ele>2518</ele>
        <time>2018-05-12T12:06:19Z</time>
      </trkpt>
      <trkpt lat="45.17449" lon="5.95782">
        <ele>2519</ele>
        <time>2018-05-12T12:07:06Z</time>
      </trkpt>
      <trkpt lat="45.17446" lon="5.95776">
        <ele>2520</ele>
        <time>2018-05-12T12:07:34Z</time>
      </trkpt>
      <trkpt lat="45.17435" lon="5.9578">
        <ele>2522.5</ele>
        <time>2018-05-12T12:11:48Z</time>
      </trkpt>
      <trkpt lat="45.17437" lon="5.95781">
        <ele>2522.8</ele>
        <time>2018-05-12T12:13:20Z</time>
      </trkpt>
      <trkpt lat="45.17437" lon="5.95784">
        <ele>2523.1</ele>
        <time>2018-05-12T12:13:37Z</time>
      </trkpt>
      <trkpt lat="45.17439" lon="5.95782">
        <ele>2523.3</ele>
        <time>2018-05-12T12:16:08Z</time>
      </trkpt>
      <trkpt lat="45.17436" lon="5.9578">
        <ele>2523.6</ele>
        <time>2018-05-12T12:17:53Z</time>
      </trkpt>
      <trkpt lat="45.17444" lon="5.95779">
        <ele>2524.6</ele>
        <time>2018-05-12T12:21:05Z</time>
      </trkpt>
      <trkpt lat="45.17439" lon="5.95751">
        <ele>2526.9</ele>
        <time>2018-05-12T12:25:36Z</time>
      </trkpt>
      <trkpt lat="45.17436" lon="5.95733">
        <ele>2526.2</ele>
        <time>2018-05-12T12:25:38Z</time>
      </trkpt>
      <trkpt lat="45.17435" lon="5.95713">
        <ele>2521.8</ele>
        <time>2018-05-12T12:25:41Z</time>
      </trkpt>
      <trkpt lat="45.17431" lon="5.95709">
        <ele>2519.7</ele>
        <time>2018-05-12T12:25:42Z</time>
      </trkpt>
      <trkpt lat="45.17429" lon="5.95704">
        <ele>2516</ele>
        <time>2018-05-12T12:25:43Z</time>
      </trkpt>
      <trkpt lat="45.17426" lon="5.95704">
        <ele>2515</ele>
        <time>2018-05-12T12:25:44Z</time>
      </trkpt>
      <trkpt lat="45.17424" lon="5.95701">
        <ele>2514.8</ele>
        <time>2018-05-12T12:25:45Z</time>
      </trkpt>
      <trkpt lat="45.17418" lon="5.95701">
        <ele>2513.1</ele>
        <time>2018-05-12T12:25:47Z</time>
      </trkpt>
      <trkpt lat="45.17417" lon="5.95696">
        <ele>2511.3</ele>
        <time>2018-05-12T12:25:48Z</time>
      </trkpt>
      <trkpt lat="45.1741" lon="5.9569">
        <ele>2507.9</ele>
        <time>2018-05-12T12:25:50Z</time>
      </trkpt>
      <trkpt lat="45.1741" lon="5.95673">
        <ele>2503.1</ele>
        <time>2018-05-12T12:25:52Z</time>
      </trkpt>
      <trkpt lat="45.17404" lon="5.95649">
        <ele>2496.3</ele>
        <time>2018-05-12T12:25:54Z</time>
      </trkpt>
      <trkpt lat="45.17403" lon="5.95628">
        <ele>2490.6</ele>
        <time>2018-05-12T12:25:56Z</time>
      </trkpt>
      <trkpt lat="45.17404" lon="5.9562">
        <ele>2488.2</ele>
        <time>2018-05-12T12:25:57Z</time>
      </trkpt>
      <trkpt lat="45.17407" lon="5.95614">
        <ele>2487</ele>
        <time>2018-05-12T12:25:58Z</time>
      </trkpt>
      <trkpt lat="45.1742" lon="5.95604">
        <ele>2483.8</ele>
        <time>2018-05-12T12:26:03Z</time>
      </trkpt>
      <trkpt lat="45.17432" lon="5.95582">
        <ele>2480.5</ele>
        <time>2018-05-12T12:27:15Z</time>
      </trkpt>
      <trkpt lat="45.17433" lon="5.9558">
        <ele>2480.5</ele>
        <time>2018-05-12T12:27:16Z</time>
      </trkpt>
      <trkpt lat="45.17432" lon="5.95569">
        <ele>2480.3</ele>
        <time>2018-05-12T12:27:18Z</time>
      </trkpt>
      <trkpt lat="45.17435" lon="5.95552">
        <ele>2477.6</ele>
        <time>2018-05-12T12:27:22Z</time>
      </trkpt>
      <trkpt lat="45.1744" lon="5.95539">
        <ele>2474.7</ele>
        <time>2018-05-12T12:27:26Z</time>
      </trkpt>
      <trkpt lat="45.1744" lon="5.95535">
        <ele>2473.8</ele>
        <time>2018-05-12T12:27:27Z</time>
      </trkpt>
      <trkpt lat="45.17443" lon="5.95529">
        <ele>2473.1</ele>
        <time>2018-05-12T12:27:29Z</time>
      </trkpt>
      <trkpt lat="45.17451" lon="5.95529">
        <ele>2470.5</ele>
        <time>2018-05-12T12:27:31Z</time>
      </trkpt>
      <trkpt lat="45.17459" lon="5.95524">
        <ele>2466.1</ele>
        <time>2018-05-12T12:27:35Z</time>
      </trkpt>
      <trkpt lat="45.17453" lon="5.95524">
        <ele>2463.5</ele>
        <time>2018-05-12T12:30:57Z</time>
      </trkpt>
      <trkpt lat="45.17447" lon="5.95519">
        <ele>2461.7</ele>
        <time>2018-05-12T12:30:59Z</time>
      </trkpt>
      <trkpt lat="45.17447" lon="5.95514">
        <ele>2462.4</ele>
        <time>2018-05-12T12:31:01Z</time>
      </trkpt>
      <trkpt lat="45.17447" lon="5.95508">
        <ele>2458.9</ele>
        <time>2018-05-12T12:31:03Z</time>
      </trkpt>
      <trkpt lat="45.1745" lon="5.95502">
        <ele>2454.9</ele>
        <time>2018-05-12T12:31:05Z</time>
      </trkpt>
      <trkpt lat="45.17454" lon="5.95501">
        <ele>2453.1</ele>
        <time>2018-05-12T12:31:06Z</time>
      </trkpt>
      <trkpt lat="45.17456" lon="5.95492">
        <ele>2445.4</ele>
        <time>2018-05-12T12:31:08Z</time>
      </trkpt>
      <trkpt lat="45.17458" lon="5.9549">
        <ele>2444.2</ele>
        <time>2018-05-12T12:31:09Z</time>
      </trkpt>
      <trkpt lat="45.1746" lon="5.9548">
        <ele>2432</ele>
        <time>2018-05-12T12:31:11Z</time>
      </trkpt>
      <trkpt lat="45.17466" lon="5.95472">
        <ele>2425</ele>
        <time>2018-05-12T12:31:14Z</time>
      </trkpt>
      <trkpt lat="45.17472" lon="5.95461">
        <ele>2410.9</ele>
        <time>2018-05-12T12:31:17Z</time>
      </trkpt>
      <trkpt lat="45.17481" lon="5.95434">
        <ele>2381</ele>
        <time>2018-05-12T12:31:22Z</time>
      </trkpt>
      <trkpt lat="45.17489" lon="5.95426">
        <ele>2370.1</ele>
        <time>2018-05-12T12:31:24Z</time>
      </trkpt>
      <trkpt lat="45.17493" lon="5.95416">
        <ele>2358.9</ele>
        <time>2018-05-12T12:31:26Z</time>
      </trkpt>
      <trkpt lat="45.17491" lon="5.95413">
        <ele>2361.3</ele>
        <time>2018-05-12T12:31:27Z</time>
      </trkpt>
      <trkpt lat="45.17487" lon="5.9541">
        <ele>2362.1</ele>
        <time>2018-05-12T12:31:29Z</time>
      </trkpt>
      <trkpt lat="45.1749" lon="5.95406">
        <ele>2357.7</ele>
        <time>2018-05-12T12:33:24Z</time>
      </trkpt>
      <trkpt lat="45.17492" lon="5.95408">
        <ele>2356</ele>
        <time>2018-05-12T12:33:25Z</time>
      </trkpt>
      <trkpt lat="45.17498" lon="5.95403">
        <ele>2350.4</ele>
        <time>2018-05-12T12:33:27Z</time>
      </trkpt>
      <trkpt lat="45.17503" lon="5.95397">
        <ele>2345.1</ele>
        <time>2018-05-12T12:33:29Z</time>
      </trkpt>
      <trkpt lat="45.17508" lon="5.95395">
        <ele>2340.7</ele>
        <time>2018-05-12T12:33:30Z</time>
      </trkpt>
      <trkpt lat="45.1751" lon="5.95388">
        <ele>2336.3</ele>
        <time>2018-05-12T12:33:31Z</time>
      </trkpt>
      <trkpt lat="45.17515" lon="5.95384">
        <ele>2331</ele>
        <time>2018-05-12T12:33:33Z</time>
      </trkpt>
      <trkpt lat="45.1751" lon="5.95346">
        <ele>2315.7</ele>
        <time>2018-05-12T12:33:39Z</time>
      </trkpt>
      <trkpt lat="45.17509" lon="5.95342">
        <ele>2314</ele>
        <time>2018-05-12T12:33:40Z</time>
      </trkpt>
      <trkpt lat="45.17504" lon="5.95339">
        <ele>2316.7</ele>
        <time>2018-05-12T12:33:42Z</time>
      </trkpt>
      <trkpt lat="45.17502" lon="5.95334">
        <ele>2316.2</ele>
        <time>2018-05-12T12:34:35Z</time>
      </trkpt>
      <trkpt lat="45.17503" lon="5.9533">
        <ele>2315.1</ele>
        <time>2018-05-12T12:34:36Z</time>
      </trkpt>
      <trkpt lat="45.1751" lon="5.95319">
        <ele>2306.4</ele>
        <time>2018-05-12T12:34:38Z</time>
      </trkpt>
      <trkpt lat="45.17515" lon="5.95314">
        <ele>2298.8</ele>
        <time>2018-05-12T12:34:39Z</time>
      </trkpt>
      <trkpt lat="45.17523" lon="5.95303">
        <ele>2280.7</ele>
        <time>2018-05-12T12:34:41Z</time>
      </trkpt>
      <trkpt lat="45.17526" lon="5.95297">
        <ele>2274</ele>
        <time>2018-05-12T12:34:42Z</time>
      </trkpt>
      <trkpt lat="45.17534" lon="5.95284">
        <ele>2270.5</ele>
        <time>2018-05-12T12:34:44Z</time>
      </trkpt>
      <trkpt lat="45.1754" lon="5.9527">
        <ele>2267.6</ele>
        <time>2018-05-12T12:34:46Z</time>
      </trkpt>
      <trkpt lat="45.17556" lon="5.95246">
        <ele>2262.8</ele>
        <time>2018-05-12T12:34:50Z</time>
      </trkpt>
      <trkpt lat="45.17574" lon="5.95223">
        <ele>2250.6</ele>
        <time>2018-05-12T12:34:56Z</time>
      </trkpt>
      <trkpt lat="45.17585" lon="5.95214">
        <ele>2240</ele>
        <time>2018-05-12T12:34:59Z</time>
      </trkpt>
      <trkpt lat="45.17588" lon="5.95207">
        <ele>2237.1</ele>
        <time>2018-05-12T12:35:00Z</time>
      </trkpt>
      <trkpt lat="45.17599" lon="5.95192">
        <ele>2227.1</ele>
        <time>2018-05-12T12:35:03Z</time>
      </trkpt>
      <trkpt lat="45.17601" lon="5.95185">
        <ele>2226.3</ele>
        <time>2018-05-12T12:35:04Z</time>
      </trkpt>
      <trkpt lat="45.17596" lon="5.95185">
        <ele>2220</ele>
        <time>2018-05-12T12:59:17Z</time>
      </trkpt>
      <trkpt lat="45.17587" lon="5.95183">
        <ele>2221.1</ele>
        <time>2018-05-12T12:59:28Z</time>
      </trkpt>
      <trkpt lat="45.17579" lon="5.95164">
        <ele>2227.1</ele>
        <time>2018-05-12T12:59:47Z</time>
      </trkpt>
      <trkpt lat="45.17578" lon="5.95151">
        <ele>2229.2</ele>
        <time>2018-05-12T13:00:01Z</time>
      </trkpt>
      <trkpt lat="45.17572" lon="5.95136">
        <ele>2232.3</ele>
        <time>2018-05-12T13:00:12Z</time>
      </trkpt>
      <trkpt lat="45.17566" lon="5.95124">
        <ele>2235.9</ele>
        <time>2018-05-12T13:00:23Z</time>
      </trkpt>
      <trkpt lat="45.17559" lon="5.95117">
        <ele>2242.2</ele>
        <time>2018-05-12T13:00:34Z</time>
      </trkpt>
      <trkpt lat="45.17557" lon="5.95109">
        <ele>2242.2</ele>
        <time>2018-05-12T13:00:47Z</time>
      </trkpt>
      <trkpt lat="45.17558" lon="5.95105">
        <ele>2242.3</ele>
        <time>2018-05-12T13:00:53Z</time>
      </trkpt>
      <trkpt lat="45.17556" lon="5.95102">
        <ele>2244.3</ele>
        <time>2018-05-12T13:01:00Z</time>
      </trkpt>
      <trkpt lat="45.17546" lon="5.95098">
        <ele>2250.7</ele>
        <time>2018-05-12T13:01:13Z</time>
      </trkpt>
      <trkpt lat="45.17538" lon="5.95091">
        <ele>2256.4</ele>
        <time>2018-05-12T13:01:32Z</time>
      </trkpt>
      <trkpt lat="45.17531" lon="5.95088">
        <ele>2260.4</ele>
        <time>2018-05-12T13:01:41Z</time>
      </trkpt>
      <trkpt lat="45.17519" lon="5.9508">
        <ele>2269.8</ele>
        <time>2018-05-12T13:02:02Z</time>
      </trkpt>
      <trkpt lat="45.17514" lon="5.95075">
        <ele>2274</ele>
        <time>2018-05-12T13:02:13Z</time>
      </trkpt>
      <trkpt lat="45.17512" lon="5.95072">
        <ele>2274</ele>
        <time>2018-05-12T13:02:23Z</time>
      </trkpt>
      <trkpt lat="45.175" lon="5.95061">
        <ele>2283.6</ele>
        <time>2018-05-12T13:02:34Z</time>
      </trkpt>
      <trkpt lat="45.17493" lon="5.95063">
        <ele>2289.2</ele>
        <time>2018-05-12T13:02:56Z</time>
      </trkpt>
      <trkpt lat="45.17488" lon="5.95068">
        <ele>2294.9</ele>
        <time>2018-05-12T13:03:04Z</time>
      </trkpt>
      <trkpt lat="45.17485" lon="5.95067">
        <ele>2297.5</ele>
        <time>2018-05-12T13:03:10Z</time>
      </trkpt>
      <trkpt lat="45.1747" lon="5.95069">
        <ele>2298.9</ele>
        <time>2018-05-12T13:03:25Z</time>
      </trkpt>
      <trkpt lat="45.17464" lon="5.9505">
        <ele>2300.8</ele>
        <time>2018-05-12T13:04:00Z</time>
      </trkpt>
      <trkpt lat="45.17454" lon="5.95063">
        <ele>2300.2</ele>
        <time>2018-05-12T13:04:31Z</time>
      </trkpt>
      <trkpt lat="45.17451" lon="5.9507">
        <ele>2300</ele>
        <time>2018-05-12T13:04:37Z</time>
      </trkpt>
      <trkpt lat="45.17451" lon="5.95051">
        <ele>2303.8</ele>
        <time>2018-05-12T13:05:01Z</time>
      </trkpt>
      <trkpt lat="45.17447" lon="5.95044">
        <ele>2305.6</ele>
        <time>2018-05-12T13:05:10Z</time>
      </trkpt>
      <trkpt lat="45.17446" lon="5.95027">
        <ele>2309</ele>
        <time>2018-05-12T13:05:35Z</time>
      </trkpt>
      <trkpt lat="45.17442" lon="5.9502">
        <ele>2311.1</ele>
        <time>2018-05-12T13:05:44Z</time>
      </trkpt>
      <trkpt lat="45.17444" lon="5.95011">
        <ele>2316.3</ele>
        <time>2018-05-12T13:06:15Z</time>
      </trkpt>
      <trkpt lat="45.17448" lon="5.94998">
        <ele>2316.3</ele>
        <time>2018-05-12T13:06:31Z</time>
      </trkpt>
      <trkpt lat="45.17448" lon="5.94981">
        <ele>2316.6</ele>
        <time>2018-05-12T13:06:52Z</time>
      </trkpt>
      <trkpt lat="45.17445" lon="5.94968">
        <ele>2319.3</ele>
        <time>2018-05-12T13:07:06Z</time>
      </trkpt>
      <trkpt lat="45.17444" lon="5.94964">
        <ele>2320.7</ele>
        <time>2018-05-12T13:07:13Z</time>
      </trkpt>
      <trkpt lat="45.17433" lon="5.9496">
        <ele>2323.9</ele>
        <time>2018-05-12T13:07:21Z</time>
      </trkpt>
      <trkpt lat="45.17426" lon="5.94954">
        <ele>2327.9</ele>
        <time>2018-05-12T13:07:38Z</time>
      </trkpt>
      <trkpt lat="45.17424" lon="5.94939">
        <ele>2332.6</ele>
        <time>2018-05-12T13:08:04Z</time>
      </trkpt>
      <trkpt lat="45.17425" lon="5.94923">
        <ele>2335.6</ele>
        <time>2018-05-12T13:08:22Z</time>
      </trkpt>
      <trkpt lat="45.17419" lon="5.94916">
        <ele>2335.8</ele>
        <time>2018-05-12T13:08:37Z</time>
      </trkpt>
      <trkpt lat="45.17408" lon="5.94891">
        <ele>2339.3</ele>
        <time>2018-05-12T13:09:16Z</time>
      </trkpt>
      <trkpt lat="45.17405" lon="5.94889">
        <ele>2339.4</ele>
        <time>2018-05-12T13:09:22Z</time>
      </trkpt>
      <trkpt lat="45.17403" lon="5.94876">
        <ele>2340.4</ele>
        <time>2018-05-12T13:09:40Z</time>
      </trkpt>
      <trkpt lat="45.17395" lon="5.94858">
        <ele>2343.5</ele>
        <time>2018-05-12T13:10:09Z</time>
      </trkpt>
      <trkpt lat="45.17394" lon="5.94846">
        <ele>2343.3</ele>
        <time>2018-05-12T13:10:28Z</time>
      </trkpt>
      <trkpt lat="45.17393" lon="5.94842">
        <ele>2344.2</ele>
        <time>2018-05-12T13:10:32Z</time>
      </trkpt>
      <trkpt lat="45.17392" lon="5.94833">
        <ele>2343.8</ele>
        <time>2018-05-12T13:10:43Z</time>
      </trkpt>
      <trkpt lat="45.17393" lon="5.94812">
        <ele>2345.2</ele>
        <time>2018-05-12T13:11:06Z</time>
      </trkpt>
      <trkpt lat="45.17391" lon="5.94815">
        <ele>2345.5</ele>
        <time>2018-05-12T13:11:20Z</time>
      </trkpt>
      <trkpt lat="45.17388" lon="5.94815">
        <ele>2345.7</ele>
        <time>2018-05-12T13:11:24Z</time>
      </trkpt>
      <trkpt lat="45.1738" lon="5.94809">
        <ele>2346.6</ele>
        <time>2018-05-12T13:12:05Z</time>
      </trkpt>
      <trkpt lat="45.17372" lon="5.94805">
        <ele>2347</ele>
        <time>2018-05-12T13:18:47Z</time>
      </trkpt>
      <trkpt lat="45.17372" lon="5.94801">
        <ele>2347</ele>
        <time>2018-05-12T13:30:24Z</time>
      </trkpt>
      <trkpt lat="45.17365" lon="5.94789">
        <ele>2347</ele>
        <time>2018-05-12T13:31:29Z</time>
      </trkpt>
      <trkpt lat="45.17367" lon="5.948">
        <ele>2347</ele>
        <time>2018-05-12T13:32:46Z</time>
      </trkpt>
      <trkpt lat="45.17366" lon="5.94808">
        <ele>2347</ele>
        <time>2018-05-12T13:32:47Z</time>
      </trkpt>
      <trkpt lat="45.17363" lon="5.94814">
        <ele>2347</ele>
        <time>2018-05-12T13:33:01Z</time>
      </trkpt>
      <trkpt lat="45.17365" lon="5.94812">
        <ele>2347</ele>
        <time>2018-05-12T13:33:52Z</time>
      </trkpt>
      <trkpt lat="45.17367" lon="5.94815">
        <ele>2347</ele>
        <time>2018-05-12T13:35:33Z</time>
      </trkpt>
      <trkpt lat="45.1737" lon="5.94811">
        <ele>2347</ele>
        <time>2018-05-12T13:36:41Z</time>
      </trkpt>
      <trkpt lat="45.17361" lon="5.94811">
        <ele>2347</ele>
        <time>2018-05-12T13:36:44Z</time>
      </trkpt>
      <trkpt lat="45.17357" lon="5.94808">
        <ele>2348.2</ele>
        <time>2018-05-12T13:36:46Z</time>
      </trkpt>
      <trkpt lat="45.17358" lon="5.94789">
        <ele>2342.5</ele>
        <time>2018-05-12T13:36:49Z</time>
      </trkpt>
      <trkpt lat="45.17352" lon="5.94738">
        <ele>2328.3</ele>
        <time>2018-05-12T13:36:54Z</time>
      </trkpt>
      <trkpt lat="45.17345" lon="5.94733">
        <ele>2325.5</ele>
        <time>2018-05-12T13:36:55Z</time>
      </trkpt>
      <trkpt lat="45.17321" lon="5.94719">
        <ele>2322.1</ele>
        <time>2018-05-12T13:36:58Z</time>
      </trkpt>
      <trkpt lat="45.17307" lon="5.94701">
        <ele>2314.4</ele>
        <time>2018-05-12T13:37:00Z</time>
      </trkpt>
      <trkpt lat="45.17296" lon="5.94693">
        <ele>2310.5</ele>
        <time>2018-05-12T13:37:01Z</time>
      </trkpt>
      <trkpt lat="45.17291" lon="5.94683">
        <ele>2305.9</ele>
        <time>2018-05-12T13:37:02Z</time>
      </trkpt>
      <trkpt lat="45.17287" lon="5.9467">
        <ele>2298.8</ele>
        <time>2018-05-12T13:37:03Z</time>
      </trkpt>
      <trkpt lat="45.1729" lon="5.94651">
        <ele>2288.6</ele>
        <time>2018-05-12T13:37:04Z</time>
      </trkpt>
      <trkpt lat="45.17291" lon="5.94635">
        <ele>2283.3</ele>
        <time>2018-05-12T13:37:05Z</time>
      </trkpt>
      <trkpt lat="45.17297" lon="5.94617">
        <ele>2274</ele>
        <time>2018-05-12T13:37:07Z</time>
      </trkpt>
      <trkpt lat="45.17284" lon="5.94589">
        <ele>2264.2</ele>
        <time>2018-05-12T13:39:10Z</time>
      </trkpt>
      <trkpt lat="45.17271" lon="5.94583">
        <ele>2261.4</ele>
        <time>2018-05-12T13:39:13Z</time>
      </trkpt>
      <trkpt lat="45.17267" lon="5.94579">
        <ele>2261.6</ele>
        <time>2018-05-12T13:39:14Z</time>
      </trkpt>
      <trkpt lat="45.17264" lon="5.9457">
        <ele>2257.3</ele>
        <time>2018-05-12T13:39:15Z</time>
      </trkpt>
      <trkpt lat="45.17262" lon="5.94559">
        <ele>2254.9</ele>
        <time>2018-05-12T13:39:16Z</time>
      </trkpt>
      <trkpt lat="45.17263" lon="5.94546">
        <ele>2251</ele>
        <time>2018-05-12T13:39:17Z</time>
      </trkpt>
      <trkpt lat="45.17255" lon="5.94515">
        <ele>2242.7</ele>
        <time>2018-05-12T13:39:20Z</time>
      </trkpt>
      <trkpt lat="45.17256" lon="5.94503">
        <ele>2240.9</ele>
        <time>2018-05-12T13:39:21Z</time>
      </trkpt>
      <trkpt lat="45.17267" lon="5.94471">
        <ele>2232.7</ele>
        <time>2018-05-12T13:39:25Z</time>
      </trkpt>
      <trkpt lat="45.17275" lon="5.94464">
        <ele>2231</ele>
        <time>2018-05-12T13:39:27Z</time>
      </trkpt>
      <trkpt lat="45.17278" lon="5.94457">
        <ele>2228.5</ele>
        <time>2018-05-12T13:39:28Z</time>
      </trkpt>
      <trkpt lat="45.17285" lon="5.94441">
        <ele>2224.6</ele>
        <time>2018-05-12T13:39:30Z</time>
      </trkpt>
      <trkpt lat="45.17285" lon="5.94433">
        <ele>2223.5</ele>
        <time>2018-05-12T13:39:31Z</time>
      </trkpt>
      <trkpt lat="45.17299" lon="5.94411">
        <ele>2218.4</ele>
        <time>2018-05-12T13:39:37Z</time>
      </trkpt>
      <trkpt lat="45.17307" lon="5.94406">
        <ele>2215.4</ele>
        <time>2018-05-12T13:39:39Z</time>
      </trkpt>
      <trkpt lat="45.17316" lon="5.94389">
        <ele>2215.2</ele>
        <time>2018-05-12T13:39:42Z</time>
      </trkpt>
      <trkpt lat="45.1732" lon="5.94377">
        <ele>2215.2</ele>
        <time>2018-05-12T13:39:44Z</time>
      </trkpt>
      <trkpt lat="45.17341" lon="5.94332">
        <ele>2205.7</ele>
        <time>2018-05-12T13:39:50Z</time>
      </trkpt>
      <trkpt lat="45.17349" lon="5.94307">
        <ele>2200</ele>
        <time>2018-05-12T13:39:54Z</time>
      </trkpt>
      <trkpt lat="45.17359" lon="5.94294">
        <ele>2196.2</ele>
        <time>2018-05-12T13:39:56Z</time>
      </trkpt>
      <trkpt lat="45.17358" lon="5.94277">
        <ele>2193.6</ele>
        <time>2018-05-12T13:39:58Z</time>
      </trkpt>
      <trkpt lat="45.17352" lon="5.9425">
        <ele>2190.7</ele>
        <time>2018-05-12T13:40:01Z</time>
      </trkpt>
      <trkpt lat="45.17352" lon="5.94242">
        <ele>2189.3</ele>
        <time>2018-05-12T13:40:02Z</time>
      </trkpt>
      <trkpt lat="45.17355" lon="5.94224">
        <ele>2185</ele>
        <time>2018-05-12T13:40:04Z</time>
      </trkpt>
      <trkpt lat="45.17359" lon="5.94214">
        <ele>2181.4</ele>
        <time>2018-05-12T13:40:05Z</time>
      </trkpt>
      <trkpt lat="45.17376" lon="5.9419">
        <ele>2174.1</ele>
        <time>2018-05-12T13:40:08Z</time>
      </trkpt>
      <trkpt lat="45.17384" lon="5.94185">
        <ele>2171.6</ele>
        <time>2018-05-12T13:40:11Z</time>
      </trkpt>
      <trkpt lat="45.17387" lon="5.9418">
        <ele>2170.2</ele>
        <time>2018-05-12T13:40:12Z</time>
      </trkpt>
      <trkpt lat="45.17392" lon="5.94165">
        <ele>2166</ele>
        <time>2018-05-12T13:40:14Z</time>
      </trkpt>
      <trkpt lat="45.17394" lon="5.9415">
        <ele>2163.7</ele>
        <time>2018-05-12T13:40:17Z</time>
      </trkpt>
      <trkpt lat="45.17403" lon="5.94135">
        <ele>2158.2</ele>
        <time>2018-05-12T13:41:16Z</time>
      </trkpt>
      <trkpt lat="45.17399" lon="5.94117">
        <ele>2153.7</ele>
        <time>2018-05-12T13:41:57Z</time>
      </trkpt>
      <trkpt lat="45.17394" lon="5.94105">
        <ele>2150.8</ele>
        <time>2018-05-12T13:41:59Z</time>
      </trkpt>
      <trkpt lat="45.17383" lon="5.9409">
        <ele>2145.9</ele>
        <time>2018-05-12T13:42:02Z</time>
      </trkpt>
      <trkpt lat="45.17373" lon="5.94057">
        <ele>2138.9</ele>
        <time>2018-05-12T13:42:07Z</time>
      </trkpt>
      <trkpt lat="45.17354" lon="5.9402">
        <ele>2131.2</ele>
        <time>2018-05-12T13:42:11Z</time>
      </trkpt>
      <trkpt lat="45.1735" lon="5.94008">
        <ele>2129.1</ele>
        <time>2018-05-12T13:42:12Z</time>
      </trkpt>
      <trkpt lat="45.17332" lon="5.9394">
        <ele>2118.8</ele>
        <time>2018-05-12T13:42:17Z</time>
      </trkpt>
      <trkpt lat="45.17315" lon="5.93911">
        <ele>2114.2</ele>
        <time>2018-05-12T13:42:20Z</time>
      </trkpt>
      <trkpt lat="45.1729" lon="5.93884">
        <ele>2105.7</ele>
        <time>2018-05-12T13:42:24Z</time>
      </trkpt>
      <trkpt lat="45.1728" lon="5.93871">
        <ele>2098.6</ele>
        <time>2018-05-12T13:42:26Z</time>
      </trkpt>
      <trkpt lat="45.17263" lon="5.93846">
        <ele>2080.1</ele>
        <time>2018-05-12T13:42:33Z</time>
      </trkpt>
      <trkpt lat="45.17259" lon="5.93841">
        <ele>2074.8</ele>
        <time>2018-05-12T13:42:35Z</time>
      </trkpt>
      <trkpt lat="45.17256" lon="5.93838">
        <ele>2074.1</ele>
        <time>2018-05-12T13:42:36Z</time>
      </trkpt>
      <trkpt lat="45.1725" lon="5.93832">
        <ele>2067.7</ele>
        <time>2018-05-12T13:42:38Z</time>
      </trkpt>
      <trkpt lat="45.17234" lon="5.93822">
        <ele>2067.3</ele>
        <time>2018-05-12T13:42:43Z</time>
      </trkpt>
      <trkpt lat="45.17211" lon="5.93801">
        <ele>2058.1</ele>
        <time>2018-05-12T13:45:59Z</time>
      </trkpt>
      <trkpt lat="45.1721" lon="5.93795">
        <ele>2055.6</ele>
        <time>2018-05-12T13:46:00Z</time>
      </trkpt>
      <trkpt lat="45.17197" lon="5.93774">
        <ele>2042.4</ele>
        <time>2018-05-12T13:46:05Z</time>
      </trkpt>
      <trkpt lat="45.17195" lon="5.93768">
        <ele>2039.1</ele>
        <time>2018-05-12T13:46:06Z</time>
      </trkpt>
      <trkpt lat="45.17191" lon="5.93764">
        <ele>2036.2</ele>
        <time>2018-05-12T13:46:07Z</time>
      </trkpt>
      <trkpt lat="45.17189" lon="5.93758">
        <ele>2032.1</ele>
        <time>2018-05-12T13:46:08Z</time>
      </trkpt>
      <trkpt lat="45.1718" lon="5.93746">
        <ele>2021.6</ele>
        <time>2018-05-12T13:46:11Z</time>
      </trkpt>
      <trkpt lat="45.17172" lon="5.93748">
        <ele>2016</ele>
        <time>2018-05-12T13:46:13Z</time>
      </trkpt>
      <trkpt lat="45.17164" lon="5.93744">
        <ele>2009</ele>
        <time>2018-05-12T13:46:15Z</time>
      </trkpt>
      <trkpt lat="45.1715" lon="5.93728">
        <ele>1996.8</ele>
        <time>2018-05-12T13:46:19Z</time>
      </trkpt>
      <trkpt lat="45.17145" lon="5.93718">
        <ele>1994.4</ele>
        <time>2018-05-12T13:46:21Z</time>
      </trkpt>
      <trkpt lat="45.17138" lon="5.93719">
        <ele>1993.5</ele>
        <time>2018-05-12T13:46:24Z</time>
      </trkpt>
      <trkpt lat="45.17136" lon="5.93713">
        <ele>1992.3</ele>
        <time>2018-05-12T13:46:26Z</time>
      </trkpt>
      <trkpt lat="45.17142" lon="5.93695">
        <ele>1989.2</ele>
        <time>2018-05-12T13:46:40Z</time>
      </trkpt>
      <trkpt lat="45.17158" lon="5.93691">
        <ele>1993.2</ele>
        <time>2018-05-12T13:47:54Z</time>
      </trkpt>
      <trkpt lat="45.17173" lon="5.93683">
        <ele>1994.4</ele>
        <time>2018-05-12T13:47:59Z</time>
      </trkpt>
      <trkpt lat="45.17182" lon="5.93681">
        <ele>1992.3</ele>
        <time>2018-05-12T13:48:02Z</time>
      </trkpt>
      <trkpt lat="45.17206" lon="5.9367">
        <ele>1988.3</ele>
        <time>2018-05-12T13:48:10Z</time>
      </trkpt>
      <trkpt lat="45.17222" lon="5.93665">
        <ele>1989.4</ele>
        <time>2018-05-12T13:48:15Z</time>
      </trkpt>
      <trkpt lat="45.17232" lon="5.9366">
        <ele>1986.8</ele>
        <time>2018-05-12T13:48:18Z</time>
      </trkpt>
      <trkpt lat="45.17237" lon="5.93654">
        <ele>1986.6</ele>
        <time>2018-05-12T13:48:20Z</time>
      </trkpt>
      <trkpt lat="45.17247" lon="5.93647">
        <ele>1985.9</ele>
        <time>2018-05-12T13:48:23Z</time>
      </trkpt>
      <trkpt lat="45.17263" lon="5.93641">
        <ele>1987.9</ele>
        <time>2018-05-12T13:48:27Z</time>
      </trkpt>
      <trkpt lat="45.17277" lon="5.93635">
        <ele>1987</ele>
        <time>2018-05-12T13:48:32Z</time>
      </trkpt>
      <trkpt lat="45.17285" lon="5.9363">
        <ele>1985.7</ele>
        <time>2018-05-12T13:48:38Z</time>
      </trkpt>
      <trkpt lat="45.17287" lon="5.93626">
        <ele>1985.1</ele>
        <time>2018-05-12T13:48:41Z</time>
      </trkpt>
      <trkpt lat="45.17299" lon="5.93623">
        <ele>1980.8</ele>
        <time>2018-05-12T13:52:55Z</time>
      </trkpt>
      <trkpt lat="45.17307" lon="5.93619">
        <ele>1979.4</ele>
        <time>2018-05-12T13:52:59Z</time>
      </trkpt>
      <trkpt lat="45.17317" lon="5.93618">
        <ele>1975.5</ele>
        <time>2018-05-12T13:53:05Z</time>
      </trkpt>
      <trkpt lat="45.1734" lon="5.93623">
        <ele>1968.2</ele>
        <time>2018-05-12T13:55:04Z</time>
      </trkpt>
      <trkpt lat="45.17343" lon="5.93621">
        <ele>1965.2</ele>
        <time>2018-05-12T13:55:05Z</time>
      </trkpt>
      <trkpt lat="45.17345" lon="5.93616">
        <ele>1962.3</ele>
        <time>2018-05-12T13:55:06Z</time>
      </trkpt>
      <trkpt lat="45.17349" lon="5.93613">
        <ele>1959.4</ele>
        <time>2018-05-12T13:55:07Z</time>
      </trkpt>
      <trkpt lat="45.17351" lon="5.93609">
        <ele>1956.6</ele>
        <time>2018-05-12T13:55:08Z</time>
      </trkpt>
      <trkpt lat="45.17355" lon="5.93605">
        <ele>1955.4</ele>
        <time>2018-05-12T13:55:09Z</time>
      </trkpt>
      <trkpt lat="45.17361" lon="5.93601">
        <ele>1951.2</ele>
        <time>2018-05-12T13:55:11Z</time>
      </trkpt>
      <trkpt lat="45.17361" lon="5.93596">
        <ele>1947.5</ele>
        <time>2018-05-12T13:55:12Z</time>
      </trkpt>
      <trkpt lat="45.17368" lon="5.9359">
        <ele>1945.3</ele>
        <time>2018-05-12T13:55:14Z</time>
      </trkpt>
      <trkpt lat="45.1737" lon="5.93584">
        <ele>1944.3</ele>
        <time>2018-05-12T13:55:15Z</time>
      </trkpt>
      <trkpt lat="45.17378" lon="5.93577">
        <ele>1942</ele>
        <time>2018-05-12T13:55:17Z</time>
      </trkpt>
      <trkpt lat="45.17382" lon="5.9357">
        <ele>1940.1</ele>
        <time>2018-05-12T13:55:18Z</time>
      </trkpt>
      <trkpt lat="45.17381" lon="5.93566">
        <ele>1939.1</ele>
        <time>2018-05-12T13:55:19Z</time>
      </trkpt>
      <trkpt lat="45.17371" lon="5.93557">
        <ele>1938</ele>
        <time>2018-05-12T13:55:23Z</time>
      </trkpt>
      <trkpt lat="45.17368" lon="5.93545">
        <ele>1938</ele>
        <time>2018-05-12T13:55:27Z</time>
      </trkpt>
      <trkpt lat="45.17366" lon="5.93539">
        <ele>1936</ele>
        <time>2018-05-12T13:55:29Z</time>
      </trkpt>
      <trkpt lat="45.17356" lon="5.93511">
        <ele>1934.1</ele>
        <time>2018-05-12T13:55:37Z</time>
      </trkpt>
      <trkpt lat="45.17353" lon="5.93506">
        <ele>1934.8</ele>
        <time>2018-05-12T13:55:38Z</time>
      </trkpt>
      <trkpt lat="45.1734" lon="5.93465">
        <ele>1929.3</ele>
        <time>2018-05-12T13:55:49Z</time>
      </trkpt>
      <trkpt lat="45.17338" lon="5.93463">
        <ele>1929.3</ele>
        <time>2018-05-12T13:55:52Z</time>
      </trkpt>
      <trkpt lat="45.17333" lon="5.93451">
        <ele>1928.7</ele>
        <time>2018-05-12T13:55:55Z</time>
      </trkpt>
      <trkpt lat="45.17312" lon="5.93414">
        <ele>1929.4</ele>
        <time>2018-05-12T13:56:03Z</time>
      </trkpt>
      <trkpt lat="45.17308" lon="5.93401">
        <ele>1930.1</ele>
        <time>2018-05-12T13:56:05Z</time>
      </trkpt>
      <trkpt lat="45.17308" lon="5.93396">
        <ele>1928.5</ele>
        <time>2018-05-12T13:56:06Z</time>
      </trkpt>
      <trkpt lat="45.17309" lon="5.93374">
        <ele>1927.1</ele>
        <time>2018-05-12T13:56:11Z</time>
      </trkpt>
      <trkpt lat="45.17311" lon="5.93365">
        <ele>1925.6</ele>
        <time>2018-05-12T13:56:13Z</time>
      </trkpt>
      <trkpt lat="45.1732" lon="5.93353">
        <ele>1923.1</ele>
        <time>2018-05-12T13:56:16Z</time>
      </trkpt>
      <trkpt lat="45.1733" lon="5.93343">
        <ele>1918.8</ele>
        <time>2018-05-12T13:56:19Z</time>
      </trkpt>
      <trkpt lat="45.17339" lon="5.93328">
        <ele>1915.1</ele>
        <time>2018-05-12T13:56:22Z</time>
      </trkpt>
      <trkpt lat="45.17343" lon="5.93317">
        <ele>1913.7</ele>
        <time>2018-05-12T13:56:28Z</time>
      </trkpt>
      <trkpt lat="45.17347" lon="5.93299">
        <ele>1912.5</ele>
        <time>2018-05-12T13:56:36Z</time>
      </trkpt>
      <trkpt lat="45.17349" lon="5.93292">
        <ele>1911.6</ele>
        <time>2018-05-12T13:56:42Z</time>
      </trkpt>
      <trkpt lat="45.17353" lon="5.93285">
        <ele>1910.5</ele>
        <time>2018-05-12T13:56:49Z</time>
      </trkpt>
      <trkpt lat="45.17364" lon="5.9327">
        <ele>1905.5</ele>
        <time>2018-05-12T13:56:54Z</time>
      </trkpt>
      <trkpt lat="45.17368" lon="5.93249">
        <ele>1902.7</ele>
        <time>2018-05-12T13:56:58Z</time>
      </trkpt>
      <trkpt lat="45.17368" lon="5.93242">
        <ele>1901.8</ele>
        <time>2018-05-12T13:57:00Z</time>
      </trkpt>
      <trkpt lat="45.17363" lon="5.93232">
        <ele>1902.9</ele>
        <time>2018-05-12T13:57:05Z</time>
      </trkpt>
      <trkpt lat="45.17363" lon="5.93223">
        <ele>1901</ele>
        <time>2018-05-12T13:57:09Z</time>
      </trkpt>
      <trkpt lat="45.17363" lon="5.93219">
        <ele>1901.9</ele>
        <time>2018-05-12T13:57:10Z</time>
      </trkpt>
      <trkpt lat="45.17361" lon="5.93192">
        <ele>1899.8</ele>
        <time>2018-05-12T13:57:16Z</time>
      </trkpt>
      <trkpt lat="45.17362" lon="5.93177">
        <ele>1898.8</ele>
        <time>2018-05-12T13:57:24Z</time>
      </trkpt>
      <trkpt lat="45.1736" lon="5.93156">
        <ele>1897.2</ele>
        <time>2018-05-12T13:57:34Z</time>
      </trkpt>
      <trkpt lat="45.17353" lon="5.93146">
        <ele>1899.5</ele>
        <time>2018-05-12T13:57:45Z</time>
      </trkpt>
      <trkpt lat="45.17352" lon="5.93142">
        <ele>1899.4</ele>
        <time>2018-05-12T13:57:47Z</time>
      </trkpt>
      <trkpt lat="45.17353" lon="5.93123">
        <ele>1895.6</ele>
        <time>2018-05-12T13:58:01Z</time>
      </trkpt>
      <trkpt lat="45.1735" lon="5.93122">
        <ele>1896.6</ele>
        <time>2018-05-12T13:58:03Z</time>
      </trkpt>
      <trkpt lat="45.17348" lon="5.93119">
        <ele>1895.6</ele>
        <time>2018-05-12T13:58:06Z</time>
      </trkpt>
      <trkpt lat="45.17339" lon="5.93119">
        <ele>1898.4</ele>
        <time>2018-05-12T13:58:20Z</time>
      </trkpt>
      <trkpt lat="45.17336" lon="5.93117">
        <ele>1899.5</ele>
        <time>2018-05-12T13:58:23Z</time>
      </trkpt>
      <trkpt lat="45.17336" lon="5.93111">
        <ele>1897.1</ele>
        <time>2018-05-12T13:58:25Z</time>
      </trkpt>
      <trkpt lat="45.17335" lon="5.93103">
        <ele>1896.9</ele>
        <time>2018-05-12T13:58:27Z</time>
      </trkpt>
      <trkpt lat="45.17333" lon="5.93096">
        <ele>1894.1</ele>
        <time>2018-05-12T13:58:29Z</time>
      </trkpt>
      <trkpt lat="45.17326" lon="5.93074">
        <ele>1890.2</ele>
        <time>2018-05-12T13:58:36Z</time>
      </trkpt>
      <trkpt lat="45.17324" lon="5.93065">
        <ele>1887.4</ele>
        <time>2018-05-12T13:58:39Z</time>
      </trkpt>
      <trkpt lat="45.17325" lon="5.9306">
        <ele>1884.3</ele>
        <time>2018-05-12T13:58:40Z</time>
      </trkpt>
      <trkpt lat="45.17323" lon="5.93056">
        <ele>1885.1</ele>
        <time>2018-05-12T13:58:41Z</time>
      </trkpt>
      <trkpt lat="45.17321" lon="5.93052">
        <ele>1883.6</ele>
        <time>2018-05-12T13:58:43Z</time>
      </trkpt>
      <trkpt lat="45.1733" lon="5.93046">
        <ele>1878</ele>
        <time>2018-05-12T13:58:47Z</time>
      </trkpt>
      <trkpt lat="45.17331" lon="5.93042">
        <ele>1876.5</ele>
        <time>2018-05-12T13:58:48Z</time>
      </trkpt>
      <trkpt lat="45.17328" lon="5.93035">
        <ele>1876.1</ele>
        <time>2018-05-12T13:58:51Z</time>
      </trkpt>
      <trkpt lat="45.17318" lon="5.92999">
        <ele>1864.7</ele>
        <time>2018-05-12T13:58:56Z</time>
      </trkpt>
      <trkpt lat="45.17307" lon="5.92978">
        <ele>1861.4</ele>
        <time>2018-05-12T13:58:59Z</time>
      </trkpt>
      <trkpt lat="45.17302" lon="5.92973">
        <ele>1862.1</ele>
        <time>2018-05-12T13:59:01Z</time>
      </trkpt>
      <trkpt lat="45.17296" lon="5.9296">
        <ele>1858.2</ele>
        <time>2018-05-12T13:59:04Z</time>
      </trkpt>
      <trkpt lat="45.17288" lon="5.92945">
        <ele>1857.1</ele>
        <time>2018-05-12T13:59:08Z</time>
      </trkpt>
      <trkpt lat="45.17284" lon="5.92929">
        <ele>1853.6</ele>
        <time>2018-05-12T13:59:11Z</time>
      </trkpt>
      <trkpt lat="45.17275" lon="5.92917">
        <ele>1852.6</ele>
        <time>2018-05-12T13:59:14Z</time>
      </trkpt>
      <trkpt lat="45.1727" lon="5.92905">
        <ele>1849.1</ele>
        <time>2018-05-12T13:59:16Z</time>
      </trkpt>
      <trkpt lat="45.17261" lon="5.92889">
        <ele>1848.7</ele>
        <time>2018-05-12T13:59:19Z</time>
      </trkpt>
      <trkpt lat="45.17246" lon="5.92871">
        <ele>1847.6</ele>
        <time>2018-05-12T13:59:23Z</time>
      </trkpt>
      <trkpt lat="45.17238" lon="5.92865">
        <ele>1850.4</ele>
        <time>2018-05-12T13:59:26Z</time>
      </trkpt>
      <trkpt lat="45.17233" lon="5.92862">
        <ele>1850</ele>
        <time>2018-05-12T13:59:28Z</time>
      </trkpt>
      <trkpt lat="45.17224" lon="5.92859">
        <ele>1854.7</ele>
        <time>2018-05-12T13:59:31Z</time>
      </trkpt>
      <trkpt lat="45.17211" lon="5.92845">
        <ele>1855.7</ele>
        <time>2018-05-12T13:59:50Z</time>
      </trkpt>
      <trkpt lat="45.17211" lon="5.92817">
        <ele>1844.8</ele>
        <time>2018-05-12T14:00:06Z</time>
      </trkpt>
      <trkpt lat="45.17208" lon="5.9281">
        <ele>1843.1</ele>
        <time>2018-05-12T14:00:25Z</time>
      </trkpt>
      <trkpt lat="45.17207" lon="5.92798">
        <ele>1838.3</ele>
        <time>2018-05-12T14:00:47Z</time>
      </trkpt>
      <trkpt lat="45.17205" lon="5.92794">
        <ele>1839.9</ele>
        <time>2018-05-12T14:00:51Z</time>
      </trkpt>
      <trkpt lat="45.17202" lon="5.92796">
        <ele>1841.5</ele>
        <time>2018-05-12T14:00:54Z</time>
      </trkpt>
      <trkpt lat="45.17197" lon="5.92794">
        <ele>1841.7</ele>
        <time>2018-05-12T14:01:04Z</time>
      </trkpt>
      <trkpt lat="45.17196" lon="5.9279">
        <ele>1841.8</ele>
        <time>2018-05-12T14:01:42Z</time>
      </trkpt>
      <trkpt lat="45.17194" lon="5.92787">
        <ele>1841.8</ele>
        <time>2018-05-12T14:01:46Z</time>
      </trkpt>
      <trkpt lat="45.1719" lon="5.92779">
        <ele>1842.1</ele>
        <time>2018-05-12T14:03:41Z</time>
      </trkpt>
      <trkpt lat="45.17189" lon="5.92774">
        <ele>1840.7</ele>
        <time>2018-05-12T14:03:44Z</time>
      </trkpt>
      <trkpt lat="45.1719" lon="5.92767">
        <ele>1838</ele>
        <time>2018-05-12T14:03:46Z</time>
      </trkpt>
      <trkpt lat="45.17187" lon="5.92758">
        <ele>1837.1</ele>
        <time>2018-05-12T14:03:58Z</time>
      </trkpt>
      <trkpt lat="45.17185" lon="5.92755">
        <ele>1835.8</ele>
        <time>2018-05-12T14:03:59Z</time>
      </trkpt>
      <trkpt lat="45.17182" lon="5.92752">
        <ele>1837.4</ele>
        <time>2018-05-12T14:04:01Z</time>
      </trkpt>
      <trkpt lat="45.17179" lon="5.92747">
        <ele>1836.4</ele>
        <time>2018-05-12T14:04:04Z</time>
      </trkpt>
      <trkpt lat="45.17178" lon="5.92741">
        <ele>1836.8</ele>
        <time>2018-05-12T14:04:06Z</time>
      </trkpt>
      <trkpt lat="45.17177" lon="5.92729">
        <ele>1833.4</ele>
        <time>2018-05-12T14:04:11Z</time>
      </trkpt>
      <trkpt lat="45.17174" lon="5.92721">
        <ele>1833.2</ele>
        <time>2018-05-12T14:04:13Z</time>
      </trkpt>
      <trkpt lat="45.17173" lon="5.92713">
        <ele>1832.4</ele>
        <time>2018-05-12T14:04:15Z</time>
      </trkpt>
      <trkpt lat="45.17174" lon="5.92708">
        <ele>1830.9</ele>
        <time>2018-05-12T14:04:16Z</time>
      </trkpt>
      <trkpt lat="45.17183" lon="5.92698">
        <ele>1824.5</ele>
        <time>2018-05-12T14:04:18Z</time>
      </trkpt>
      <trkpt lat="45.17192" lon="5.92681">
        <ele>1817.1</ele>
        <time>2018-05-12T14:04:21Z</time>
      </trkpt>
      <trkpt lat="45.17207" lon="5.92664">
        <ele>1806.8</ele>
        <time>2018-05-12T14:04:24Z</time>
      </trkpt>
      <trkpt lat="45.17255" lon="5.92633">
        <ele>1781.5</ele>
        <time>2018-05-12T14:04:32Z</time>
      </trkpt>
      <trkpt lat="45.17255" lon="5.92625">
        <ele>1781.6</ele>
        <time>2018-05-12T14:04:33Z</time>
      </trkpt>
      <trkpt lat="45.17256" lon="5.9262">
        <ele>1781.8</ele>
        <time>2018-05-12T14:04:34Z</time>
      </trkpt>
      <trkpt lat="45.17262" lon="5.92609">
        <ele>1779.7</ele>
        <time>2018-05-12T14:04:36Z</time>
      </trkpt>
      <trkpt lat="45.17266" lon="5.92588">
        <ele>1778.5</ele>
        <time>2018-05-12T14:04:39Z</time>
      </trkpt>
      <trkpt lat="45.17282" lon="5.92563">
        <ele>1773.6</ele>
        <time>2018-05-12T14:04:49Z</time>
      </trkpt>
      <trkpt lat="45.17284" lon="5.92558">
        <ele>1775</ele>
        <time>2018-05-12T14:04:51Z</time>
      </trkpt>
      <trkpt lat="45.17286" lon="5.92555">
        <ele>1773.5</ele>
        <time>2018-05-12T14:04:53Z</time>
      </trkpt>
      <trkpt lat="45.17294" lon="5.92551">
        <ele>1770.4</ele>
        <time>2018-05-12T14:04:56Z</time>
      </trkpt>
      <trkpt lat="45.17296" lon="5.92557">
        <ele>1769.8</ele>
        <time>2018-05-12T14:04:57Z</time>
      </trkpt>
      <trkpt lat="45.17293" lon="5.9256">
        <ele>1769.1</ele>
        <time>2018-05-12T14:04:58Z</time>
      </trkpt>
      <trkpt lat="45.17294" lon="5.92578">
        <ele>1767.4</ele>
        <time>2018-05-12T14:05:04Z</time>
      </trkpt>
      <trkpt lat="45.1731" lon="5.92568">
        <ele>1763</ele>
        <time>2018-05-12T14:05:20Z</time>
      </trkpt>
      <trkpt lat="45.17318" lon="5.92565">
        <ele>1760.4</ele>
        <time>2018-05-12T14:05:22Z</time>
      </trkpt>
      <trkpt lat="45.17323" lon="5.92556">
        <ele>1760.2</ele>
        <time>2018-05-12T14:05:24Z</time>
      </trkpt>
      <trkpt lat="45.17341" lon="5.92528">
        <ele>1755.5</ele>
        <time>2018-05-12T14:05:32Z</time>
      </trkpt>
      <trkpt lat="45.17346" lon="5.92513">
        <ele>1755.3</ele>
        <time>2018-05-12T14:06:11Z</time>
      </trkpt>
      <trkpt lat="45.1735" lon="5.9249">
        <ele>1757.2</ele>
        <time>2018-05-12T14:06:23Z</time>
      </trkpt>
      <trkpt lat="45.17361" lon="5.9247">
        <ele>1754.2</ele>
        <time>2018-05-12T14:06:43Z</time>
      </trkpt>
      <trkpt lat="45.17373" lon="5.92457">
        <ele>1750.6</ele>
        <time>2018-05-12T14:06:46Z</time>
      </trkpt>
      <trkpt lat="45.17379" lon="5.92448">
        <ele>1749.6</ele>
        <time>2018-05-12T14:06:48Z</time>
      </trkpt>
      <trkpt lat="45.17384" lon="5.92445">
        <ele>1749.3</ele>
        <time>2018-05-12T14:06:49Z</time>
      </trkpt>
      <trkpt lat="45.17403" lon="5.92417">
        <ele>1747.7</ele>
        <time>2018-05-12T14:06:57Z</time>
      </trkpt>
      <trkpt lat="45.17408" lon="5.92415">
        <ele>1746.8</ele>
        <time>2018-05-12T14:06:58Z</time>
      </trkpt>
      <trkpt lat="45.17411" lon="5.9242">
        <ele>1745.6</ele>
        <time>2018-05-12T14:06:59Z</time>
      </trkpt>
      <trkpt lat="45.17411" lon="5.92427">
        <ele>1741.9</ele>
        <time>2018-05-12T14:07:00Z</time>
      </trkpt>
      <trkpt lat="45.17413" lon="5.92439">
        <ele>1738.3</ele>
        <time>2018-05-12T14:07:02Z</time>
      </trkpt>
      <trkpt lat="45.17416" lon="5.92446">
        <ele>1734.9</ele>
        <time>2018-05-12T14:07:04Z</time>
      </trkpt>
      <trkpt lat="45.17419" lon="5.92448">
        <ele>1733.6</ele>
        <time>2018-05-12T14:07:05Z</time>
      </trkpt>
      <trkpt lat="45.17423" lon="5.92447">
        <ele>1732.4</ele>
        <time>2018-05-12T14:07:07Z</time>
      </trkpt>
      <trkpt lat="45.17424" lon="5.92441">
        <ele>1733.3</ele>
        <time>2018-05-12T14:07:09Z</time>
      </trkpt>
      <trkpt lat="45.17436" lon="5.92438">
        <ele>1728.6</ele>
        <time>2018-05-12T14:07:40Z</time>
      </trkpt>
      <trkpt lat="45.17445" lon="5.9243">
        <ele>1727</ele>
        <time>2018-05-12T14:07:57Z</time>
      </trkpt>
      <trkpt lat="45.1745" lon="5.92401">
        <ele>1732.8</ele>
        <time>2018-05-12T14:08:03Z</time>
      </trkpt>
      <trkpt lat="45.17452" lon="5.92399">
        <ele>1732.3</ele>
        <time>2018-05-12T14:08:05Z</time>
      </trkpt>
      <trkpt lat="45.17455" lon="5.92398">
        <ele>1731</ele>
        <time>2018-05-12T14:08:07Z</time>
      </trkpt>
      <trkpt lat="45.17467" lon="5.92407">
        <ele>1723.5</ele>
        <time>2018-05-12T14:08:21Z</time>
      </trkpt>
      <trkpt lat="45.17489" lon="5.92396">
        <ele>1720.8</ele>
        <time>2018-05-12T14:09:33Z</time>
      </trkpt>
      <trkpt lat="45.17494" lon="5.924">
        <ele>1716.6</ele>
        <time>2018-05-12T14:10:49Z</time>
      </trkpt>
      <trkpt lat="45.17493" lon="5.92403">
        <ele>1714.4</ele>
        <time>2018-05-12T14:11:48Z</time>
      </trkpt>
      <trkpt lat="45.17492" lon="5.92399">
        <ele>1712.8</ele>
        <time>2018-05-12T14:12:01Z</time>
      </trkpt>
      <trkpt lat="45.17494" lon="5.92397">
        <ele>1711.3</ele>
        <time>2018-05-12T14:12:24Z</time>
      </trkpt>
      <trkpt lat="45.17496" lon="5.92399">
        <ele>1710</ele>
        <time>2018-05-12T14:14:47Z</time>
      </trkpt>
      <trkpt lat="45.17499" lon="5.92399">
        <ele>1708.8</ele>
        <time>2018-05-12T14:16:41Z</time>
      </trkpt>
      <trkpt lat="45.17505" lon="5.92393">
        <ele>1705.8</ele>
        <time>2018-05-12T14:16:50Z</time>
      </trkpt>
      <trkpt lat="45.17511" lon="5.92392">
        <ele>1702.3</ele>
        <time>2018-05-12T14:17:00Z</time>
      </trkpt>
      <trkpt lat="45.17517" lon="5.92385">
        <ele>1699.2</ele>
        <time>2018-05-12T14:17:06Z</time>
      </trkpt>
      <trkpt lat="45.17526" lon="5.92379">
        <ele>1696.1</ele>
        <time>2018-05-12T14:17:18Z</time>
      </trkpt>
      <trkpt lat="45.17534" lon="5.92368">
        <ele>1695</ele>
        <time>2018-05-12T14:17:29Z</time>
      </trkpt>
      <trkpt lat="45.17538" lon="5.92359">
        <ele>1696.6</ele>
        <time>2018-05-12T14:17:33Z</time>
      </trkpt>
      <trkpt lat="45.17538" lon="5.9235">
        <ele>1698.9</ele>
        <time>2018-05-12T14:17:42Z</time>
      </trkpt>
      <trkpt lat="45.17532" lon="5.92331">
        <ele>1704.6</ele>
        <time>2018-05-12T14:18:01Z</time>
      </trkpt>
      <trkpt lat="45.1752" lon="5.92307">
        <ele>1715.8</ele>
        <time>2018-05-12T14:18:15Z</time>
      </trkpt>
      <trkpt lat="45.17519" lon="5.92299">
        <ele>1716.2</ele>
        <time>2018-05-12T14:18:19Z</time>
      </trkpt>
      <trkpt lat="45.1752" lon="5.92289">
        <ele>1716.1</ele>
        <time>2018-05-12T14:18:24Z</time>
      </trkpt>
      <trkpt lat="45.17527" lon="5.9228">
        <ele>1715.6</ele>
        <time>2018-05-12T14:18:37Z</time>
      </trkpt>
      <trkpt lat="45.17531" lon="5.92272">
        <ele>1717.4</ele>
        <time>2018-05-12T14:18:46Z</time>
      </trkpt>
      <trkpt lat="45.17532" lon="5.92268">
        <ele>1718.1</ele>
        <time>2018-05-12T14:18:49Z</time>
      </trkpt>
      <trkpt lat="45.17534" lon="5.92256">
        <ele>1716.2</ele>
        <time>2018-05-12T14:18:59Z</time>
      </trkpt>
      <trkpt lat="45.17547" lon="5.92227">
        <ele>1717.9</ele>
        <time>2018-05-12T14:19:20Z</time>
      </trkpt>
      <trkpt lat="45.1755" lon="5.9221">
        <ele>1715.4</ele>
        <time>2018-05-12T14:19:29Z</time>
      </trkpt>
      <trkpt lat="45.17554" lon="5.92204">
        <ele>1714</ele>
        <time>2018-05-12T14:19:35Z</time>
      </trkpt>
      <trkpt lat="45.17562" lon="5.92195">
        <ele>1713.2</ele>
        <time>2018-05-12T14:19:43Z</time>
      </trkpt>
      <trkpt lat="45.17566" lon="5.92182">
        <ele>1711.4</ele>
        <time>2018-05-12T14:19:51Z</time>
      </trkpt>
      <trkpt lat="45.17571" lon="5.92175">
        <ele>1710.2</ele>
        <time>2018-05-12T14:19:57Z</time>
      </trkpt>
      <trkpt lat="45.17575" lon="5.92163">
        <ele>1708.5</ele>
        <time>2018-05-12T14:20:06Z</time>
      </trkpt>
      <trkpt lat="45.17581" lon="5.92153">
        <ele>1708.9</ele>
        <time>2018-05-12T14:20:15Z</time>
      </trkpt>
      <trkpt lat="45.1759" lon="5.92147">
        <ele>1707.5</ele>
        <time>2018-05-12T14:20:25Z</time>
      </trkpt>
      <trkpt lat="45.17589" lon="5.92143">
        <ele>1707.2</ele>
        <time>2018-05-12T14:20:27Z</time>
      </trkpt>
      <trkpt lat="45.17594" lon="5.92132">
        <ele>1706.8</ele>
        <time>2018-05-12T14:20:36Z</time>
      </trkpt>
      <trkpt lat="45.1761" lon="5.9211">
        <ele>1706.4</ele>
        <time>2018-05-12T14:20:51Z</time>
      </trkpt>
      <trkpt lat="45.17612" lon="5.921">
        <ele>1705.1</ele>
        <time>2018-05-12T14:20:59Z</time>
      </trkpt>
      <trkpt lat="45.17616" lon="5.92097">
        <ele>1704.4</ele>
        <time>2018-05-12T14:21:01Z</time>
      </trkpt>
      <trkpt lat="45.17622" lon="5.92084">
        <ele>1703.1</ele>
        <time>2018-05-12T14:21:08Z</time>
      </trkpt>
      <trkpt lat="45.17634" lon="5.92074">
        <ele>1699.7</ele>
        <time>2018-05-12T14:21:23Z</time>
      </trkpt>
      <trkpt lat="45.17641" lon="5.92073">
        <ele>1695.1</ele>
        <time>2018-05-12T14:21:29Z</time>
      </trkpt>
      <trkpt lat="45.17652" lon="5.92065">
        <ele>1686.8</ele>
        <time>2018-05-12T14:21:36Z</time>
      </trkpt>
      <trkpt lat="45.17659" lon="5.92063">
        <ele>1684.2</ele>
        <time>2018-05-12T14:21:40Z</time>
      </trkpt>
      <trkpt lat="45.17663" lon="5.92055">
        <ele>1679.4</ele>
        <time>2018-05-12T14:21:48Z</time>
      </trkpt>
      <trkpt lat="45.17664" lon="5.92051">
        <ele>1677.2</ele>
        <time>2018-05-12T14:21:50Z</time>
      </trkpt>
      <trkpt lat="45.17666" lon="5.92037">
        <ele>1676</ele>
        <time>2018-05-12T14:21:57Z</time>
      </trkpt>
      <trkpt lat="45.17683" lon="5.91993">
        <ele>1678.2</ele>
        <time>2018-05-12T14:22:25Z</time>
      </trkpt>
      <trkpt lat="45.17696" lon="5.91985">
        <ele>1675.8</ele>
        <time>2018-05-12T14:22:35Z</time>
      </trkpt>
      <trkpt lat="45.17703" lon="5.91977">
        <ele>1674.1</ele>
        <time>2018-05-12T14:22:44Z</time>
      </trkpt>
      <trkpt lat="45.17708" lon="5.91963">
        <ele>1671.2</ele>
        <time>2018-05-12T14:22:54Z</time>
      </trkpt>
      <trkpt lat="45.17713" lon="5.91936">
        <ele>1672.6</ele>
        <time>2018-05-12T14:23:04Z</time>
      </trkpt>
      <trkpt lat="45.17709" lon="5.91929">
        <ele>1673.2</ele>
        <time>2018-05-12T14:23:14Z</time>
      </trkpt>
      <trkpt lat="45.17701" lon="5.91924">
        <ele>1673.6</ele>
        <time>2018-05-12T14:23:18Z</time>
      </trkpt>
      <trkpt lat="45.17699" lon="5.9192">
        <ele>1673.4</ele>
        <time>2018-05-12T14:23:21Z</time>
      </trkpt>
      <trkpt lat="45.17699" lon="5.91916">
        <ele>1673.1</ele>
        <time>2018-05-12T14:23:23Z</time>
      </trkpt>
      <trkpt lat="45.17693" lon="5.91898">
        <ele>1674.8</ele>
        <time>2018-05-12T14:23:30Z</time>
      </trkpt>
      <trkpt lat="45.17703" lon="5.91897">
        <ele>1674.4</ele>
        <time>2018-05-12T14:23:39Z</time>
      </trkpt>
      <trkpt lat="45.17715" lon="5.91893">
        <ele>1670.6</ele>
        <time>2018-05-12T14:23:50Z</time>
      </trkpt>
      <trkpt lat="45.17721" lon="5.91894">
        <ele>1668.4</ele>
        <time>2018-05-12T14:23:56Z</time>
      </trkpt>
      <trkpt lat="45.17729" lon="5.91889">
        <ele>1665.3</ele>
        <time>2018-05-12T14:24:01Z</time>
      </trkpt>
      <trkpt lat="45.17731" lon="5.91886">
        <ele>1664.2</ele>
        <time>2018-05-12T14:24:04Z</time>
      </trkpt>
      <trkpt lat="45.17727" lon="5.91879">
        <ele>1662.7</ele>
        <time>2018-05-12T14:24:08Z</time>
      </trkpt>
      <trkpt lat="45.17717" lon="5.91868">
        <ele>1663.6</ele>
        <time>2018-05-12T14:24:19Z</time>
      </trkpt>
      <trkpt lat="45.17719" lon="5.91866">
        <ele>1662.9</ele>
        <time>2018-05-12T14:24:30Z</time>
      </trkpt>
      <trkpt lat="45.17728" lon="5.91862">
        <ele>1659.4</ele>
        <time>2018-05-12T14:24:39Z</time>
      </trkpt>
      <trkpt lat="45.17754" lon="5.91856">
        <ele>1648.8</ele>
        <time>2018-05-12T14:24:54Z</time>
      </trkpt>
      <trkpt lat="45.1776" lon="5.91858">
        <ele>1646.5</ele>
        <time>2018-05-12T14:25:00Z</time>
      </trkpt>
      <trkpt lat="45.17766" lon="5.91855">
        <ele>1644.1</ele>
        <time>2018-05-12T14:25:02Z</time>
      </trkpt>
      <trkpt lat="45.17768" lon="5.91852">
        <ele>1643.1</ele>
        <time>2018-05-12T14:25:05Z</time>
      </trkpt>
      <trkpt lat="45.17761" lon="5.91842">
        <ele>1644.1</ele>
        <time>2018-05-12T14:25:10Z</time>
      </trkpt>
      <trkpt lat="45.17756" lon="5.91839">
        <ele>1644.1</ele>
        <time>2018-05-12T14:25:14Z</time>
      </trkpt>
      <trkpt lat="45.1775" lon="5.91833">
        <ele>1641.9</ele>
        <time>2018-05-12T14:25:17Z</time>
      </trkpt>
      <trkpt lat="45.17757" lon="5.91826">
        <ele>1638</ele>
        <time>2018-05-12T14:25:33Z</time>
      </trkpt>
      <trkpt lat="45.17764" lon="5.91823">
        <ele>1636.6</ele>
        <time>2018-05-12T14:25:35Z</time>
      </trkpt>
      <trkpt lat="45.17773" lon="5.91827">
        <ele>1632.7</ele>
        <time>2018-05-12T14:25:46Z</time>
      </trkpt>
      <trkpt lat="45.17776" lon="5.91825">
        <ele>1631</ele>
        <time>2018-05-12T14:25:50Z</time>
      </trkpt>
      <trkpt lat="45.17782" lon="5.91827">
        <ele>1628.6</ele>
        <time>2018-05-12T14:25:52Z</time>
      </trkpt>
      <trkpt lat="45.17783" lon="5.91822">
        <ele>1629.1</ele>
        <time>2018-05-12T14:25:56Z</time>
      </trkpt>
      <trkpt lat="45.17782" lon="5.91818">
        <ele>1629.6</ele>
        <time>2018-05-12T14:25:59Z</time>
      </trkpt>
      <trkpt lat="45.17778" lon="5.91815">
        <ele>1630.2</ele>
        <time>2018-05-12T14:26:01Z</time>
      </trkpt>
      <trkpt lat="45.17773" lon="5.91807">
        <ele>1631.2</ele>
        <time>2018-05-12T14:26:07Z</time>
      </trkpt>
      <trkpt lat="45.17767" lon="5.91802">
        <ele>1630.4</ele>
        <time>2018-05-12T14:26:11Z</time>
      </trkpt>
      <trkpt lat="45.1777" lon="5.91799">
        <ele>1629.5</ele>
        <time>2018-05-12T14:26:16Z</time>
      </trkpt>
      <trkpt lat="45.17783" lon="5.91797">
        <ele>1623.7</ele>
        <time>2018-05-12T14:26:29Z</time>
      </trkpt>
      <trkpt lat="45.17789" lon="5.91799">
        <ele>1620.9</ele>
        <time>2018-05-12T14:26:35Z</time>
      </trkpt>
      <trkpt lat="45.17792" lon="5.91797">
        <ele>1619.6</ele>
        <time>2018-05-12T14:26:37Z</time>
      </trkpt>
      <trkpt lat="45.17799" lon="5.91798">
        <ele>1617.7</ele>
        <time>2018-05-12T14:26:42Z</time>
      </trkpt>
      <trkpt lat="45.17803" lon="5.91796">
        <ele>1616.2</ele>
        <time>2018-05-12T14:26:45Z</time>
      </trkpt>
      <trkpt lat="45.17801" lon="5.91783">
        <ele>1611.4</ele>
        <time>2018-05-12T14:26:51Z</time>
      </trkpt>
      <trkpt lat="45.17795" lon="5.91774">
        <ele>1611.7</ele>
        <time>2018-05-12T14:26:58Z</time>
      </trkpt>
      <trkpt lat="45.17788" lon="5.9177">
        <ele>1612.3</ele>
        <time>2018-05-12T14:27:04Z</time>
      </trkpt>
      <trkpt lat="45.17778" lon="5.91759">
        <ele>1611.1</ele>
        <time>2018-05-12T14:27:10Z</time>
      </trkpt>
      <trkpt lat="45.17768" lon="5.91754">
        <ele>1611.2</ele>
        <time>2018-05-12T14:27:24Z</time>
      </trkpt>
      <trkpt lat="45.17756" lon="5.91744">
        <ele>1610.7</ele>
        <time>2018-05-12T14:27:35Z</time>
      </trkpt>
      <trkpt lat="45.17748" lon="5.91743">
        <ele>1612</ele>
        <time>2018-05-12T14:27:41Z</time>
      </trkpt>
      <trkpt lat="45.1775" lon="5.91741">
        <ele>1610.9</ele>
        <time>2018-05-12T14:27:51Z</time>
      </trkpt>
      <trkpt lat="45.17765" lon="5.91742">
        <ele>1604</ele>
        <time>2018-05-12T14:28:00Z</time>
      </trkpt>
      <trkpt lat="45.17775" lon="5.91734">
        <ele>1601</ele>
        <time>2018-05-12T14:28:12Z</time>
      </trkpt>
      <trkpt lat="45.17772" lon="5.9173">
        <ele>1599.5</ele>
        <time>2018-05-12T14:28:17Z</time>
      </trkpt>
      <trkpt lat="45.17788" lon="5.91727">
        <ele>1592.8</ele>
        <time>2018-05-12T14:28:32Z</time>
      </trkpt>
      <trkpt lat="45.17792" lon="5.91721">
        <ele>1590.1</ele>
        <time>2018-05-12T14:28:36Z</time>
      </trkpt>
      <trkpt lat="45.178" lon="5.9172">
        <ele>1587.4</ele>
        <time>2018-05-12T14:28:42Z</time>
      </trkpt>
      <trkpt lat="45.17806" lon="5.91714">
        <ele>1585.6</ele>
        <time>2018-05-12T14:28:46Z</time>
      </trkpt>
      <trkpt lat="45.17813" lon="5.91715">
        <ele>1582.8</ele>
        <time>2018-05-12T14:28:52Z</time>
      </trkpt>
      <trkpt lat="45.17845" lon="5.91708">
        <ele>1573.7</ele>
        <time>2018-05-12T14:29:08Z</time>
      </trkpt>
      <trkpt lat="45.17835" lon="5.91696">
        <ele>1573.3</ele>
        <time>2018-05-12T14:29:13Z</time>
      </trkpt>
      <trkpt lat="45.17827" lon="5.91691">
        <ele>1573.3</ele>
        <time>2018-05-12T14:29:21Z</time>
      </trkpt>
      <trkpt lat="45.17817" lon="5.91678">
        <ele>1571</ele>
        <time>2018-05-12T14:29:28Z</time>
      </trkpt>
      <trkpt lat="45.17814" lon="5.91676">
        <ele>1570.7</ele>
        <time>2018-05-12T14:29:31Z</time>
      </trkpt>
      <trkpt lat="45.17808" lon="5.91678">
        <ele>1570</ele>
        <time>2018-05-12T14:29:34Z</time>
      </trkpt>
      <trkpt lat="45.17803" lon="5.91673">
        <ele>1568.8</ele>
        <time>2018-05-12T14:29:40Z</time>
      </trkpt>
      <trkpt lat="45.178" lon="5.91672">
        <ele>1568.2</ele>
        <time>2018-05-12T14:29:43Z</time>
      </trkpt>
      <trkpt lat="45.17797" lon="5.91667">
        <ele>1567.1</ele>
        <time>2018-05-12T14:29:45Z</time>
      </trkpt>
      <trkpt lat="45.17799" lon="5.91664">
        <ele>1566.5</ele>
        <time>2018-05-12T14:29:51Z</time>
      </trkpt>
      <trkpt lat="45.17806" lon="5.91657">
        <ele>1564.9</ele>
        <time>2018-05-12T14:29:58Z</time>
      </trkpt>
      <trkpt lat="45.1781" lon="5.91659">
        <ele>1564.7</ele>
        <time>2018-05-12T14:37:03Z</time>
      </trkpt>
      <trkpt lat="45.17821" lon="5.91651">
        <ele>1562</ele>
        <time>2018-05-12T14:37:15Z</time>
      </trkpt>
      <trkpt lat="45.17829" lon="5.9165">
        <ele>1560.6</ele>
        <time>2018-05-12T14:37:18Z</time>
      </trkpt>
      <trkpt lat="45.17841" lon="5.91645">
        <ele>1558.7</ele>
        <time>2018-05-12T14:37:24Z</time>
      </trkpt>
      <trkpt lat="45.17861" lon="5.9163">
        <ele>1554.6</ele>
        <time>2018-05-12T14:37:39Z</time>
      </trkpt>
      <trkpt lat="45.17882" lon="5.91612">
        <ele>1548.7</ele>
        <time>2018-05-12T14:37:54Z</time>
      </trkpt>
      <trkpt lat="45.17893" lon="5.91608">
        <ele>1545.5</ele>
        <time>2018-05-12T14:38:02Z</time>
      </trkpt>
      <trkpt lat="45.17919" lon="5.91602">
        <ele>1539.2</ele>
        <time>2018-05-12T14:38:17Z</time>
      </trkpt>
      <trkpt lat="45.17923" lon="5.916">
        <ele>1538</ele>
        <time>2018-05-12T14:38:20Z</time>
      </trkpt>
      <trkpt lat="45.1795" lon="5.91596">
        <ele>1531.9</ele>
        <time>2018-05-12T14:38:34Z</time>
      </trkpt>
      <trkpt lat="45.17972" lon="5.91587">
        <ele>1527.2</ele>
        <time>2018-05-12T14:38:46Z</time>
      </trkpt>
      <trkpt lat="45.17999" lon="5.91587">
        <ele>1523.2</ele>
        <time>2018-05-12T14:39:05Z</time>
      </trkpt>
      <trkpt lat="45.18013" lon="5.9159">
        <ele>1521.4</ele>
        <time>2018-05-12T14:39:15Z</time>
      </trkpt>
      <trkpt lat="45.18047" lon="5.91585">
        <ele>1518.6</ele>
        <time>2018-05-12T14:39:35Z</time>
      </trkpt>
      <trkpt lat="45.18063" lon="5.91581">
        <ele>1516.8</ele>
        <time>2018-05-12T14:39:43Z</time>
      </trkpt>
      <trkpt lat="45.18074" lon="5.91581">
        <ele>1515.9</ele>
        <time>2018-05-12T14:39:52Z</time>
      </trkpt>
      <trkpt lat="45.18091" lon="5.91571">
        <ele>1515.1</ele>
        <time>2018-05-12T14:40:10Z</time>
      </trkpt>
      <trkpt lat="45.18106" lon="5.91566">
        <ele>1514.1</ele>
        <time>2018-05-12T14:40:17Z</time>
      </trkpt>
      <trkpt lat="45.18123" lon="5.91544">
        <ele>1511.9</ele>
        <time>2018-05-12T14:40:26Z</time>
      </trkpt>
      <trkpt lat="45.18127" lon="5.91531">
        <ele>1510.2</ele>
        <time>2018-05-12T14:40:33Z</time>
      </trkpt>
      <trkpt lat="45.18123" lon="5.9151">
        <ele>1505.6</ele>
        <time>2018-05-12T14:40:42Z</time>
      </trkpt>
      <trkpt lat="45.18116" lon="5.91486">
        <ele>1502.3</ele>
        <time>2018-05-12T14:40:51Z</time>
      </trkpt>
      <trkpt lat="45.18118" lon="5.91478">
        <ele>1500.8</ele>
        <time>2018-05-12T14:40:55Z</time>
      </trkpt>
      <trkpt lat="45.18128" lon="5.91468">
        <ele>1497.9</ele>
        <time>2018-05-12T14:41:02Z</time>
      </trkpt>
      <trkpt lat="45.18134" lon="5.91466">
        <ele>1497</ele>
        <time>2018-05-12T14:41:07Z</time>
      </trkpt>
      <trkpt lat="45.18143" lon="5.91464">
        <ele>1495.8</ele>
        <time>2018-05-12T14:41:16Z</time>
      </trkpt>
      <trkpt lat="45.18149" lon="5.91466">
        <ele>1495.1</ele>
        <time>2018-05-12T14:41:20Z</time>
      </trkpt>
      <trkpt lat="45.18161" lon="5.91466">
        <ele>1493.2</ele>
        <time>2018-05-12T14:41:27Z</time>
      </trkpt>
      <trkpt lat="45.18172" lon="5.9146">
        <ele>1491</ele>
        <time>2018-05-12T14:41:35Z</time>
      </trkpt>
      <trkpt lat="45.1818" lon="5.91459">
        <ele>1491</ele>
        <time>2018-05-12T14:41:38Z</time>
      </trkpt>
      <trkpt lat="45.18187" lon="5.91452">
        <ele>1490.5</ele>
        <time>2018-05-12T14:41:42Z</time>
      </trkpt>
      <trkpt lat="45.18185" lon="5.91449">
        <ele>1490.1</ele>
        <time>2018-05-12T14:41:45Z</time>
      </trkpt>
      <trkpt lat="45.18181" lon="5.91447">
        <ele>1489.5</ele>
        <time>2018-05-12T14:41:48Z</time>
      </trkpt>
      <trkpt lat="45.18176" lon="5.91438">
        <ele>1488.4</ele>
        <time>2018-05-12T14:41:52Z</time>
      </trkpt>
      <trkpt lat="45.18174" lon="5.91427">
        <ele>1487.2</ele>
        <time>2018-05-12T14:41:56Z</time>
      </trkpt>
      <trkpt lat="45.18169" lon="5.91418">
        <ele>1486</ele>
        <time>2018-05-12T14:42:02Z</time>
      </trkpt>
      <trkpt lat="45.18169" lon="5.91413">
        <ele>1485.5</ele>
        <time>2018-05-12T14:42:05Z</time>
      </trkpt>
      <trkpt lat="45.18173" lon="5.91408">
        <ele>1484.7</ele>
        <time>2018-05-12T14:42:09Z</time>
      </trkpt>
      <trkpt lat="45.18177" lon="5.91408">
        <ele>1484.1</ele>
        <time>2018-05-12T14:42:12Z</time>
      </trkpt>
      <trkpt lat="45.18179" lon="5.91404">
        <ele>1482.9</ele>
        <time>2018-05-12T14:42:18Z</time>
      </trkpt>
      <trkpt lat="45.18183" lon="5.91402">
        <ele>1481.3</ele>
        <time>2018-05-12T14:42:22Z</time>
      </trkpt>
      <trkpt lat="45.18192" lon="5.91382">
        <ele>1473.4</ele>
        <time>2018-05-12T14:42:36Z</time>
      </trkpt>
      <trkpt lat="45.18202" lon="5.91375">
        <ele>1470.4</ele>
        <time>2018-05-12T14:42:45Z</time>
      </trkpt>
      <trkpt lat="45.18208" lon="5.91368">
        <ele>1466.8</ele>
        <time>2018-05-12T14:42:51Z</time>
      </trkpt>
      <trkpt lat="45.18209" lon="5.91365">
        <ele>1466.5</ele>
        <time>2018-05-12T14:42:55Z</time>
      </trkpt>
      <trkpt lat="45.18209" lon="5.91351">
        <ele>1460.8</ele>
        <time>2018-05-12T14:43:07Z</time>
      </trkpt>
      <trkpt lat="45.18208" lon="5.91347">
        <ele>1459.2</ele>
        <time>2018-05-12T14:43:10Z</time>
      </trkpt>
      <trkpt lat="45.18197" lon="5.91332">
        <ele>1455.2</ele>
        <time>2018-05-12T14:43:28Z</time>
      </trkpt>
      <trkpt lat="45.18208" lon="5.91322">
        <ele>1450.1</ele>
        <time>2018-05-12T14:43:45Z</time>
      </trkpt>
      <trkpt lat="45.18209" lon="5.91315">
        <ele>1447.1</ele>
        <time>2018-05-12T14:43:46Z</time>
      </trkpt>
      <trkpt lat="45.18212" lon="5.91312">
        <ele>1445</ele>
        <time>2018-05-12T14:43:48Z</time>
      </trkpt>
      <trkpt lat="45.18221" lon="5.91306">
        <ele>1441.3</ele>
        <time>2018-05-12T14:44:02Z</time>
      </trkpt>
      <trkpt lat="45.18219" lon="5.91298">
        <ele>1437.7</ele>
        <time>2018-05-12T14:44:10Z</time>
      </trkpt>
      <trkpt lat="45.18219" lon="5.91292">
        <ele>1434.6</ele>
        <time>2018-05-12T14:44:11Z</time>
      </trkpt>
      <trkpt lat="45.18214" lon="5.91275">
        <ele>1430.4</ele>
        <time>2018-05-12T14:44:35Z</time>
      </trkpt>
      <trkpt lat="45.18215" lon="5.91262">
        <ele>1424.1</ele>
        <time>2018-05-12T14:44:50Z</time>
      </trkpt>
      <trkpt lat="45.18219" lon="5.91248">
        <ele>1418.2</ele>
        <time>2018-05-12T14:44:53Z</time>
      </trkpt>
      <trkpt lat="45.18219" lon="5.9124">
        <ele>1415.1</ele>
        <time>2018-05-12T14:44:55Z</time>
      </trkpt>
      <trkpt lat="45.18216" lon="5.91221">
        <ele>1409.6</ele>
        <time>2018-05-12T14:45:03Z</time>
      </trkpt>
      <trkpt lat="45.18219" lon="5.91213">
        <ele>1404.9</ele>
        <time>2018-05-12T14:45:19Z</time>
      </trkpt>
      <trkpt lat="45.1822" lon="5.91199">
        <ele>1399.8</ele>
        <time>2018-05-12T14:45:22Z</time>
      </trkpt>
      <trkpt lat="45.18216" lon="5.91182">
        <ele>1394.1</ele>
        <time>2018-05-12T14:45:29Z</time>
      </trkpt>
      <trkpt lat="45.18217" lon="5.91176">
        <ele>1390.4</ele>
        <time>2018-05-12T14:45:31Z</time>
      </trkpt>
      <trkpt lat="45.18219" lon="5.91173">
        <ele>1389.6</ele>
        <time>2018-05-12T14:45:37Z</time>
      </trkpt>
      <trkpt lat="45.18222" lon="5.91174">
        <ele>1388.8</ele>
        <time>2018-05-12T14:45:39Z</time>
      </trkpt>
      <trkpt lat="45.18224" lon="5.91168">
        <ele>1387</ele>
        <time>2018-05-12T14:45:42Z</time>
      </trkpt>
      <trkpt lat="45.1823" lon="5.91161">
        <ele>1382.4</ele>
        <time>2018-05-12T14:45:48Z</time>
      </trkpt>
      <trkpt lat="45.18233" lon="5.9116">
        <ele>1381.7</ele>
        <time>2018-05-12T14:45:50Z</time>
      </trkpt>
      <trkpt lat="45.18235" lon="5.91156">
        <ele>1379.5</ele>
        <time>2018-05-12T14:45:56Z</time>
      </trkpt>
      <trkpt lat="45.18237" lon="5.91143">
        <ele>1374.6</ele>
        <time>2018-05-12T14:46:05Z</time>
      </trkpt>
      <trkpt lat="45.18241" lon="5.91129">
        <ele>1367.2</ele>
        <time>2018-05-12T14:46:18Z</time>
      </trkpt>
      <trkpt lat="45.18242" lon="5.91125">
        <ele>1366.9</ele>
        <time>2018-05-12T14:46:21Z</time>
      </trkpt>
      <trkpt lat="45.18253" lon="5.91108">
        <ele>1357.6</ele>
        <time>2018-05-12T14:46:37Z</time>
      </trkpt>
      <trkpt lat="45.18252" lon="5.91104">
        <ele>1356.4</ele>
        <time>2018-05-12T14:46:40Z</time>
      </trkpt>
      <trkpt lat="45.18255" lon="5.91094">
        <ele>1351.4</ele>
        <time>2018-05-12T14:46:44Z</time>
      </trkpt>
      <trkpt lat="45.18253" lon="5.91084">
        <ele>1347.9</ele>
        <time>2018-05-12T14:46:48Z</time>
      </trkpt>
      <trkpt lat="45.18255" lon="5.91066">
        <ele>1343.6</ele>
        <time>2018-05-12T14:46:52Z</time>
      </trkpt>
      <trkpt lat="45.18257" lon="5.91056">
        <ele>1341.9</ele>
        <time>2018-05-12T14:46:57Z</time>
      </trkpt>
      <trkpt lat="45.18261" lon="5.91054">
        <ele>1341</ele>
        <time>2018-05-12T14:47:06Z</time>
      </trkpt>
      <trkpt lat="45.18258" lon="5.91043">
        <ele>1340</ele>
        <time>2018-05-12T14:47:10Z</time>
      </trkpt>
      <trkpt lat="45.18258" lon="5.91039">
        <ele>1339.6</ele>
        <time>2018-05-12T14:47:16Z</time>
      </trkpt>
      <trkpt lat="45.18256" lon="5.91034">
        <ele>1338.5</ele>
        <time>2018-05-12T14:47:22Z</time>
      </trkpt>
      <trkpt lat="45.1825" lon="5.91032">
        <ele>1337.2</ele>
        <time>2018-05-12T14:47:34Z</time>
      </trkpt>
      <trkpt lat="45.18233" lon="5.91021">
        <ele>1334.3</ele>
        <time>2018-05-12T14:47:45Z</time>
      </trkpt>
      <trkpt lat="45.18226" lon="5.91019">
        <ele>1333.8</ele>
        <time>2018-05-12T14:47:50Z</time>
      </trkpt>
      <trkpt lat="45.18211" lon="5.91007">
        <ele>1331.8</ele>
        <time>2018-05-12T14:48:00Z</time>
      </trkpt>
      <trkpt lat="45.18205" lon="5.91">
        <ele>1330.8</ele>
        <time>2018-05-12T14:48:06Z</time>
      </trkpt>
      <trkpt lat="45.18191" lon="5.9099">
        <ele>1327.3</ele>
        <time>2018-05-12T14:48:11Z</time>
      </trkpt>
      <trkpt lat="45.18185" lon="5.90986">
        <ele>1327.3</ele>
        <time>2018-05-12T14:48:19Z</time>
      </trkpt>
      <trkpt lat="45.18166" lon="5.9098">
        <ele>1325.3</ele>
        <time>2018-05-12T14:48:33Z</time>
      </trkpt>
      <trkpt lat="45.18149" lon="5.90977">
        <ele>1324.9</ele>
        <time>2018-05-12T14:48:43Z</time>
      </trkpt>
      <trkpt lat="45.18137" lon="5.9098">
        <ele>1324</ele>
        <time>2018-05-12T14:48:49Z</time>
      </trkpt>
      <trkpt lat="45.18106" lon="5.90958">
        <ele>1322.9</ele>
        <time>2018-05-12T14:49:03Z</time>
      </trkpt>
      <trkpt lat="45.18101" lon="5.90958">
        <ele>1322.6</ele>
        <time>2018-05-12T14:49:09Z</time>
      </trkpt>
      <trkpt lat="45.1809" lon="5.9095">
        <ele>1321.6</ele>
        <time>2018-05-12T14:49:19Z</time>
      </trkpt>
      <trkpt lat="45.18075" lon="5.90954">
        <ele>1319.7</ele>
        <time>2018-05-12T14:49:28Z</time>
      </trkpt>
      <trkpt lat="45.18057" lon="5.9095">
        <ele>1317.4</ele>
        <time>2018-05-12T14:49:40Z</time>
      </trkpt>
      <trkpt lat="45.18045" lon="5.90947">
        <ele>1315.2</ele>
        <time>2018-05-12T14:49:50Z</time>
      </trkpt>
      <trkpt lat="45.18029" lon="5.90936">
        <ele>1311.6</ele>
        <time>2018-05-12T14:49:56Z</time>
      </trkpt>
      <trkpt lat="45.18019" lon="5.90936">
        <ele>1310.2</ele>
        <time>2018-05-12T14:50:06Z</time>
      </trkpt>
      <trkpt lat="45.18012" lon="5.90931">
        <ele>1309.3</ele>
        <time>2018-05-12T14:50:13Z</time>
      </trkpt>
      <trkpt lat="45.18001" lon="5.90934">
        <ele>1308.3</ele>
        <time>2018-05-12T14:50:19Z</time>
      </trkpt>
      <trkpt lat="45.17993" lon="5.9093">
        <ele>1307.7</ele>
        <time>2018-05-12T14:50:26Z</time>
      </trkpt>
      <trkpt lat="45.17969" lon="5.90925">
        <ele>1304.2</ele>
        <time>2018-05-12T14:50:35Z</time>
      </trkpt>
      <trkpt lat="45.17961" lon="5.90926">
        <ele>1303.3</ele>
        <time>2018-05-12T14:50:39Z</time>
      </trkpt>
      <trkpt lat="45.17954" lon="5.9093">
        <ele>1302.6</ele>
        <time>2018-05-12T14:50:45Z</time>
      </trkpt>
      <trkpt lat="45.17944" lon="5.90927">
        <ele>1301.9</ele>
        <time>2018-05-12T14:50:52Z</time>
      </trkpt>
      <trkpt lat="45.17931" lon="5.9093">
        <ele>1303.2</ele>
        <time>2018-05-12T14:51:01Z</time>
      </trkpt>
      <trkpt lat="45.17923" lon="5.90935">
        <ele>1304</ele>
        <time>2018-05-12T14:51:06Z</time>
      </trkpt>
      <trkpt lat="45.17913" lon="5.90944">
        <ele>1303.3</ele>
        <time>2018-05-12T14:51:11Z</time>
      </trkpt>
      <trkpt lat="45.17898" lon="5.90961">
        <ele>1300.2</ele>
        <time>2018-05-12T14:51:24Z</time>
      </trkpt>
      <trkpt lat="45.17897" lon="5.90966">
        <ele>1300</ele>
        <time>2018-05-12T14:51:27Z</time>
      </trkpt>
      <trkpt lat="45.17891" lon="5.90969">
        <ele>1298.8</ele>
        <time>2018-05-12T14:51:32Z</time>
      </trkpt>
    </trkseg>
  </trk>
</gpx>